[[[{"header":{"parameterUnit":"kt","parameterCategory":2,"dx":1,"dy":1,"la1":29.587661999999998,"la2":31.0,"lo1":-88.76705300000003,"lo2":-86.6583820000003,"nx":115,"ny":88,"refTime":"2022-10-16T18:00:00:Z","depth":0,"parameterNumber":1,"parameterNumberName":"U-component_of_WINDS"},"data":[19.2535,19.1286,18.9237,18.7602,18.645,18.5415,18.4536,18.3917,18.3348,18.3068,18.3012,18.2713,18.2656,18.304,18.2444,18.2131,18.2202,18.1959,18.1959,18.1931,18.1931,18.1931,18.1931,18.1931,18.1931,18.2016,18.2145,18.2344,18.2618,18.3585,18.4834,18.6399,18.7959,18.9777,19.1625,19.2706,19.3704,19.456,19.5063,19.5383,19.5644,19.6271,19.6934,19.7161,19.7318,19.7318,19.7318,19.7318,19.7318,19.7318,19.7318,19.7318,19.7318,19.7318,19.7318,19.7318,19.7318,19.7318,19.7318,19.7318,19.7318,19.7318,19.7318,19.7318,19.7318,19.7318,19.7318,19.7318,19.7318,19.7318,19.7318,19.7318,19.7318,19.7318,19.7318,19.7318,19.7318,19.7318,19.7318,19.7318,19.7318,19.7318,19.7318,19.7318,19.7318,19.7318,19.7318,19.7318,19.7318,19.7318,19.7318,19.7318,19.7318,19.7318,19.7318,19.7318,19.7318,19.7318,19.7318,19.7318,19.7318,19.7318,19.7318,19.7318,19.7318,19.7318,19.7318,19.7318,19.7318,19.7318,19.7318,19.7318,19.7318,19.7318,19.7318,19.3405,19.3279,19.1321,18.9373,18.767,18.6947,18.604,18.5133,18.4509,18.4263,18.44,18.4263,18.4153,18.3837,18.3222,18.283,18.2477,18.223,18.1974,18.1931,18.1931,18.1931,18.1931,18.1931,18.1931,18.2045,18.2302,18.2491,18.2984,18.4384,18.5723,18.6973,18.8646,19.0343,19.1927,19.2977,19.3793,19.469,19.5183,19.555,19.6128,19.6764,19.7112,19.7269,19.7318,19.7318,19.7318,19.7318,19.7318,19.7318,19.7318,19.7318,19.7318,19.7318,19.7318,19.7318,19.7318,19.7318,19.7318,19.7318,19.7318,19.7318,19.7318,19.7318,19.7318,19.7318,19.7318,19.7318,19.7318,19.7318,19.7318,19.7318,19.7318,19.7318,19.7318,19.7318,19.7318,19.7318,19.7318,19.7318,19.7318,19.7318,19.7318,19.7318,19.7318,19.7318,19.7318,19.7318,19.7318,19.7318,19.7318,19.7318,19.7318,19.7318,19.7318,19.7318,19.7318,19.7318,19.7318,19.7318,19.7318,19.7318,19.7318,19.7318,19.7318,19.7318,19.7318,19.7318,19.7318,19.7318,19.7318,19.7318,19.7318,19.7318,19.7318,19.4023,19.3793,19.2123,19.0679,18.9484,18.8709,18.7925,18.7048,18.6199,18.6411,18.7116,18.6332,18.5723,18.5267,18.4208,18.3529,18.2689,18.25,18.2245,18.2002,18.1931,18.1931,18.1931,18.1931,18.1931,18.1959,18.2273,18.2956,18.3864,18.5294,18.6767,18.8027,18.9447,19.1013,19.225,19.3257,19.4154,19.5063,19.5498,19.5944,19.6433,19.6904,19.7279,19.7318,19.7318,19.7318,19.7318,19.7318,19.7318,19.7318,19.7318,19.7318,19.7318,19.7318,19.7318,19.7318,19.7318,19.7318,19.7318,19.7318,19.7318,19.7318,19.7318,19.7318,19.7318,19.7318,19.7318,19.7318,19.7318,19.7318,19.7318,19.7318,19.7318,19.7318,19.7318,19.7318,19.7318,19.7318,19.7318,19.7318,19.7318,19.7318,19.7318,19.7318,19.7318,19.7318,19.7318,19.7318,19.7318,19.7318,19.7318,19.7318,19.7318,19.7318,19.7318,19.7318,19.7318,19.7318,19.7318,19.7318,19.7318,19.7318,19.7318,19.7318,19.7318,19.7318,19.7318,19.7318,19.7318,19.7318,19.7318,19.7318,19.7318,19.7318,19.7318,19.4528,19.4045,19.2878,19.1973,19.1237,19.0488,18.9822,18.9089,18.8477,18.9033,18.9645,18.8508,18.7435,18.6726,18.5509,18.4414,18.3487,18.3054,18.2505,18.2302,18.1959,18.1931,18.1931,18.1931,18.1931,18.1959,18.233,18.2984,18.44,18.6121,18.7696,18.9244,19.0367,19.1718,19.2921,19.3516,19.4371,19.5275,19.5716,19.6189,19.6734,19.7141,19.7318,19.7318,19.7318,19.7318,19.7318,19.7318,19.7318,19.7318,19.7318,19.7318,19.7318,19.7318,19.7318,19.7318,19.7318,19.7318,19.7318,19.7318,19.7318,19.7318,19.7318,19.7318,19.7318,19.7318,19.7318,19.7318,19.7318,19.7318,19.7318,19.7318,19.7318,19.7318,19.7318,19.7318,19.7318,19.7318,19.7318,19.7318,19.7318,19.7318,19.7318,19.7318,19.7318,19.7318,19.7318,19.7318,19.7318,19.7318,19.7318,19.7318,19.7318,19.7318,19.7318,19.7318,19.7318,19.7318,19.7318,19.7318,19.7318,19.7318,19.7318,19.7318,19.7318,19.7318,19.7318,19.7318,19.7318,19.7318,19.7318,19.7318,19.7318,19.7318,19.7318,19.469,19.4604,19.4045,19.3168,19.2364,19.2181,19.1625,19.0999,19.1531,19.1846,19.1413,19.0347,18.9311,18.8319,18.6986,18.5896,18.4807,18.3682,18.3068,18.2632,18.2259,18.1974,18.1974,18.1931,18.1931,18.2116,18.2543,18.3208,18.4862,18.7009,18.912,19.067,19.1577,19.2445,19.3505,19.3968,19.4522,19.5289,19.581,19.6332,19.6943,19.7249,19.7318,19.7318,19.7318,19.7318,19.7318,19.7318,19.7318,19.7318,19.7318,19.7318,19.7318,19.7318,19.7318,19.7318,19.7318,19.7318,19.7318,19.7318,19.7318,19.7318,19.7318,19.7318,19.7318,19.7318,19.7318,19.7318,19.7318,19.7318,19.7318,19.7318,19.7318,19.7318,19.7318,19.7318,19.7318,19.7318,19.7318,19.7318,19.7318,19.7318,19.7318,19.7318,19.7318,19.7318,19.7318,19.7318,19.7318,19.7318,19.7318,19.7318,19.7318,19.7318,19.7318,19.7318,19.7318,19.7318,19.7318,19.7318,19.7318,19.7318,19.7318,19.7318,19.7318,19.7318,19.7318,19.7318,19.7318,19.7318,19.7318,19.7318,19.7318,19.7318,19.7318,19.4722,19.4781,19.4528,19.4023,19.3416,19.3022,19.2979,19.2957,19.3249,19.3137,19.2639,19.188,19.0956,18.9863,18.8628,18.7268,18.5975,18.4754,18.371,18.3208,18.2571,18.233,18.2031,18.1931,18.1974,18.2131,18.2614,18.3432,18.5039,18.7628,19.0198,19.1472,19.2742,19.3416,19.3903,19.4355,19.4808,19.5289,19.581,19.6332,19.6784,19.7161,19.7269,19.7318,19.7318,19.7318,19.7318,19.7318,19.7318,19.7318,19.7318,19.7318,19.7318,19.7318,19.7318,19.7318,19.7318,19.7318,19.7318,19.7318,19.7318,19.7318,19.7318,19.7318,19.7318,19.7318,19.7318,19.7318,19.7318,19.7318,19.7318,19.7318,19.7318,19.7318,19.7318,19.7318,19.7318,19.7318,19.7318,19.7318,19.7318,19.7318,19.7318,19.7318,19.7318,19.7318,19.7318,19.7318,19.7318,19.7318,19.7318,19.7318,19.7318,19.7318,19.7318,19.7318,19.7318,19.7318,19.7318,19.7318,19.7318,19.7318,19.7318,19.7318,19.7318,19.7318,19.7318,19.7318,19.7318,19.7318,19.7318,19.7318,19.7318,19.7318,19.7318,19.437,19.4722,19.4722,19.4539,19.4224,19.3826,19.3859,19.4154,19.4246,19.3925,19.345,19.3011,19.2273,19.1262,19.0238,18.8753,18.7384,18.6134,18.4929,18.4027,18.3487,18.2994,18.2599,18.2344,18.2188,18.2401,18.2882,18.371,18.5241,18.7751,19.0178,19.2031,19.3271,19.3859,19.4311,19.4571,19.5074,19.5488,19.5841,19.6382,19.6874,19.719,19.7259,19.7318,19.7318,19.7318,19.7318,19.7318,19.7318,19.7318,19.7318,19.7318,19.7318,19.7318,19.7318,19.7318,19.7318,19.7318,19.7318,19.7318,19.7318,19.7318,19.7318,19.7318,19.7318,19.7318,19.7318,19.7318,19.7318,19.7318,19.7318,19.7318,19.7318,19.7318,19.7318,19.7318,19.7318,19.7318,19.7318,19.7318,19.7318,19.7318,19.7318,19.7318,19.7318,19.7318,19.7318,19.7318,19.7318,19.7318,19.7318,19.7318,19.7318,19.7318,19.7318,19.7318,19.7318,19.7318,19.7318,19.7318,19.7318,19.7318,19.7318,19.7318,19.7318,19.7318,19.7318,19.7318,19.7318,19.7318,19.7318,19.7318,19.7318,19.7318,19.7318,19.3384,19.4651,19.4722,19.4781,19.4771,19.4674,19.4625,19.4679,19.4679,19.4431,19.3979,19.3914,19.3349,19.233,19.1321,19.0214,18.9052,18.764,18.6437,18.5455,18.474,18.4069,18.3557,18.3107,18.291,18.3008,18.3442,18.422,18.5348,18.7845,19.035,19.2397,19.3627,19.4176,19.4517,19.4754,19.5127,19.5571,19.5873,19.6382,19.6914,19.7239,19.7308,19.7318,19.7318,19.7318,19.7318,19.7318,19.7318,19.7318,19.7318,19.7318,19.7318,19.7318,19.7318,19.7318,19.7318,19.7318,19.7318,19.7318,19.7318,19.7318,19.7318,19.7318,19.7318,19.7318,19.7318,19.7318,19.7318,19.7318,19.7318,19.7318,19.7318,19.7318,19.7318,19.7318,19.7318,19.7318,19.7318,19.7318,19.7318,19.7318,19.7318,19.7318,19.7318,19.7318,19.7318,19.7318,19.7318,19.7318,19.7318,19.7318,19.7318,19.7318,19.7318,19.7318,19.7318,19.7318,19.7318,19.7318,19.7318,19.7318,19.7318,19.7318,19.7318,19.7318,19.7318,19.7318,19.7318,19.7318,19.7318,19.7318,19.7318,19.7318,19.7318,19.2761,19.3395,19.4299,19.4722,19.4722,19.4722,19.4722,19.4722,19.4781,19.4717,19.4506,19.4474,19.4115,19.3438,19.2649,19.1718,19.0335,18.9361,18.8339,18.6542,18.6146,18.5402,18.4564,18.3933,18.3779,18.3609,18.3986,18.4794,18.5856,18.7666,18.9855,19.2088,19.3704,19.4295,19.4576,19.4797,19.5085,19.5519,19.5944,19.6301,19.6834,19.7161,19.7318,19.7318,19.7318,19.7318,19.7318,19.7318,19.7318,19.7318,19.7318,19.7318,19.7318,19.7318,19.7318,19.7318,19.7318,19.7318,19.7318,19.7318,19.7318,19.7318,19.7318,19.7318,19.7318,19.7318,19.7318,19.7318,19.7318,19.7318,19.7318,19.7318,19.7318,19.7318,19.7318,19.7318,19.7318,19.7318,19.7318,19.7318,19.7318,19.7318,19.7318,19.7318,19.7318,19.7318,19.7318,19.7318,19.7318,19.7318,19.7318,19.7318,19.7318,19.7318,19.7318,19.7318,19.7318,19.7318,19.7318,19.7318,19.7318,19.7318,19.7318,19.7318,19.7318,19.7318,19.7318,19.7318,19.7318,19.7318,19.7318,19.7318,19.7318,19.7318,19.7318,19.1987,19.261,19.4088,19.4808,19.4936,19.4867,19.4808,19.4904,19.4797,19.4722,19.4722,19.4722,19.4528,19.4165,19.3535,19.2808,19.1648,19.1015,18.9936,18.8175,18.7925,18.6895,18.6015,18.5495,18.5024,18.4603,18.4821,18.5616,18.632,18.8104,18.9899,19.1532,19.3212,19.4052,19.4116,19.4805,19.5169,19.555,19.5924,19.6362,19.6874,19.7161,19.7318,19.7318,19.7318,19.7318,19.7318,19.7318,19.7318,19.7318,19.7318,19.7318,19.7318,19.7318,19.7318,19.7318,19.7318,19.7318,19.7318,19.7318,19.7318,19.7318,19.7318,19.7318,19.7318,19.7318,19.7318,19.7318,19.7318,19.7318,19.7318,19.7318,19.7318,19.7318,19.7318,19.7318,19.7318,19.7318,19.7318,19.7318,19.7318,19.7318,19.7318,19.7318,19.7318,19.7318,19.7318,19.7318,19.7318,19.7318,19.7318,19.7318,19.7318,19.7318,19.7318,19.7318,19.7318,19.7318,19.7318,19.7318,19.7318,19.7318,19.7318,19.7318,19.7318,19.7318,19.7318,19.7318,19.7318,19.7318,19.7318,19.7318,19.7318,19.7318,19.7318,19.0941,19.2561,19.4018,19.4837,19.5014,19.4936,19.5042,19.5349,19.5,19.4846,19.4722,19.4722,19.4749,19.4582,19.4176,19.3638,19.2876,19.2262,19.1249,19.0238,18.9761,18.8884,18.8027,18.7216,18.6684,18.5896,18.6095,18.6437,18.6649,18.8285,18.9866,19.1429,19.215,19.2673,19.2599,19.4252,19.5338,19.5782,19.6199,19.6529,19.6856,19.7126,19.7246,19.7318,19.7318,19.7318,19.7318,19.7318,19.7318,19.7318,19.7318,19.7318,19.7318,19.7318,19.7318,19.7318,19.7318,19.7318,19.7318,19.7318,19.7318,19.7318,19.7318,19.7318,19.7318,19.7318,19.7318,19.7318,19.7318,19.7318,19.7318,19.7318,19.7318,19.7318,19.7318,19.7318,19.7318,19.7318,19.7318,19.7318,19.7318,19.7318,19.7318,19.7318,19.7318,19.7318,19.7318,19.7318,19.7318,19.7318,19.7318,19.7318,19.7318,19.7318,19.7318,19.7318,19.7318,19.7318,19.7318,19.7318,19.7318,19.7318,19.7318,19.7318,19.7318,19.7318,19.7318,19.7318,19.7318,19.7318,19.7318,19.7318,19.7318,19.7318,19.7318,18.9403,19.0941,19.248,19.3378,19.3868,19.5034,19.5685,19.5716,19.5331,19.5032,19.4722,19.4722,19.4722,19.4771,19.4539,19.4257,19.3771,19.3372,19.2604,19.2019,19.1426,19.0682,18.9838,18.9058,18.8603,18.787,18.7832,18.8048,18.8177,18.8369,18.927,19.0119,19.0571,19.0752,19.0871,19.1672,19.244,19.336,19.4287,19.5307,19.5813,19.6523,19.7104,19.7094,19.7104,19.7175,19.7104,19.7246,19.7246,19.7318,19.7318,19.7318,19.7318,19.7318,19.7318,19.7318,19.7318,19.7318,19.7318,19.7318,19.7318,19.7318,19.7318,19.7318,19.7318,19.7318,19.7318,19.7318,19.7318,19.7318,19.7318,19.7318,19.7318,19.7318,19.7318,19.7318,19.7318,19.7318,19.7318,19.7318,19.7318,19.7318,19.7318,19.7318,19.7318,19.7318,19.7318,19.7318,19.7318,19.7318,19.7318,19.7318,19.7318,19.7318,19.7318,19.7318,19.7318,19.7318,19.7318,19.7318,19.7318,19.7318,19.7318,19.7318,19.7318,19.7318,19.7318,19.7318,19.7318,19.7318,19.7318,19.7318,19.7318,19.7318,19.7318,18.8347,18.9262,19.0237,19.1286,19.2419,19.3441,19.4445,19.5216,19.4848,19.4839,19.5194,19.5053,19.4893,19.4824,19.47,19.456,19.4333,19.41,19.3616,19.3193,19.2729,19.2089,19.1473,19.0861,19.0434,18.9567,18.8937,18.9054,18.9106,18.8383,18.863,18.8581,18.8601,18.8864,18.9637,19.0505,19.1348,19.2283,19.3184,19.3787,19.4272,19.5086,19.5514,19.5576,19.5871,19.638,19.6452,19.6961,19.7246,19.7318,19.7318,19.7318,19.7318,19.7318,19.7318,19.7318,19.7318,19.7318,19.7318,19.7318,19.7318,19.7318,19.7318,19.7318,19.7318,19.7318,19.7318,19.7318,19.7318,19.7318,19.7318,19.7318,19.7318,19.7318,19.7318,19.7318,19.7318,19.7318,19.7318,19.7318,19.7318,19.7318,19.7318,19.7318,19.7318,19.7318,19.7318,19.7318,19.7318,19.7318,19.7318,19.7318,19.7318,19.7318,19.7318,19.7318,19.7318,19.7318,19.7318,19.7318,19.7318,19.7318,19.7318,19.7318,19.7318,19.7318,19.7318,19.7318,19.7318,19.7318,19.7318,19.7318,19.7318,19.7318,19.7318,18.7593,18.7725,18.7918,18.9336,19.1185,19.0873,19.2279,19.4135,19.3726,19.4233,19.5002,19.5288,19.4919,19.4882,19.4846,19.4781,19.476,19.423,19.4045,19.3859,19.3583,19.3092,19.251,19.204,19.1591,19.0673,18.9498,18.8863,18.854,18.8007,18.741,18.7023,18.7321,18.7694,18.8305,18.9327,19.0384,19.098,19.2025,19.2379,19.256,19.2926,19.3069,19.3273,19.4068,19.4791,19.4862,19.58,19.6442,19.688,19.6808,19.6808,19.7246,19.7318,19.7318,19.7318,19.7318,19.7318,19.7318,19.7318,19.7318,19.7318,19.7318,19.7318,19.7318,19.7318,19.7318,19.7318,19.7318,19.7318,19.7318,19.7318,19.7318,19.7318,19.7318,19.7318,19.7318,19.7318,19.7318,19.7318,19.7318,19.7318,19.7318,19.7318,19.7318,19.7318,19.7318,19.7318,19.7318,19.7318,19.7318,19.7318,19.7318,19.7318,19.7318,19.7318,19.7318,19.7318,19.7318,19.7318,19.7318,19.7318,19.7318,19.7318,19.7318,19.7318,19.7318,19.7318,19.7318,19.7318,19.7318,19.7318,19.7318,19.7318,19.7318,18.639,18.7041,18.8582,18.9537,19.024,19.1592,19.2489,19.299,19.261,19.2666,19.3115,19.3818,19.451,19.4972,19.4714,19.4494,19.4673,19.4614,19.456,19.4539,19.4377,19.392,19.3192,19.2197,19.1479,19.0826,18.9482,18.867,18.8184,18.755,18.6943,18.6681,18.6793,18.6922,18.727,18.8002,18.8682,18.9121,19.0268,19.0867,19.109,19.1927,19.2346,19.2631,19.2907,19.3202,19.3273,19.3854,19.4639,19.5229,19.5586,19.6085,19.6951,19.7104,19.7104,19.7318,19.7094,19.7104,19.7246,19.7318,19.7318,19.7318,19.7318,19.7318,19.7318,19.7318,19.7318,19.7318,19.7318,19.7318,19.7318,19.7318,19.7318,19.7318,19.7318,19.7318,19.7318,19.7318,19.7318,19.7318,19.7318,19.7318,19.7318,19.7318,19.7318,19.7318,19.7318,19.7318,19.7318,19.7318,19.7318,19.7318,19.7318,19.7318,19.7318,19.7318,19.7318,19.7318,19.7318,19.7318,19.7318,19.7318,19.7318,19.7318,19.7318,19.7318,19.7318,19.7318,19.7318,19.7318,19.7318,19.7318,19.7318,19.7318,19.7318,18.6205,18.6699,18.7875,18.8515,18.886,18.9854,19.0776,19.1442,19.1413,19.1673,19.2359,19.282,19.3281,19.3543,19.3217,19.3389,19.391,19.374,19.4029,19.4549,19.3964,19.3586,19.2982,19.1772,19.1084,19.0379,18.939,18.8305,18.7601,18.6964,18.6619,18.6641,18.667,18.6706,18.7214,18.7313,18.7433,18.7926,18.8585,18.9306,18.952,19.0082,19.0572,19.0572,19.1223,19.1571,19.1856,19.2132,19.314,19.364,19.4006,19.4729,19.5871,19.6309,19.6675,19.6951,19.6727,19.6594,19.7104,19.7318,19.7318,19.7318,19.7318,19.7246,19.7318,19.7318,19.7318,19.7318,19.7318,19.7318,19.7318,19.7318,19.7318,19.7318,19.7318,19.7318,19.7318,19.7318,19.7318,19.7318,19.7318,19.7318,19.7318,19.7318,19.7318,19.7318,19.7318,19.7318,19.7318,19.7318,19.7318,19.7318,19.7318,19.7318,19.7318,19.7318,19.7318,19.7318,19.7318,19.7318,19.7318,19.7318,19.7318,19.7318,19.7318,19.7318,19.7318,19.7318,19.7318,19.7318,19.7318,19.7318,19.7318,19.7318,19.7318,18.6726,18.6765,18.6794,18.6997,18.7494,18.7613,18.8586,18.993,19.0001,19.0867,19.1618,19.189,19.1818,19.1866,19.1237,19.1791,19.2362,19.2535,19.2839,19.3452,19.2674,19.2138,19.198,19.0652,19.0094,18.9939,18.877,18.7668,18.7266,18.701,18.6843,18.6872,18.6939,18.703,18.7394,18.7499,18.7674,18.7947,18.8013,18.8093,18.8165,18.8236,18.8307,18.8583,18.9306,19.002,19.0234,19.0929,19.1937,19.2222,19.2365,19.315,19.4373,19.4729,19.5514,19.5871,19.5728,19.531,19.6166,19.6238,19.6166,19.6095,19.6666,19.6961,19.689,19.6961,19.7318,19.7318,19.7318,19.7318,19.7318,19.7318,19.7318,19.7318,19.7318,19.7318,19.7318,19.7318,19.7318,19.7318,19.7318,19.7318,19.7175,19.7246,19.7246,19.7318,19.7318,19.7318,19.7318,19.7318,19.7318,19.7318,19.7318,19.7318,19.7318,19.7318,19.7318,19.7318,19.7318,19.7318,19.7318,19.7318,19.7318,19.7318,19.7318,19.7318,19.7318,19.7318,19.7318,19.7318,19.7318,19.7318,19.7318,19.7318,19.7318,18.7413,18.7688,18.7698,18.7735,18.781,18.7829,18.809,18.8351,18.8512,18.8726,18.9064,19.004,19.0471,19.0476,19.1105,19.1648,19.148,19.1204,19.1311,19.1592,19.096,19.0749,19.0573,18.9658,18.8933,18.9082,18.7896,18.7246,18.7452,18.7594,18.766,18.7594,18.766,18.7773,18.7773,18.7844,18.7838,18.7932,18.8022,18.8022,18.8022,18.8022,18.8022,18.8093,18.8236,18.8521,18.8673,18.9154,18.9806,19.0448,19.0876,19.1447,19.2774,19.305,19.3273,19.3497,19.3283,19.3212,19.364,19.3783,19.4078,19.4139,19.4853,19.53,19.5595,19.6238,19.7032,19.7318,19.7175,19.6951,19.6808,19.7175,19.7175,19.7104,19.7032,19.7246,19.7104,19.7246,19.7246,19.7104,19.7318,19.7175,19.6951,19.6951,19.6951,19.7023,19.7318,19.7318,19.7318,19.7318,19.7318,19.7318,19.7318,19.7318,19.7318,19.7318,19.7318,19.7318,19.7318,19.7318,19.7318,19.7318,19.7318,19.7318,19.7318,19.7318,19.7318,19.7318,19.7318,19.7318,19.7318,19.7318,19.7318,19.7318,19.7318,18.7754,18.8013,18.8022,18.8022,18.8022,18.8022,18.8022,18.8022,18.8022,18.8022,18.8227,18.8788,18.9032,18.9175,18.9849,19.0321,19.0318,19.0033,19.0347,19.066,18.9993,18.967,18.9599,18.8285,18.7926,18.7885,18.7658,18.7565,18.7913,18.8022,18.7975,18.8022,18.8022,18.8022,18.8022,18.8022,18.7941,18.7941,18.8022,18.8022,18.8022,18.8022,18.8022,18.8022,18.8022,18.8022,18.8022,18.8022,18.845,18.9021,18.9154,19.001,19.0795,19.1,19.0715,19.1366,19.1518,19.1794,19.2489,19.2631,19.256,19.2622,19.3273,19.3783,19.4078,19.4515,19.4801,19.4934,19.5005,19.5005,19.5148,19.4943,19.5096,19.5167,19.5738,19.6023,19.6238,19.689,19.6604,19.6166,19.6095,19.6023,19.6166,19.6299,19.6594,19.6951,19.7246,19.7318,19.7318,19.7318,19.7318,19.7318,19.7318,19.7318,19.7318,19.7318,19.7318,19.7318,19.7318,19.7318,19.7318,19.7318,19.7318,19.7318,19.7318,19.7318,19.7318,19.7318,19.7318,19.7318,19.7318,19.7318,19.7318,19.7318,19.7318,18.8022,18.8022,18.8022,18.8022,18.8022,18.8022,18.8022,18.8022,18.8022,18.8022,18.8022,18.8022,18.8093,18.8065,18.8013,18.8476,18.9183,18.8947,18.9299,18.9856,18.913,18.8562,18.8489,18.7535,18.7252,18.7452,18.7698,18.7838,18.8013,18.8022,18.8022,18.8022,18.8022,18.8022,18.8022,18.8022,18.8022,18.8022,18.8022,18.8022,18.8022,18.8022,18.8022,18.8022,18.8022,18.8022,18.8022,18.8022,18.8022,18.8022,18.8022,18.8745,18.9449,18.8878,18.895,18.9663,18.9949,19.0305,19.1143,19.1561,19.1785,19.1918,19.2061,19.2213,19.2356,19.2641,19.3212,19.3059,19.2988,19.2836,19.2631,19.3059,19.2784,19.2988,19.3925,19.4729,19.5157,19.5514,19.5595,19.4791,19.4658,19.4587,19.4577,19.4648,19.4862,19.5076,19.5871,19.638,19.6594,19.6747,19.6961,19.7104,19.7175,19.7104,19.7104,19.7032,19.7246,19.7175,19.7318,19.7318,19.7318,19.7318,19.7318,19.7318,19.7318,19.7318,19.7318,19.7318,19.7318,19.7318,19.7318,19.7318,19.7318,19.7318,19.7318,18.8022,18.8022,18.8022,18.8022,18.8022,18.8022,18.8022,18.8022,18.8022,18.8022,18.8022,18.8022,18.8022,18.8022,18.8022,18.8065,18.8163,18.795,18.7972,18.8421,18.7682,18.7659,18.771,18.7564,18.7452,18.7891,18.7913,18.7932,18.8022,18.8022,18.8022,18.8022,18.8022,18.8022,18.8022,18.8022,18.8022,18.8022,18.8022,18.8022,18.8022,18.8022,18.8022,18.8022,18.8022,18.8022,18.8022,18.8022,18.8022,18.8022,18.8022,18.8084,18.8217,18.8013,18.8236,18.8307,18.8521,18.8878,18.9226,18.9083,18.9012,18.8726,18.9868,19.0591,19.0948,19.1499,19.1989,19.2275,19.2203,19.2203,19.255,19.2203,19.2275,19.2489,19.2703,19.364,19.4363,19.3863,19.3568,19.2988,19.3007,19.3017,19.3007,19.3007,19.314,19.3426,19.4506,19.5372,19.5657,19.5952,19.638,19.6594,19.6238,19.6166,19.6228,19.6228,19.6951,19.7094,19.7318,19.7318,19.7318,19.7318,19.7318,19.7318,19.7318,19.7318,19.7318,19.7318,19.7318,19.7318,19.7318,19.7318,19.7318,19.7318,19.7318,18.8022,18.8022,18.8022,18.8022,18.8022,18.8022,18.8022,18.8022,18.8022,18.8022,18.8022,18.8022,18.8022,18.8022,18.8022,18.8022,18.7895,18.7745,18.7741,18.7603,18.7499,18.7461,18.766,18.7769,18.7735,18.7975,18.8022,18.8022,18.8022,18.8022,18.8022,18.8022,18.8022,18.8022,18.8022,18.8022,18.8022,18.8022,18.8022,18.8022,18.8022,18.8022,18.8022,18.8022,18.8022,18.8022,18.8022,18.8022,18.8022,18.8022,18.8022,18.8022,18.8013,18.8022,18.8022,18.8022,18.8022,18.8022,18.8022,18.8022,18.8022,18.8084,18.8593,18.903,18.9378,18.9654,19.0144,19.0134,19.0215,19.0144,19.0134,19.0215,19.0144,19.0286,19.0867,19.1652,19.2161,19.1875,19.1438,19.1366,19.1366,19.1376,19.1447,19.1366,19.158,19.2356,19.3435,19.3721,19.4149,19.4506,19.5086,19.5372,19.5157,19.5157,19.5291,19.5647,19.6238,19.6666,19.7032,19.7318,19.7318,19.7318,19.7318,19.7318,19.7318,19.7318,19.7318,19.7318,19.7318,19.7318,19.7318,19.7318,19.7318,19.7318,19.7318,18.8022,18.8022,18.8022,18.8022,18.8022,18.8022,18.8022,18.8022,18.8022,18.8022,18.8022,18.8022,18.8022,18.8022,18.8022,18.8022,18.8013,18.8003,18.8022,18.8022,18.8022,18.7941,18.7923,18.7985,18.7932,18.8013,18.8022,18.8022,18.8022,18.8022,18.8022,18.8022,18.8022,18.8022,18.8022,18.8022,18.8022,18.8022,18.8022,18.8022,18.8022,18.8022,18.8022,18.8022,18.8022,18.8022,18.8022,18.8022,18.8022,18.8022,18.8022,18.8022,18.8022,18.8022,18.8022,18.8022,18.8022,18.8022,18.8022,18.8022,18.8022,18.8022,18.8093,18.8022,18.8022,18.8155,18.8084,18.8013,18.8022,18.8307,18.8369,18.8093,18.8298,18.8583,18.9235,18.9887,18.9887,18.9815,18.9806,18.9806,18.9806,18.9806,18.9815,18.9806,19.0296,19.1295,19.1794,19.207,19.2356,19.2712,19.3212,19.364,19.3568,19.3783,19.3925,19.4149,19.5015,19.58,19.6737,19.7318,19.7318,19.7318,19.7318,19.7318,19.7318,19.7318,19.7318,19.7318,19.7318,19.7318,19.7318,19.7318,19.7318,19.7318,19.7318,18.8022,18.8022,18.8022,18.8022,18.8022,18.8022,18.8022,18.8022,18.8022,18.8022,18.8022,18.8022,18.8022,18.8022,18.8022,18.8022,18.8022,18.8022,18.8022,18.8022,18.8022,18.8022,18.8022,18.8022,18.8022,18.8022,18.8022,18.8022,18.8022,18.8022,18.8022,18.8022,18.8022,18.8022,18.8022,18.8022,18.8022,18.8022,18.8022,18.8022,18.8022,18.8022,18.8022,18.8022,18.8022,18.8022,18.8022,18.8022,18.8022,18.8022,18.8022,18.8022,18.8022,18.8022,18.8022,18.8022,18.8022,18.8022,18.8022,18.8022,18.8022,18.8022,18.8022,18.8022,18.8022,18.8022,18.8022,18.8022,18.8022,18.8022,18.8022,18.8022,18.8022,18.8022,18.8093,18.8298,18.8227,18.8217,18.8217,18.8217,18.8307,18.8227,18.8227,18.8236,18.836,18.9796,19.0082,19.0367,19.0653,19.1,19.1419,19.1704,19.1918,19.2275,19.2427,19.2651,19.3721,19.4587,19.5524,19.6747,19.6747,19.7104,19.7175,19.7318,19.7318,19.7318,19.7318,19.7318,19.7318,19.7318,19.7318,19.7318,19.7318,19.7318,19.7318,18.8022,18.8022,18.8022,18.8022,18.8022,18.8022,18.8022,18.8022,18.8022,18.8022,18.8022,18.8022,18.8022,18.8022,18.8022,18.8022,18.8022,18.8022,18.8022,18.8022,18.8022,18.8022,18.8022,18.8022,18.8022,18.8022,18.8022,18.8022,18.8022,18.8022,18.8022,18.8022,18.8022,18.8022,18.8022,18.8022,18.8022,18.8022,18.8022,18.8022,18.8022,18.8022,18.8022,18.8022,18.8022,18.8022,18.8022,18.8022,18.8022,18.8022,18.8022,18.8022,18.8022,18.8022,18.8022,18.8022,18.8022,18.7951,18.8022,18.8022,18.8022,18.7951,18.8022,18.8022,18.8022,18.8022,18.8022,18.8022,18.8022,18.8022,18.8022,18.8022,18.8022,18.8022,18.8022,18.8022,18.8022,18.8022,18.8022,18.8022,18.8022,18.8013,18.8022,18.8022,18.8022,18.8165,18.8726,18.8878,18.9092,18.9368,18.9716,18.9502,18.9573,18.9858,19.0082,19.0876,19.1885,19.2384,19.3455,19.5524,19.6023,19.6594,19.6961,19.7318,19.7318,19.7318,19.7318,19.7318,19.7318,19.7318,19.7318,19.7318,19.7318,19.7318,19.7318,18.8022,18.8022,18.8022,18.8022,18.8022,18.8022,18.8022,18.8022,18.8022,18.8022,18.8022,18.8022,18.8022,18.8022,18.8022,18.8022,18.8022,18.8022,18.8022,18.8022,18.8022,18.8022,18.8022,18.8022,18.8022,18.8022,18.8022,18.8022,18.8022,18.8022,18.8022,18.8022,18.8022,18.8022,18.8022,18.8022,18.8022,18.8022,18.8022,18.8022,18.8022,18.8022,18.8022,18.8022,18.8022,18.8022,18.8022,18.8022,18.8022,18.7941,18.7656,18.7361,18.7209,18.68,18.6443,18.6452,18.6595,18.6666,18.6738,18.7014,18.729,18.7361,18.7656,18.8022,18.8022,18.8022,18.8022,18.8022,18.8022,18.8022,18.8022,18.8022,18.8022,18.8022,18.8022,18.8022,18.8022,18.8022,18.8022,18.8022,18.8022,18.8022,18.8022,18.8022,18.8022,18.8022,18.8093,18.8165,18.8307,18.8512,18.8797,18.8227,18.8084,18.8022,18.8307,18.9244,18.9958,19.0529,19.1956,19.3944,19.4301,19.5381,19.639,19.7165,19.7032,19.7246,19.7318,19.7318,19.7318,19.7318,19.7318,19.7318,19.7318,19.7318,19.7318,18.7941,18.8022,18.7951,18.7727,18.7727,18.7737,18.7594,18.7789,18.7727,18.7647,18.7737,18.7522,18.7665,18.7808,18.7442,18.7451,18.7879,18.7656,18.7656,18.7584,18.7594,18.7522,18.7513,18.7656,18.7799,18.7951,18.8022,18.8022,18.8022,18.8022,18.8022,18.8022,18.8022,18.8022,18.8022,18.8022,18.8022,18.8022,18.8022,18.8022,18.8022,18.8022,18.8022,18.8022,18.8022,18.8022,18.8022,18.7951,18.7951,18.7718,18.6567,18.5916,18.5497,18.4365,18.3883,18.3955,18.3669,18.3883,18.4026,18.5087,18.5711,18.5854,18.6942,18.8022,18.7799,18.787,18.8022,18.8022,18.8022,18.8022,18.8022,18.8022,18.8022,18.8022,18.8022,18.8022,18.8022,18.8022,18.8022,18.8022,18.8022,18.8022,18.8022,18.8022,18.8022,18.8022,18.8022,18.8022,18.8022,18.8022,18.8022,18.8022,18.8022,18.8022,18.8022,18.8816,18.9021,18.9663,19.0743,19.1518,19.1661,19.3678,19.5187,19.6176,19.6818,19.7094,19.7237,19.7318,19.7318,19.7318,19.7318,19.7318,19.7318,19.7318,19.7318,18.5025,18.5096,18.5025,18.5025,18.5016,18.5016,18.5025,18.5025,18.5025,18.5025,18.5087,18.5016,18.5034,18.5025,18.5025,18.5034,18.5168,18.6068,18.5934,18.5159,18.5025,18.5025,18.5087,18.6006,18.6933,18.7789,18.8022,18.8022,18.8022,18.8022,18.8022,18.8022,18.8022,18.8022,18.8022,18.8022,18.8022,18.8022,18.8022,18.8022,18.8022,18.8022,18.8022,18.8022,18.8022,18.8022,18.8022,18.8022,18.7504,18.6567,18.5987,18.5149,18.4231,18.3589,18.3312,18.3312,18.3312,18.325,18.3384,18.3731,18.416,18.4436,18.5577,18.6424,18.6638,18.7575,18.7951,18.8022,18.7879,18.8022,18.7941,18.7951,18.8022,18.7951,18.7879,18.8022,18.8022,18.8022,18.7951,18.8022,18.8022,18.8022,18.8022,18.8022,18.8022,18.8022,18.8022,18.8022,18.8022,18.8022,18.8022,18.8022,18.8022,18.8022,18.8022,18.8093,18.8236,18.895,18.9673,18.9806,19.0091,19.218,19.3535,19.4535,19.5566,19.5771,19.6594,19.6737,19.6961,19.7246,19.7318,19.7318,19.7318,19.7318,19.7318,18.3312,18.3312,18.3312,18.3312,18.3312,18.3312,18.3312,18.3312,18.3312,18.3312,18.3312,18.3312,18.3312,18.3312,18.3312,18.3312,18.3312,18.3803,18.3651,18.2875,18.3179,18.3384,18.3598,18.4445,18.5506,18.6372,18.6514,18.6728,18.7076,18.7209,18.7575,18.787,18.8022,18.8022,18.8022,18.8022,18.8022,18.8022,18.8022,18.8022,18.8022,18.8022,18.8022,18.8022,18.8022,18.7647,18.729,18.729,18.6434,18.4997,18.4864,18.4222,18.2804,18.2099,18.1805,18.1743,18.1823,18.1823,18.1814,18.218,18.2528,18.2804,18.4017,18.4793,18.5078,18.5863,18.6372,18.6443,18.6514,18.679,18.7147,18.7228,18.6871,18.6523,18.6514,18.6381,18.6309,18.68,18.737,18.7799,18.8022,18.8022,18.8022,18.8022,18.8022,18.8022,18.8022,18.8022,18.8022,18.8022,18.8022,18.8022,18.8022,18.8022,18.8022,18.8093,18.8165,18.8521,18.8878,18.9083,18.952,19.0743,19.1528,19.2508,19.353,19.4376,19.5342,19.5871,19.6095,19.638,19.6808,19.7094,19.7246,19.7318,19.7318,18.317,18.3036,18.325,18.2956,18.2884,18.2813,18.3107,18.2893,18.3027,18.2742,18.2679,18.3027,18.2751,18.3027,18.2742,18.3036,18.2679,18.1653,18.1082,18.1091,18.2313,18.2893,18.2893,18.3179,18.3446,18.3598,18.3464,18.4231,18.564,18.572,18.6291,18.7575,18.7522,18.737,18.7808,18.7656,18.7799,18.787,18.7941,18.8022,18.8022,18.8022,18.8022,18.8022,18.7727,18.6933,18.5711,18.564,18.4935,18.3607,18.3312,18.2599,18.1011,17.9664,17.8674,17.8888,17.8674,17.8612,17.8817,18.0155,18.094,18.1163,18.2447,18.3303,18.3384,18.3598,18.3812,18.3883,18.3883,18.4169,18.5426,18.5488,18.5016,18.375,18.3883,18.3883,18.3955,18.4802,18.621,18.729,18.7522,18.7879,18.7879,18.7665,18.7656,18.7727,18.787,18.8022,18.8022,18.8022,18.8022,18.8022,18.8022,18.8022,18.8022,18.7951,18.7951,18.7951,18.8155,18.8441,18.895,18.9306,19.0163,19.0581,19.1666,19.2555,19.3449,19.4305,19.4681,19.5157,19.6085,19.6513,19.6238,19.5952,19.638,18.0039,18.003,18.003,18.0039,18.003,18.003,18.003,18.003,18.003,18.003,18.003,18.003,18.003,18.003,18.0039,18.0039,17.995,17.9531,17.9236,17.9317,17.9745,18.0039,18.0173,18.1172,18.1725,18.1876,18.2751,18.3527,18.4026,18.4088,18.4302,18.4811,18.4811,18.4802,18.5016,18.5854,18.6434,18.6648,18.7432,18.7951,18.8022,18.8022,18.8022,18.7656,18.5881,18.4588,18.4088,18.4088,18.3312,18.201,18.1734,18.0949,17.945,17.8737,17.8469,17.8469,17.8398,17.8469,17.854,17.896,17.9236,17.9317,18.0735,18.1725,18.1805,18.2751,18.325,18.3312,18.3312,18.3384,18.3731,18.308,18.2733,18.3241,18.3312,18.3312,18.3312,18.375,18.4302,18.474,18.4954,18.4954,18.4963,18.5801,18.6291,18.6424,18.7352,18.7951,18.8022,18.8022,18.8022,18.8022,18.7941,18.7951,18.7513,18.7299,18.7308,18.738,18.7513,18.7941,18.8307,18.8441,18.8788,18.9064,18.9678,19.0629,19.1537,19.2526,19.3002,19.3345,19.422,19.5005,19.4648,19.4373,19.4434,17.673,17.6802,17.7381,17.7943,17.8389,17.8469,17.8469,17.8469,17.8469,17.8469,17.8469,17.8469,17.8469,17.8398,17.7881,17.7952,17.8398,17.8469,17.8469,17.8469,17.8469,17.8469,17.8532,17.9513,18.0084,18.0226,18.1091,18.1885,18.2313,18.2456,18.2742,18.317,18.3312,18.3312,18.3455,18.4302,18.4802,18.4864,18.5729,18.6309,18.6157,18.63,18.63,18.6157,18.4321,18.3027,18.2456,18.2456,18.1743,18.0084,18.0021,17.9593,17.8532,17.7961,17.7381,17.6882,17.6802,17.673,17.6802,17.6802,17.673,17.6873,17.7792,17.8434,17.9299,18.0093,18.0949,18.1386,18.1538,18.1243,18.0815,18.0387,18.0521,18.1315,18.1538,18.1457,18.16,18.2099,18.2456,18.2599,18.3036,18.3241,18.3669,18.416,18.4802,18.4855,18.5649,18.6086,18.6309,18.68,18.7076,18.7147,18.7575,18.7575,18.6728,18.63,18.63,18.6309,18.6381,18.6381,18.6194,18.6123,18.6257,18.639,18.7389,18.8279,18.8518,18.9588,19.0952,19.1499,19.2712,19.3212,19.2631,19.3283,19.3131,17.3779,17.4056,17.5357,17.681,17.8166,17.8104,17.8095,17.7881,17.8023,17.8175,17.8032,17.8023,17.8175,17.7952,17.6588,17.681,17.8032,17.7961,17.7961,17.7961,17.8175,17.8318,17.8326,17.8398,17.8532,17.8674,17.8888,17.9531,18.0797,18.0877,18.1591,18.2902,18.2813,18.2965,18.2893,18.3027,18.3179,18.3241,18.3536,18.3455,18.3455,18.325,18.3098,18.3107,18.3027,18.2242,18.1082,18.0868,18.0093,17.838,17.8309,17.8246,17.8032,17.681,17.5429,17.4144,17.3922,17.3842,17.3993,17.4064,17.3993,17.3922,17.4278,17.4564,17.6142,17.6436,17.7024,17.8086,17.8246,17.7738,17.6721,17.7372,17.8095,17.8237,17.8237,17.838,17.838,17.9736,18.0654,18.102,18.1885,18.2456,18.2822,18.317,18.3241,18.3232,18.3384,18.3598,18.3955,18.4802,18.5426,18.5782,18.6372,18.6738,18.4097,18.4026,18.3883,18.3955,18.4311,18.3669,18.3429,18.3314,18.3447,18.3867,18.5133,18.5828,18.5872,18.6728,18.8155,18.952,19.0733,19.1571,19.1214,19.2061,19.1918,17.3779,17.3842,17.4216,17.4706,17.5072,17.5072,17.5072,17.5072,17.5072,17.5072,17.5072,17.5072,17.5072,17.5009,17.4635,17.4652,17.5,17.5072,17.5072,17.5214,17.6293,17.673,17.6864,17.7881,17.8469,17.8469,17.8398,17.8666,17.9094,17.9165,17.9388,17.9673,17.9745,17.9807,17.9887,18.11,18.1591,18.1653,18.2742,18.3312,18.2893,18.1038,17.9745,17.9745,17.9736,17.9602,17.9165,17.9165,17.838,17.6802,17.6802,17.6231,17.5143,17.4635,17.4207,17.385,17.3779,17.3779,17.3779,17.3779,17.3779,17.3779,17.3779,17.3984,17.4358,17.4421,17.4635,17.5,17.5072,17.4929,17.4421,17.4786,17.5072,17.5081,17.5063,17.558,17.6579,17.7087,17.7943,17.896,17.9459,17.9754,17.9968,18.0806,18.152,18.1734,18.2519,18.3312,18.3455,18.3589,18.3946,18.4026,18.424,18.4097,18.3527,18.3027,18.3312,18.3312,18.3098,18.3027,18.3322,18.3268,18.3268,18.2421,18.334,18.3973,18.4072,18.4268,18.5186,18.6641,18.805,18.9002,18.9216,18.9216,18.9216,17.0372,17.1014,17.1639,17.2575,17.3699,17.3779,17.3779,17.3779,17.3779,17.3779,17.3636,17.2432,17.2218,17.286,17.2797,17.3217,17.3779,17.3779,17.3779,17.385,17.4715,17.5143,17.5214,17.6159,17.6516,17.6516,17.6507,17.6802,17.7381,17.7515,17.7809,17.8389,17.8469,17.8469,17.8532,17.945,17.995,17.9941,18.0815,18.0663,17.9379,17.7515,17.6516,17.6579,17.6525,17.6516,17.6588,17.6516,17.6151,17.5295,17.5152,17.4715,17.3779,17.3146,17.2583,17.1933,17.1299,17.0657,17.0007,16.9944,17.0007,16.9944,17.0514,17.1228,17.179,17.2432,17.2227,17.1308,17.1505,17.221,17.2789,17.3422,17.3779,17.3779,17.3779,17.4136,17.5081,17.5143,17.5429,17.6302,17.6588,17.673,17.7453,17.8362,17.9156,18.0012,18.0601,18.1172,18.1315,18.1957,18.2233,18.2304,18.1743,18.1386,18.1243,18.1315,18.1243,18.1243,18.1315,18.1315,18.1172,18.1324,18.1324,18.1181,18.1814,18.2269,18.2199,18.2814,18.3528,18.433,18.5667,18.6031,18.6006,18.6086,18.6086,16.5323,16.6687,16.8089,17.0363,17.2566,17.2718,17.278,17.2923,17.3074,17.3066,17.2352,16.9944,16.9453,17.0745,17.0888,17.1664,17.286,17.328,17.328,17.3217,17.3494,17.3565,17.3565,17.3779,17.3779,17.3922,17.3913,17.4715,17.5865,17.5865,17.6579,17.7881,17.8023,17.7889,17.7952,17.7961,17.7952,17.8032,17.8023,17.6659,17.3922,17.3779,17.3779,17.3779,17.3842,17.3779,17.3993,17.3779,17.3708,17.3565,17.3422,17.328,17.2932,17.1593,17.0175,16.8722,16.7384,16.5973,16.4752,16.4466,16.4681,16.4538,16.6044,16.7321,16.8588,17.002,16.9642,16.7747,16.8079,16.9461,17.0918,17.2169,17.2795,17.2883,17.3037,17.3414,17.3502,17.3565,17.3636,17.3708,17.4144,17.427,17.5651,17.6008,17.6588,17.7658,17.7943,17.8095,17.8549,17.9468,18.0226,17.9852,17.9013,17.8166,17.8032,17.8023,17.8023,17.8023,17.8023,17.8015,17.8086,17.8023,17.8023,17.8157,17.9085,17.9727,18.02,18.1529,18.2359,18.2421,18.291,18.3256,18.3347,18.3598,18.3403,16.4681,16.4966,16.5386,16.5885,16.6519,16.6519,16.7233,16.8319,16.8382,16.7677,16.659,16.5877,16.5671,16.6179,16.7329,16.8034,16.8534,16.9595,17.0158,17.0292,17.1442,17.1941,17.2093,17.3217,17.3779,17.3779,17.3779,17.3922,17.4287,17.4287,17.4492,17.4786,17.4858,17.4858,17.4866,17.4858,17.4858,17.4849,17.4786,17.4484,17.385,17.3779,17.3779,17.3779,17.3708,17.3779,17.3779,17.3779,17.3217,17.2021,17.08,16.9587,16.8399,16.6901,16.5885,16.5529,16.518,16.4823,16.4458,16.4466,16.4466,16.4466,16.4823,16.5109,16.5506,16.631,16.647,16.5905,16.5969,16.6893,16.8286,16.8817,16.9289,17.0425,17.0326,17.0628,17.1744,17.1941,17.2369,17.3565,17.3779,17.3788,17.4207,17.427,17.4564,17.4866,17.4858,17.5383,17.6372,17.6908,17.6624,17.5795,17.51,17.5,17.4786,17.4929,17.5,17.4858,17.4929,17.5072,17.5072,17.4929,17.4858,17.5169,17.5446,17.5829,17.566,17.6863,17.8334,17.9637,18.0565,18.1653,18.2501,18.2814,18.2637,16.2746,16.338,16.3388,16.3816,16.4466,16.4466,16.4958,16.5616,16.4958,16.4538,16.4466,16.4466,16.4466,16.453,16.5323,16.5688,16.5759,16.659,16.6947,16.7027,16.7812,16.8256,16.8382,16.9872,17.0586,17.0594,17.1291,17.1996,17.2663,17.2718,17.3074,17.3699,17.3779,17.3779,17.3779,17.3779,17.3779,17.3699,17.0934,16.9864,17.0586,17.0586,17.0942,17.1647,17.1639,17.1282,17.0594,17.0586,16.9881,16.8319,16.7447,16.659,16.5688,16.4244,16.3031,16.2397,16.1676,16.0962,16.0193,16.0193,16.0479,16.1192,16.2034,16.2018,16.0796,16.1012,16.1635,16.2496,16.3318,16.4265,16.5608,16.6299,16.694,16.7673,16.756,16.7789,16.8584,16.9228,17.0021,17.0704,17.1473,17.2128,17.2609,17.2726,17.294,17.3708,17.3779,17.4116,17.4925,17.4516,17.3876,17.3788,17.3779,17.3779,17.3779,17.3779,17.3779,17.3779,17.3779,17.3779,17.3779,17.3779,17.3848,17.3985,17.4108,17.4096,17.4435,17.5045,17.5787,17.6953,17.7711,17.832,17.9131,17.946,17.9138,16.055,16.1802,16.181,16.2603,16.3824,16.3753,16.3816,16.361,16.189,16.2024,16.3459,16.3459,16.3594,16.3824,16.4038,16.4093,16.4093,16.4387,16.4466,16.4466,16.4466,16.4466,16.4538,16.583,16.6481,16.6552,16.7803,16.9159,17.0317,17.046,17.1165,17.221,17.2495,17.2424,17.2495,17.2504,17.2495,17.2361,16.7153,16.51,16.6409,16.6481,16.7106,16.8374,16.8454,16.7803,16.6544,16.6473,16.5839,16.453,16.403,16.3824,16.3682,16.181,16.0265,15.8893,15.7172,15.5696,15.4701,15.4337,15.49,15.6527,15.8219,15.818,15.5772,15.5755,15.6681,15.8586,16.0016,16.1392,16.293,16.4213,16.5039,16.5401,16.5366,16.5369,16.5754,16.6864,16.7513,16.7458,16.8309,16.9514,17.0229,17.0654,17.1297,17.2463,17.2569,17.3097,17.2792,17.1906,17.1671,17.2805,17.3186,17.3146,17.278,17.3066,17.2886,17.3197,17.3026,17.2854,17.2948,17.2957,17.3084,17.3647,17.3524,17.372,17.4111,17.457,17.4834,17.4889,17.5461,17.5642,17.579,17.5394,17.5057,15.9979,16.0193,16.0177,16.0407,16.0621,16.0629,16.0613,16.0415,15.7553,0.0,0.0,15.8679,15.9385,16.0701,16.1953,16.2508,16.2579,16.3879,16.4466,16.4466,16.4466,16.4466,16.4466,16.4752,16.4895,16.4895,16.5172,16.5465,16.5679,16.5679,16.5814,16.6099,16.6091,16.6091,16.6099,16.6099,16.6099,16.6036,16.4966,16.4609,16.4823,16.4895,16.5037,16.5243,16.5243,16.5172,16.4823,16.4895,16.4752,16.4387,16.1969,16.0621,16.0479,15.6689,15.4441,15.4232,15.1616,15.0502,15.1823,15.0691,15.0684,15.2189,15.3832,15.3888,15.184,15.3133,15.477,15.6482,15.6912,15.8204,16.0985,16.1303,16.2282,16.4754,16.4643,16.4838,16.583,16.6174,16.603,16.6123,16.6146,16.6302,16.6693,16.7753,16.8446,16.8688,16.9696,17.0329,16.9923,16.9201,16.902,17.0099,17.0182,16.9969,16.9961,16.9986,17.0062,17.0345,17.0403,17.0519,17.0676,17.0685,17.0894,17.1278,17.1317,17.149,17.1778,17.2887,17.3971,17.3998,17.509,17.613,17.5855,17.4569,17.3378,15.7418,15.7418,15.7418,15.7426,0.0,15.7434,15.7434,15.7355,15.5792,15.5648,15.6477,15.6477,15.6934,15.7858,15.8476,15.8756,15.8827,15.9464,16.0201,16.1129,16.1137,16.1494,16.2288,16.3082,16.3415,16.3309,16.403,16.4466,16.4466,16.4466,16.4466,16.4466,16.4466,16.4466,16.4466,16.4466,16.3682,16.2112,16.2112,16.2469,16.3237,16.3245,16.3673,16.4387,16.4466,0.0,0.0,0.0,0.0,0.0,0.0,0.0,0.0,0.0,0.0,14.8577,14.4826,14.2846,14.3203,14.2529,14.2797,14.4512,14.6846,14.6605,14.2627,14.5795,14.8613,15.0521,15.2235,15.3671,15.497,15.6435,15.8174,16.0124,16.0239,16.0668,16.203,16.2857,16.3482,16.4109,16.4736,16.5406,16.5979,16.6629,16.6817,16.6674,16.7257,16.7944,16.8214,16.7581,16.7137,16.7598,16.7426,16.7273,16.7265,16.7265,16.7346,16.7506,16.7673,16.7751,16.7931,16.7999,16.8267,16.8791,16.8902,16.9056,16.9548,17.0938,17.2054,17.23,17.3505,17.4364,17.3207,17.2244,17.1514,15.515,15.515,15.515,15.515,15.5007,15.3847,15.337,15.3378,15.3438,15.3653,15.3869,15.4207,15.4606,15.5149,15.4871,15.4738,15.4795,15.4804,15.5655,15.7019,15.7313,15.8108,15.939,16.0702,16.1119,16.1066,16.2153,16.2755,16.2763,16.2715,16.2825,16.3111,16.3111,16.3245,16.3539,0.0,0.0,0.0,15.9622,16.0407,16.1596,16.166,16.2238,16.3468,16.3253,0.0,16.1232,15.9757,15.8195,15.661,15.5056,0.0,0.0,0.0,0.0,0.0,0.0,0.0,0.0,0.0,0.0,0.0,13.685,13.6164,13.2881,13.6628,14.0526,14.3456,14.6645,14.8556,14.8421,15.1033,15.3283,15.4391,15.4551,15.5332,15.7148,15.8353,15.9852,16.1334,16.252,16.3625,16.4583,16.514,16.5113,16.5147,16.5447,16.5877,16.6401,16.5575,16.5323,16.5702,16.5733,16.5515,16.5712,16.5871,16.606,16.5818,16.6014,16.6257,16.6528,16.6566,16.6819,16.7475,16.7498,16.7775,16.8398,16.947,17.0498,17.044,17.1557,17.205,17.0494,17.0204,17.0085,15.515,15.515,15.515,15.515,15.4674,14.942,14.716,14.7189,14.7508,14.7706,14.7827,14.9356,15.0972,15.2417,15.224,15.2121,15.2165,15.3252,15.3847,15.417,15.554,15.6265,15.6473,15.6688,15.6738,15.6686,15.6631,15.6645,15.6637,15.6392,15.699,15.8322,15.8314,15.9044,16.0273,15.9247,15.8381,15.7752,15.9123,15.9916,16.0043,16.0122,16.0193,16.0328,15.9044,15.8243,15.8029,15.6562,15.5,15.3407,15.1743,14.9635,14.6889,14.1458,13.7158,0.0,12.7678,0.0,0.0,0.0,0.0,0.0,0.0,0.0,0.0,12.7375,13.0975,13.6959,14.0516,14.3002,14.4272,14.6073,14.7745,14.8944,14.9135,15.0247,15.2929,15.3307,15.4381,15.7169,15.7407,15.792,15.9374,16.0669,16.1923,16.2836,16.3782,16.3732,16.2437,16.1662,16.236,16.5024,16.5312,16.4943,16.5968,16.6491,16.6511,16.6987,16.6838,16.7457,16.7404,16.7498,16.7864,16.8363,16.8258,16.8672,16.9403,16.9704,17.0102,17.009,17.0243,17.034,17.0047,16.9849,17.0394,14.9839,14.9839,14.9847,14.8453,14.6172,14.3511,14.2866,14.3804,14.3997,14.4209,14.4296,14.4464,14.4718,14.496,14.5391,14.5582,14.5767,14.7743,14.9393,15.064,15.2015,15.3688,15.5406,15.5419,15.5698,15.64,15.5228,15.4645,15.4623,15.4409,15.4619,15.5335,15.6122,15.6126,15.5328,15.5393,15.5817,15.6365,15.7079,15.7375,15.722,15.7204,15.7204,15.7204,15.6491,15.5769,15.4826,15.3336,15.1398,14.9118,14.6631,14.3583,13.9965,13.4115,12.8867,0.0,0.0,0.0,0.0,0.0,0.0,0.0,0.0,0.0,0.0,0.0,12.2615,12.5433,13.0416,13.4055,13.5507,13.7202,13.8757,14.0153,14.103,14.2428,14.4687,14.6392,14.8282,15.0524,15.2213,15.3712,15.5234,15.7465,15.9063,15.9528,15.8819,15.8168,15.7951,15.7827,15.8307,16.0339,16.0656,16.1083,16.2348,16.2536,16.2574,16.2792,16.3002,16.3211,16.3346,16.3479,16.3767,16.4099,16.4858,16.5584,16.6054,16.7501,16.8871,16.8642,16.7249,16.5889,16.5732,16.5736,16.6066,14.4166,14.3952,14.1804,13.9116,13.6228,13.6335,13.7597,13.9599,13.9655,13.9798,13.9933,13.9058,13.7914,13.6421,13.722,13.756,13.7761,14.1255,14.384,14.5517,14.7984,15.0531,15.2994,15.3342,15.4005,15.4793,15.3357,15.2537,15.2523,15.1803,15.17,15.1987,15.1945,15.0945,14.9204,15.0821,15.2462,15.4073,15.4775,15.5184,15.5194,15.5109,15.515,15.515,15.435,15.32,15.1702,14.9741,14.7152,14.3856,14.0844,13.7109,13.2463,12.6171,0.0,0.0,0.0,0.0,0.0,0.0,0.0,0.0,0.0,9.9982,10.3978,0.0,11.3337,0.0,12.0922,12.5391,12.6885,12.8501,0.0,0.0,13.2253,13.3635,13.5336,13.8052,14.0675,14.2944,14.5965,14.8601,15.0536,15.3436,15.4897,15.3644,15.2363,15.2041,15.322,15.3244,15.369,15.5314,15.5792,15.6312,15.8078,15.8328,15.8481,15.8323,15.8646,15.8782,15.8782,15.9227,15.9791,16.0145,16.139,16.2453,16.2881,16.475,16.6178,16.5298,16.2944,16.0793,16.0763,16.117,16.173,13.9867,13.9124,13.0915,12.7304,12.706,12.755,12.9507,13.2417,13.2706,13.2808,13.284,13.2946,13.1315,12.8427,12.8539,0.0,12.8869,13.4763,13.7531,13.8006,14.3934,14.6796,14.7099,14.8674,14.9458,14.9568,14.8871,14.8556,14.8459,14.6483,14.6282,14.7456,14.2934,14.0911,14.1738,14.4668,14.7415,14.981,15.2602,15.4552,15.5474,15.528,15.515,15.5015,15.2179,14.9888,14.8277,14.5595,14.2088,13.7659,13.4773,13.0609,12.4715,0.0,0.0,0.0,0.0,0.0,0.0,0.0,0.0,0.0,0.0,0.0,0.0,0.0,0.0,10.7898,11.4376,0.0,12.0374,12.2075,0.0,0.0,0.0,12.4233,12.5903,12.7578,13.0327,13.4707,0.0,0.0,14.399,14.722,14.7766,14.3961,14.5789,14.7487,14.764,14.7444,14.8374,15.1379,15.1847,15.2955,15.5523,15.6121,15.6116,15.6107,15.6502,15.633,15.633,15.7485,15.878,15.8792,16.0505,16.1535,16.1907,16.1618,16.1429,15.8394,15.7536,15.7313,15.7292,15.8209,15.9112,12.9719,12.2937,11.8483,11.6559,11.6661,11.8803,12.1074,12.3507,12.4553,12.4577,12.3851,12.3093,12.0963,11.786,11.702,0.0,0.0,0.0,12.9935,13.2151,13.7458,14.1075,14.3096,14.4593,14.5724,14.6469,14.5272,14.4015,14.2925,14.1891,13.8591,13.2904,0.0,13.0983,13.4306,13.7269,14.1082,14.5539,14.8794,15.0835,15.1751,15.1645,15.0927,14.9641,14.7294,14.4916,14.2572,13.9608,13.5571,13.0423,12.6465,12.1233,0.0,0.0,0.0,0.0,0.0,0.0,0.0,0.0,0.0,0.0,0.0,8.3143,8.781,0.0,0.0,0.0,10.3946,10.8705,11.2277,11.3113,0.0,0.0,0.0,0.0,0.0,0.0,0.0,12.5407,12.9433,13.3281,13.6418,13.7154,13.7099,13.641,13.9144,14.156,14.2521,0.0,14.368,14.697,14.742,14.8235,15.0372,15.0744,15.0744,15.0748,15.0744,15.074,15.0814,15.1265,15.1745,15.2184,15.4071,15.5809,15.5892,15.2857,15.0175,14.9958,14.9914,15.0231,15.1306,15.193,15.2712,11.7019,0.0,0.0,0.0,0.0,10.8779,11.1303,11.3599,11.5223,11.5223,11.3852,11.2806,0.0,0.0,0.0,0.0,0.0,0.0,12.0627,12.4126,12.9805,13.3939,13.6869,13.8729,14.0136,14.1032,13.9728,13.8154,13.6306,13.2557,12.6674,11.8884,0.0,0.0,0.0,0.0,13.5172,14.1384,14.5206,14.7651,14.888,14.8959,14.8088,14.626,14.3611,14.0558,13.7219,13.3329,12.856,12.287,11.7445,0.0,0.0,0.0,0.0,0.0,0.0,0.0,0.0,0.0,0.0,0.0,0.0,0.0,0.0,0.0,0.0,0.0,0.0,0.0,10.3274,10.484,10.5662,0.0,0.0,0.0,0.0,0.0,0.0,0.0,0.0,0.0,12.5974,12.6428,12.7547,0.0,0.0,13.599,13.761,13.7833,13.8814,14.167,14.2114,0.0,14.4263,14.4483,14.4486,14.4486,14.4486,14.449,14.4486,14.4486,14.4636,14.5162,14.7541,14.8212,14.5232,14.1159,13.9449,14.0599,14.0966,14.1571,14.3131,14.3944,14.4737,0.0,0.0,0.0,0.0,0.0,0.0,0.0,0.0,10.4354,10.421,0.0,10.2694,0.0,0.0,0.0,0.0,9.8344,10.4677,0.0,0.0,12.0749,12.5395,12.7174,13.0267,13.1733,13.1794,13.1545,13.0486,12.8121,11.6376,0.0,0.0,0.0,0.0,0.0,0.0,12.9979,13.7499,14.2236,14.5748,14.8076,14.819,14.7733,14.6848,14.2148,13.7375,13.2857,12.6941,12.1032,11.499,10.775,0.0,0.0,0.0,0.0,0.0,0.0,0.0,0.0,0.0,0.0,0.0,0.0,0.0,0.0,0.0,0.0,0.0,0.0,0.0,0.0,9.784,0.0,0.0,0.0,0.0,0.0,0.0,0.0,0.0,0.0,0.0,11.1899,11.567,12.0378,12.5085,0.0,0.0,0.0,0.0,13.3826,13.5624,13.5777,13.6375,13.7942,13.8098,13.8091,13.8094,0.0,0.0,13.8098,13.8098,13.8462,14.0198,14.167,13.9586,12.8664,12.7786,12.9082,13.0568,13.087,13.1462,13.3107,13.4549,13.6034,0.0,0.0,0.0,0.0,0.0,0.0,0.0,0.0,0.0,9.285,9.1486,9.1492,0.0,0.0,0.0,0.0,0.0,0.0,0.0,0.0,11.0627,11.4857,11.7534,12.0726,12.2146,0.0,12.0926,11.5756,0.0,0.0,0.0,0.0,0.0,0.0,0.0,0.0,12.497,13.4661,14.0596,14.4802,14.7324,14.7389,14.6968,14.6137,14.2381,13.6178,12.7277,11.9943,11.2859,0.0,0.0,0.0,0.0,0.0,0.0,0.0,0.0,0.0,0.0,0.0,0.0,0.0,0.0,0.0,0.0,0.0,0.0,0.0,0.0,0.0,0.0,0.0,9.4784,0.0,0.0,0.0,0.0,0.0,0.0,0.0,0.0,0.0,10.3121,10.7992,11.3518,11.8445,12.2854,12.667,12.9365,0.0,0.0,0.0,0.0,0.0,0.0,0.0,13.2961,13.2964,13.1241,12.9811,12.9811,12.8911,12.8387,12.8985,0.0,0.0,11.9337,11.8071,11.8968,12.047,12.0772,12.1289,12.3009,12.3801,12.4645,0.0,0.0,0.0,0.0,0.0,0.0,0.0,0.0,0.0,8.2236,8.0871,0.0,0.0,0.0,0.0,0.0,0.0,0.0,0.0,0.0,0.0,0.0,10.6982,10.9658,0.0,0.0,0.0,0.0,0.0,0.0,0.0,0.0,0.0,0.0,0.0,0.0,12.0856,13.1781,13.841,14.3231,14.6558,14.657,14.5948,14.4589,14.1505,13.5236,12.5455,0.0,0.0,0.0,0.0,0.0,0.0,0.0,0.0,0.0,0.0,0.0,0.0,0.0,0.0,0.0,0.0,0.0,0.0,0.0,0.0,0.0,0.0,0.0,0.0,0.0,8.9351,0.0,0.0,0.0,0.0,0.0,0.0,0.0,0.0,0.0,0.0,0.0,10.7096,11.2517,11.7518,12.1842,12.519,12.6979,12.8543,0.0,0.0,0.0,0.0,0.0,0.0,0.0,0.0,0.0,0.0,0.0,0.0,0.0,0.0,11.3193,10.7752,10.6706,10.7228,10.8877,0.0,0.0,0.0,0.0,0.0,0.0,0.0,0.0,0.0,0.0,0.0,0.0,0.0,0.0,0.0,7.1079,0.0,0.0,6.8755,0.0,0.0,0.0,0.0,0.0,0.0,0.0,0.0,0.0,0.0,0.0,0.0,0.0,0.0,0.0,0.0,0.0,0.0,0.0,0.0,0.0,0.0,11.795,12.9199,13.5691,14.1139,14.5609,14.5821,14.4704,14.2402,13.9242,13.4424,12.7467,0.0,0.0,0.0,0.0,0.0,0.0,0.0,0.0,0.0,0.0,0.0,0.0,0.0,0.0,0.0,0.0,0.0,0.0,0.0,0.0,0.0,0.0,0.0,0.0,0.0,0.0,8.5851,8.8988,8.9592,0.0,0.0,0.0,0.0,0.0,0.0,0.0,0.0,0.0,10.7544,11.2606,11.6911,12.0271,12.2037,12.3748,12.5396,12.5623,12.5549,12.5623,12.5471,12.4361,0.0,0.0,0.0,0.0,0.0,0.0,0.0,0.0,0.0,0.0,0.0,0.0,0.0,0.0,0.0,0.0,0.0,0.0,0.0,0.0,0.0,0.0,0.0,0.0,0.0,0.0,0.0,0.0,0.0,0.0,0.0,0.0,0.0,0.0,0.0,0.0,0.0,0.0,0.0,0.0,0.0,0.0,0.0,0.0,0.0,0.0,0.0,0.0,0.0,0.0,0.0,0.0,0.0,0.0,11.7069,12.9512,13.5858,14.14,14.6091,14.6102,14.5056,14.2979,13.8819,13.2885,0.0,0.0,0.0,0.0,0.0,0.0,0.0,0.0,0.0,0.0,0.0,0.0,0.0,0.0,0.0,0.0,0.0,0.0,0.0,0.0,0.0,0.0,0.0,0.0,0.0,0.0,0.0,0.0,8.3017,8.4382,8.4589,0.0,0.0,0.0,0.0,0.0,0.0,0.0,0.0,0.0,0.0,11.2676,11.8277,12.0452,12.1968,12.3596,12.3826,12.3823,12.3823,12.1885,11.9647,11.7551,0.0,0.0,0.0,0.0,0.0,0.0,0.0,0.0,0.0,0.0,0.0,0.0,0.0,0.0,0.0,0.0,0.0,0.0,0.0,0.0,0.0,0.0,0.0,0.0,0.0,0.0,0.0,0.0,0.0,0.0,0.0,0.0,0.0,0.0,0.0,0.0,0.0,0.0,0.0,0.0,0.0,0.0,0.0,0.0,0.0,0.0,0.0,0.0,0.0,0.0,0.0,0.0,0.0,11.5274,12.8774,13.5295,14.1121,14.6322,14.6502,14.5205,14.2663,13.7969,13.097,0.0,0.0,0.0,0.0,0.0,0.0,0.0,0.0,0.0,0.0,0.0,0.0,0.0,0.0,0.0,0.0,0.0,0.0,0.0,0.0,0.0,0.0,0.0,0.0,0.0,0.0,0.0,0.0,7.7569,7.9547,8.1835,0.0,0.0,0.0,0.0,0.0,0.0,0.0,0.0,0.0,0.0,10.8579,11.3833,11.6429,0.0,0.0,12.0234,12.0231,12.0234,11.8523,11.6207,11.3291,10.9253,0.0,0.0,0.0,0.0,0.0,0.0,0.0,0.0,0.0,0.0,0.0,0.0,0.0,0.0,0.0,0.0,0.0,0.0,0.0,0.0,0.0,0.0,0.0,0.0,0.0,0.0,0.0,0.0,0.0,0.0,0.0,0.0,0.0,0.0,0.0,0.0,0.0,0.0,0.0,0.0,0.0,0.0,0.0,0.0,0.0,0.0,0.0,0.0,0.0,0.0,0.0,0.0,11.2934,12.7159,13.4023,14.0575,14.6676,14.6962,14.5182,14.1453,13.6839,12.8936,0.0,0.0,0.0,0.0,0.0,0.0,0.0,0.0,0.0,0.0,0.0,0.0,0.0,0.0,0.0,0.0,0.0,0.0,0.0,0.0,0.0,0.0,0.0,0.0,0.0,0.0,0.0,0.0,0.0,0.0,0.0,0.0,0.0,0.0,0.0,0.0,0.0,0.0,0.0,0.0,0.0,10.4524,10.7868,11.09,11.3377,0.0,11.5169,11.5166,11.5163,11.5088,11.3368,10.859,0.0,0.0,0.0,0.0,0.0,0.0,0.0,0.0,0.0,0.0,0.0,0.0,0.0,0.0,0.0,0.0,0.0,0.0,0.0,0.0,0.0,0.0,0.0,0.0,0.0,0.0,0.0,0.0,0.0,0.0,0.0,0.0,0.0,0.0,0.0,0.0,0.0,0.0,0.0,0.0,0.0,0.0,0.0,0.0,0.0,0.0,0.0,0.0,0.0,0.0,0.0,0.0,0.0,0.0,12.7356,13.414,14.0564,14.6778,14.715,14.4943,14.0315,13.5528,0.0,0.0,0.0,0.0,0.0,0.0,0.0,0.0,0.0,0.0,0.0,0.0,0.0,0.0,0.0,0.0,0.0,0.0,0.0,0.0,0.0,0.0,0.0,0.0,0.0,0.0,0.0,6.4396,0.0,0.0,0.0,0.0,0.0,0.0,0.0,0.0,0.0,0.0,0.0,0.0,0.0,0.0,10.0354,10.6044,10.7444,10.8499,0.0,0.0,11.0257,11.0252,10.9201,10.7108,0.0,0.0,0.0,0.0,0.0,0.0,0.0,0.0,0.0,0.0,0.0,0.0,0.0,0.0,0.0,0.0,0.0,0.0,0.0,0.0,0.0,0.0,0.0,0.0,0.0,0.0,0.0,0.0,0.0,0.0,0.0,0.0,0.0,0.0,0.0,0.0,0.0,0.0,0.0,0.0,0.0,0.0,0.0,0.0,0.0,0.0,0.0,0.0,0.0,0.0,0.0,0.0,0.0,0.0,11.0917,12.5336,13.2894,13.9703,14.5982,14.6944,14.4892,13.9822,13.4449,12.5378,0.0,0.0,0.0,0.0,0.0,0.0,0.0,0.0,0.0,0.0,0.0,0.0,0.0,0.0,0.0,0.0,0.0,0.0,0.0,0.0,0.0,0.0,0.0,0.0,0.0,0.0,0.0,0.0,0.0,0.0,0.0,0.0,0.0,0.0,0.0,0.0,0.0,0.0,0.0,0.0,0.0,0.0,10.1351,10.259,0.0,0.0,0.0,10.5113,10.4369,0.0,0.0,0.0,0.0,0.0,0.0,0.0,0.0,0.0,0.0,0.0,0.0,0.0,0.0,0.0,0.0,0.0,0.0,0.0,0.0,0.0,0.0,0.0,0.0,0.0,0.0,0.0,0.0,0.0,0.0,0.0,0.0,0.0,0.0,0.0,0.0,0.0,0.0,0.0,0.0,0.0,0.0,0.0,0.0,0.0,0.0,0.0,0.0,0.0,0.0,0.0,0.0,0.0,0.0,0.0,0.0,0.0,12.2399,13.1151,13.8571,14.4727,14.6725,14.502,13.9661,13.3498,12.4007,0.0,0.0,0.0,0.0,0.0,0.0,0.0,0.0,0.0,0.0,0.0,0.0,0.0,0.0,0.0,0.0,0.0,0.0,0.0,0.0,0.0,0.0,0.0,0.0,0.0,0.0,0.0,0.0,0.0,0.0,0.0,0.0,0.0,0.0,0.0,0.0,0.0,0.0,0.0,0.0,0.0,9.2411,9.5496,9.7022,9.7912,0.0,0.0,9.9619,9.8181,9.9164,0.0,0.0,0.0,0.0,0.0,0.0,0.0,0.0,0.0,0.0,0.0,0.0,0.0,0.0,0.0,0.0,0.0,0.0,0.0,0.0,0.0,0.0,0.0,0.0,0.0,0.0,0.0,0.0,0.0,0.0,0.0,0.0,0.0,0.0,0.0,0.0,0.0,0.0,0.0,0.0,0.0,0.0,0.0,0.0,0.0,0.0,0.0,0.0,0.0,0.0,0.0,0.0,0.0,0.0,0.0,0.0,12.0927,13.0637,13.8621,14.4867,14.6814,14.4707,13.8326,13.3127,12.3572,0.0,0.0,0.0,0.0,0.0,0.0,0.0,0.0,0.0,0.0,0.0,0.0,0.0,0.0,0.0,0.0,0.0,0.0,0.0,0.0,0.0,0.0,0.0,0.0,0.0,0.0,0.0,0.0,0.0,0.0,0.0,0.0,0.0,0.0,0.0,0.0,0.0,0.0,0.0,0.0,0.0,9.0583,9.2423,9.2981,0.0,0.0,0.0,0.0,9.3028,9.3294,0.0,0.0,0.0,0.0,0.0,0.0,0.0,0.0,0.0,0.0,0.0,0.0,0.0,0.0,0.0,0.0,0.0,0.0,0.0,0.0,0.0,0.0,0.0,0.0,0.0,0.0,0.0,0.0,0.0,0.0,0.0,0.0,0.0,0.0,0.0,0.0,0.0,0.0,0.0,0.0,0.0,0.0,0.0,0.0,0.0,0.0,0.0,0.0,0.0,0.0,0.0,0.0,0.0,0.0,0.0,0.0,11.5775,12.7278,13.6248,14.2676,14.6037,14.4545,13.8036,13.2285,12.2716,0.0,0.0,0.0,0.0,0.0,0.0,0.0,0.0,0.0,0.0,0.0,0.0,0.0,0.0,0.0,0.0,0.0,0.0,0.0,0.0,0.0,0.0,0.0,0.0,0.0,0.0,0.0,0.0,0.0,0.0,0.0,0.0,0.0,0.0,0.0,0.0,0.0,0.0,0.0,0.0,8.261,8.5558,8.791,0.0,0.0,0.0,0.0,0.0,0.0,8.8804,8.8218,0.0,0.0,0.0,0.0,0.0,0.0,0.0,0.0,0.0,0.0,0.0,0.0,0.0,0.0,0.0,0.0,0.0,0.0,0.0,0.0,0.0,0.0,0.0,0.0,0.0,0.0,0.0,0.0,0.0,0.0,0.0,0.0,0.0,0.0,0.0,0.0,0.0,0.0,0.0,0.0,0.0,0.0,0.0,0.0,0.0,0.0,0.0,0.0,0.0,0.0,0.0,0.0,0.0,0.0,0.0,11.031,12.3395,13.3413,14.0215,14.5147,14.4545,13.7965,13.1465,12.1744,10.8286,0.0,0.0,0.0,0.0,0.0,0.0,0.0,0.0,0.0,0.0,0.0,0.0,0.0,0.0,0.0,0.0,0.0,0.0,0.0,0.0,0.0,0.0,0.0,0.0,0.0,0.0,0.0,0.0,0.0,0.0,0.0,0.0,0.0,0.0,0.0,0.0,0.0,0.0,0.0,7.7944,8.0217,0.0,0.0,0.0,0.0,0.0,0.0,0.0,0.0,8.3701,0.0,0.0,0.0,0.0,0.0,0.0,0.0,0.0,0.0,0.0,0.0,0.0,0.0,0.0,0.0,0.0,0.0,0.0,0.0,0.0,0.0,0.0,0.0,0.0,0.0,0.0,0.0,0.0,0.0,0.0,0.0,0.0,0.0,0.0,0.0,0.0,0.0,0.0,0.0,0.0,0.0,0.0,0.0,0.0,0.0,0.0,0.0,0.0,0.0,0.0,0.0,0.0,0.0,0.0,0.0,0.0,12.1747,13.2366,14.0143,14.5143,14.4545,13.7965,13.1537,12.1223,10.6788,0.0,0.0,0.0,0.0,0.0,0.0,0.0,0.0,0.0,0.0,0.0,0.0,0.0,0.0,0.0,0.0,0.0,0.0,0.0,0.0,0.0,0.0,0.0,0.0,0.0,0.0,0.0,0.0,0.0,0.0,0.0,0.0,0.0,0.0,0.0,0.0,0.0,0.0,7.0456,7.4877,0.0,0.0,0.0,0.0,0.0,0.0,0.0,0.0,7.9363,0.0,0.0,0.0,0.0,0.0,0.0,0.0,0.0,0.0,0.0,0.0,0.0,0.0,0.0,0.0,0.0,0.0,0.0,0.0,0.0,0.0,0.0,0.0,0.0,0.0,0.0,0.0,0.0,0.0,0.0,0.0,0.0,0.0,0.0,0.0,0.0,0.0,0.0,0.0,0.0,0.0,0.0,0.0,0.0,0.0,0.0,0.0,0.0,0.0,0.0,0.0,0.0,0.0,0.0,0.0,0.0,0.0,0.0,12.8627,13.7591,14.3424,14.3644,13.789,13.064,11.9345,0.0,0.0,0.0,0.0,0.0,0.0,0.0,0.0,0.0,0.0,0.0,0.0,0.0,0.0,0.0,0.0,0.0,0.0,0.0,0.0,0.0,0.0,0.0,0.0,0.0,0.0,0.0,0.0,0.0,0.0,0.0,0.0,0.0,0.0,0.0,0.0,0.0,0.0,0.0,0.0,0.0,0.0,0.0,0.0,0.0,0.0,0.0,0.0,0.0,0.0,0.0,0.0,0.0,0.0,0.0,0.0,0.0,0.0,0.0,0.0,0.0,0.0,0.0,0.0,0.0,0.0,0.0,0.0,0.0,0.0,0.0,0.0,0.0,0.0,0.0,0.0,0.0,0.0,0.0,0.0,0.0,0.0,0.0,0.0,0.0,0.0,0.0,0.0,0.0,0.0,0.0,0.0,0.0,0.0,0.0,0.0,0.0,0.0,0.0,0.0,0.0,0.0,0.0,0.0,0.0,0.0,0.0,0.0,12.4215,13.4671,14.132,14.2519,13.7893,12.9814,11.7617,0.0,0.0,0.0,0.0,0.0,0.0,0.0,0.0,0.0,0.0,0.0,0.0,0.0,0.0,0.0,0.0,0.0,0.0,0.0,0.0,0.0,0.0,0.0,0.0,0.0,0.0,0.0,0.0,0.0,0.0,0.0,0.0,0.0,0.0,0.0,0.0,0.0,0.0,0.0,0.0,0.0,0.0,0.0,0.0,0.0,0.0,0.0,0.0,7.4249,0.0,0.0,0.0,0.0,0.0,0.0,0.0,0.0,0.0,0.0,0.0,0.0,0.0,0.0,0.0,0.0,0.0,0.0,0.0,0.0,0.0,0.0,0.0,0.0,0.0,0.0,0.0,0.0,0.0,0.0,0.0,0.0,0.0,0.0,0.0,0.0,0.0,0.0,0.0,0.0,0.0,0.0,0.0,0.0,0.0,0.0,0.0,0.0,0.0,0.0,0.0,0.0,0.0,0.0,0.0,0.0,0.0,0.0,0.0,12.0309,13.2945,13.9671,14.1394,13.774,12.9889,11.7179,0.0,0.0,0.0,0.0,0.0,0.0,0.0,0.0,0.0,0.0,0.0,0.0,0.0,0.0,0.0,0.0,0.0,0.0,0.0,0.0,0.0,0.0,0.0,0.0,0.0,0.0,0.0,0.0,0.0,0.0,0.0,0.0,0.0,0.0,0.0,0.0,0.0,0.0,0.0,0.0,0.0,0.0,0.0,0.0,0.0,0.0,0.0,0.0,0.0,0.0,0.0,0.0,0.0,0.0,0.0,0.0,0.0,0.0,0.0,0.0,0.0,0.0,0.0,0.0,0.0,0.0,0.0,0.0,0.0,0.0,0.0,0.0,0.0,0.0,0.0,0.0,0.0,0.0,0.0,0.0,0.0,0.0,0.0,0.0,0.0,0.0,0.0,0.0,0.0,0.0,0.0,0.0,0.0,0.0,0.0,0.0,0.0,0.0,0.0,0.0,0.0,0.0,0.0,0.0,0.0,0.0,0.0,0.0,11.3991,12.6963,13.5565,13.7507,13.2414,12.4329,11.1968,0.0,0.0,0.0,0.0,0.0,0.0,0.0,0.0,0.0,0.0,0.0,0.0,0.0,0.0,0.0,0.0,0.0,0.0,0.0,0.0,0.0,0.0,0.0,0.0,0.0,0.0,0.0,0.0,0.0,0.0,0.0,0.0,0.0,0.0,0.0,0.0,0.0,0.0,0.0,0.0,0.0,0.0,0.0,0.0,0.0,0.0,0.0,0.0,0.0,0.0,0.0,0.0,0.0,0.0,0.0,0.0,0.0,0.0,0.0,0.0,0.0,0.0,0.0,0.0,0.0,0.0,0.0,0.0,0.0,0.0,0.0,0.0,0.0,0.0,0.0,0.0,0.0,0.0,0.0,0.0,0.0,0.0,0.0,0.0,0.0,0.0,0.0,0.0,0.0,0.0,0.0,0.0,0.0,0.0,0.0,0.0,0.0,0.0,0.0,0.0,0.0,0.0,0.0,0.0,0.0,0.0,0.0,0.0,0.0,12.0769,12.8368,12.9681,12.4537,11.734,10.594,0.0,0.0,0.0,0.0,0.0,0.0,0.0,0.0,0.0,0.0,0.0,0.0,0.0,0.0,0.0,0.0,0.0,0.0,0.0,0.0,0.0,0.0,0.0,0.0,0.0,0.0,0.0,0.0,0.0,0.0,0.0,0.0,0.0,0.0,0.0,0.0,0.0,0.0,0.0,0.0,0.0,0.0,0.0,0.0,0.0,0.0,0.0,0.0,0.0,0.0,0.0,0.0,0.0,0.0,0.0,0.0,0.0,0.0,0.0,0.0,0.0,0.0,0.0,0.0,0.0,0.0,0.0,0.0,0.0,0.0,0.0,0.0,0.0,0.0,0.0,0.0,0.0,0.0,0.0,0.0,0.0,0.0,0.0,0.0,0.0,0.0,0.0,0.0,0.0,0.0,0.0,0.0,0.0,0.0,0.0,0.0,0.0,0.0,0.0,0.0,0.0,0.0,0.0,0.0,0.0,0.0,0.0,0.0,0.0,11.6259,11.7103,11.6591,11.4579,10.9538,9.9866,0.0,0.0,0.0,0.0,0.0,0.0,0.0,0.0,0.0,0.0,0.0,0.0,0.0,0.0,0.0,0.0,0.0,0.0,0.0,0.0,0.0,0.0,0.0,0.0,0.0,0.0,0.0,0.0,0.0,0.0,0.0,0.0,0.0,0.0,0.0,0.0,0.0,0.0,0.0,0.0,0.0,0.0,0.0,0.0,0.0,0.0,0.0,0.0,0.0,0.0,0.0,0.0,0.0,0.0,0.0,0.0,0.0,0.0,0.0,0.0,0.0,0.0,0.0,0.0,0.0,0.0,0.0,0.0,0.0,0.0,0.0,0.0,0.0,0.0,0.0,0.0,0.0,0.0,0.0,0.0,0.0,0.0,0.0,0.0,0.0,0.0,0.0,0.0,0.0,0.0,0.0,0.0,0.0,0.0,0.0,0.0,0.0,0.0,0.0,0.0,0.0,0.0,0.0,0.0,0.0,0.0,0.0,0.0,0.0,10.0725,10.5981,10.7894,10.6319,10.0431,9.1778,8.006,0.0,0.0,0.0,0.0,0.0,0.0,0.0,0.0,0.0,0.0,0.0,0.0,0.0,0.0,0.0,0.0,0.0,0.0,0.0,0.0,0.0,0.0,0.0,0.0,0.0,0.0,0.0,0.0,0.0,0.0,0.0,0.0,0.0,0.0,0.0,0.0,0.0,0.0,0.0,0.0,0.0,0.0,0.0,0.0,0.0,0.0,0.0,0.0,0.0,0.0,0.0,0.0,0.0,0.0,0.0,0.0,0.0,0.0,0.0,0.0,0.0,0.0,0.0,0.0,0.0,0.0,0.0,0.0,0.0,0.0,0.0,0.0,0.0,0.0,0.0,0.0,0.0,0.0,0.0,0.0,0.0,0.0,0.0,0.0,0.0,0.0,0.0,0.0,0.0,0.0,0.0,0.0,0.0,0.0,0.0,0.0,0.0,0.0,0.0,0.0,0.0,0.0,0.0,0.0,0.0,0.0,0.0,0.0,8.724,9.4398,9.7567,9.6454,9.0556,8.3397,0.0,0.0,0.0,0.0,0.0,0.0,0.0,0.0,0.0,0.0,0.0,0.0,0.0,0.0,0.0,0.0,0.0,0.0,0.0,0.0,0.0,0.0,0.0,0.0,0.0,0.0,0.0,0.0,0.0,0.0,0.0,0.0,0.0,0.0,0.0,0.0,0.0,0.0,0.0,0.0,0.0,0.0,0.0,0.0,0.0,0.0,0.0,0.0,0.0,0.0,0.0,0.0,0.0,0.0,0.0,0.0,0.0,0.0,0.0,0.0,0.0,0.0,0.0,0.0,0.0,0.0,0.0,0.0,0.0,0.0,0.0,0.0,0.0,0.0,0.0,0.0,0.0,0.0,0.0,0.0,0.0,0.0,0.0,0.0,0.0,0.0,0.0,0.0,0.0,0.0,0.0,0.0,0.0,0.0,0.0,0.0,0.0,0.0,0.0,0.0,0.0,0.0,0.0,0.0,0.0,0.0,0.0,0.0,6.7559,7.7033,8.2373,8.5247,8.4828,8.0208,7.5094,0.0,0.0,0.0,0.0,0.0,0.0,0.0,0.0,0.0,0.0,0.0,0.0,0.0,0.0,0.0,0.0,0.0,0.0,0.0,0.0,0.0,0.0,0.0,0.0,0.0,0.0,0.0,0.0,0.0,0.0,0.0,0.0,0.0,0.0,0.0,0.0,0.0,0.0,0.0,0.0,0.0,0.0,0.0,0.0,0.0,0.0,0.0,0.0,0.0,0.0,0.0,0.0,0.0,0.0,0.0,0.0,0.0,0.0,0.0,0.0,0.0,0.0,0.0,0.0,0.0,0.0,0.0,0.0,0.0,0.0,0.0,0.0,0.0,0.0,0.0,0.0,0.0,0.0,0.0,0.0,0.0,0.0,0.0,0.0,0.0,0.0,0.0,0.0,0.0,0.0,0.0,0.0,0.0,0.0,0.0,0.0,0.0,0.0,0.0,0.0,0.0,0.0,0.0,0.0,0.0,0.0,0.0,0.0,0.0,7.0478,0.0,7.9704,0.0,7.4944,7.1015,0.0,0.0,0.0,0.0,0.0,0.0,0.0,0.0,0.0,0.0,0.0,0.0,0.0,0.0,0.0,0.0,0.0,0.0,0.0,0.0,0.0,0.0,0.0,0.0,0.0,0.0,0.0,0.0,0.0,0.0,0.0,0.0,0.0,0.0,0.0,0.0,0.0,0.0,0.0,0.0,0.0,0.0,0.0,0.0,0.0,0.0,0.0,0.0,0.0,0.0,0.0,0.0,0.0,0.0,0.0,0.0,0.0,0.0,0.0,0.0,0.0,0.0,0.0,0.0,0.0,0.0,0.0,0.0,0.0,0.0,0.0,0.0,0.0,0.0,0.0,0.0,0.0,0.0,0.0,0.0,0.0,0.0,0.0,0.0,0.0,0.0,0.0,0.0,0.0,0.0,0.0,0.0,0.0,0.0,0.0,0.0,0.0,0.0,0.0,0.0,0.0,0.0,0.0,0.0,0.0,0.0,0.0,0.0,0.0,6.5679,7.0372,7.3479,7.4541,7.0449,6.765,0.0,0.0,0.0,0.0,0.0,0.0,0.0,0.0,0.0,0.0,0.0,0.0,0.0,0.0,0.0,0.0,0.0,0.0,0.0,0.0,0.0,0.0,0.0,0.0,0.0,0.0,0.0,0.0,0.0,0.0,0.0,0.0,0.0,0.0,0.0,0.0,0.0,0.0,0.0,0.0,0.0,0.0,0.0,0.0,0.0,0.0,0.0,0.0,0.0,0.0,0.0,0.0,0.0,0.0,0.0,0.0,0.0,0.0,0.0,0.0,0.0,0.0,0.0,0.0,0.0,0.0,0.0,0.0,0.0,0.0,0.0,0.0,0.0,0.0,0.0,0.0,0.0,0.0,0.0,0.0,0.0,0.0,0.0,0.0,0.0,0.0,0.0,0.0,0.0,0.0,0.0,0.0,0.0,0.0,0.0,0.0,0.0,0.0,0.0,0.0,0.0,0.0,0.0,0.0,0.0,0.0,0.0,0.0,0.0,6.2434,6.41,6.6451,6.9638,6.6525,6.4789,0.0,0.0,0.0,0.0,0.0,0.0,0.0,0.0,0.0,0.0,0.0,0.0,0.0,0.0,0.0,0.0,0.0,0.0,0.0,0.0,0.0,0.0,0.0,0.0,0.0,0.0,0.0,0.0,0.0,0.0,0.0,0.0,0.0,0.0,0.0,0.0,0.0,0.0,0.0,0.0,0.0,0.0,0.0,0.0,0.0,0.0,0.0,0.0,0.0,0.0,0.0,0.0,0.0,0.0,0.0,0.0,0.0,0.0,0.0,0.0,0.0,0.0,0.0,0.0,0.0,0.0,0.0,0.0,0.0,0.0,0.0,0.0,0.0,0.0,0.0,0.0,0.0,0.0,0.0,0.0,0.0,0.0,0.0,0.0,0.0,0.0,0.0,0.0,0.0,0.0,0.0,0.0,0.0,0.0,0.0,0.0,0.0,0.0,0.0,0.0,0.0,0.0,0.0,0.0,0.0,0.0,0.0,0.0,0.0,0.0,6.2828,6.4117,6.6087,6.4192,6.3057,6.3136,0.0,0.0,0.0,0.0,0.0,0.0,0.0,0.0,0.0,0.0,0.0,0.0,0.0,0.0,0.0,0.0,0.0,0.0,0.0,0.0,0.0,0.0,0.0,0.0,0.0,0.0,0.0,0.0,0.0,0.0,0.0,0.0,0.0,0.0,0.0,0.0,0.0,0.0,0.0,0.0,0.0,0.0,0.0,0.0,0.0,0.0,0.0,0.0,0.0,0.0,0.0,0.0,0.0,0.0,0.0,0.0,0.0,0.0,0.0,0.0,0.0,0.0,0.0,0.0,0.0,0.0,0.0,0.0,0.0,0.0,0.0,0.0,0.0,0.0,0.0,0.0,0.0,0.0,0.0,0.0,0.0,0.0,0.0,0.0,0.0,0.0,0.0,0.0,0.0,0.0,0.0,0.0,0.0,0.0,0.0,0.0,0.0,0.0,0.0,0.0,0.0,0.0,0.0,0.0,0.0,0.0,0.0,0.0,0.0,0.0,6.2909,6.3894,6.359,6.3137,0.0,0.0,0.0,0.0,0.0,0.0,0.0,0.0,0.0,0.0,0.0,0.0,0.0,0.0,0.0,0.0,0.0,0.0,0.0,0.0,0.0,0.0,0.0,0.0,0.0,0.0,0.0,0.0,0.0,0.0,0.0,0.0,0.0,0.0,0.0,0.0,0.0,0.0,0.0,0.0,0.0,0.0,0.0,0.0,0.0,0.0,0.0,0.0,0.0,0.0,0.0,0.0,0.0,0.0,0.0,0.0,0.0,0.0,0.0,0.0,0.0,0.0,0.0,0.0,0.0,0.0,0.0,0.0,0.0,0.0,0.0,0.0,0.0,0.0,0.0,0.0,0.0,0.0,0.0,0.0,0.0,0.0,0.0,0.0,0.0,0.0,0.0,0.0,0.0,0.0,0.0,0.0,0.0,0.0,0.0,0.0,0.0,0.0,0.0,0.0,0.0,0.0,0.0,0.0,0.0,0.0,0.0,0.0,0.0,0.0,0.0,6.2151,6.2151,6.359,0.0,6.2227,0.0,0.0,0.0,0.0,0.0,0.0,0.0,0.0,0.0,0.0,0.0,0.0,0.0,0.0,0.0,0.0,0.0,0.0,0.0,0.0,0.0,0.0,0.0,0.0,0.0,0.0,0.0,0.0,0.0,0.0,0.0,0.0,0.0,0.0,0.0,0.0,0.0,0.0,0.0,0.0,0.0,0.0,0.0,0.0,0.0,0.0,0.0,0.0,0.0,0.0,0.0,0.0,0.0,0.0,0.0,0.0,0.0,0.0,0.0,0.0,0.0,0.0,0.0,0.0,0.0,0.0,0.0,0.0,0.0,0.0,0.0,0.0,0.0,0.0,0.0,0.0,0.0,0.0,0.0,0.0,0.0,0.0,0.0,0.0,0.0,0.0,0.0,0.0,0.0,0.0,0.0,0.0,0.0,0.0,0.0,0.0,0.0,0.0,0.0,0.0,0.0,0.0,0.0,0.0,0.0,0.0,0.0,0.0,0.0,0.0,0.0,0.0,6.0783,6.0782,6.0479,0.0,0.0,0.0,0.0,0.0,0.0,0.0,0.0,0.0,0.0,0.0,0.0,0.0,0.0,0.0,0.0,0.0,0.0,0.0,0.0,0.0,0.0,0.0,0.0,0.0,0.0,0.0,0.0,0.0,0.0,0.0,0.0,0.0,0.0,0.0,0.0,0.0,0.0,0.0,0.0,0.0,0.0,0.0,0.0,0.0,0.0,0.0,0.0,0.0,0.0,0.0,0.0,0.0,0.0,0.0,0.0,0.0,0.0,0.0,0.0,0.0,0.0,0.0,0.0,0.0,0.0,0.0,0.0,0.0,0.0,0.0,0.0,0.0,0.0,0.0,0.0,0.0,0.0,0.0,0.0,0.0,0.0,0.0,0.0,0.0,0.0,0.0,0.0,0.0,0.0,0.0,0.0,0.0,0.0,0.0,0.0,0.0,0.0,0.0,0.0,0.0,0.0,0.0,0.0,0.0,0.0,0.0,0.0,0.0,0.0,5.9872,5.9872,5.9872,5.9872,5.9872,0.0,0.0,0.0,0.0,0.0,0.0,0.0,0.0,0.0,0.0,0.0,0.0,0.0,0.0,0.0,0.0,0.0,0.0,0.0,0.0,0.0,0.0,0.0,0.0,0.0,0.0,0.0,0.0,0.0,0.0,0.0,0.0,0.0,0.0,0.0,0.0,0.0,0.0,0.0,0.0,0.0,0.0,0.0,0.0,0.0,0.0,0.0,0.0,0.0,0.0,0.0,0.0,0.0,0.0,0.0,0.0,0.0,0.0,0.0,0.0,0.0,0.0,0.0,0.0,0.0,0.0,0.0,0.0,0.0,0.0,0.0,0.0,0.0,0.0,0.0,0.0,0.0,0.0,0.0,0.0,0.0,0.0,0.0,0.0,0.0,0.0,0.0,0.0,0.0,0.0,0.0,0.0,0.0,0.0,0.0,0.0,0.0,0.0,0.0,0.0,0.0,0.0,0.0,0.0,0.0,0.0,0.0,0.0,0.0,0.0,0.0,0.0,0.0,0.0,5.9569,0.0,0.0,0.0,0.0,0.0,0.0,0.0,0.0,0.0,0.0,0.0,0.0,0.0,0.0,0.0,0.0,0.0,0.0,0.0,0.0,0.0,0.0,0.0,0.0,0.0,0.0,0.0,0.0,0.0,0.0,0.0,0.0,0.0,0.0,0.0,0.0,0.0,0.0,0.0,0.0,0.0,0.0,0.0,0.0,0.0,0.0,0.0,0.0,0.0,0.0,0.0,0.0,0.0,0.0,0.0,0.0,0.0,0.0,0.0,0.0,0.0,0.0,0.0,0.0,0.0,0.0,0.0,0.0,0.0,0.0,0.0,0.0,0.0,0.0,0.0,0.0,0.0,0.0,0.0,0.0,0.0,0.0,0.0,0.0,0.0,0.0,0.0,0.0,0.0,0.0,0.0,0.0,0.0,0.0,0.0,0.0,0.0,0.0,0.0,0.0,0.0,0.0,0.0,0.0,0.0,0.0,0.0,0.0,0.0,0.0,0.0,0.0,0.0,0.0,0.0,0.0,0.0,0.0,0.0,0.0,0.0,0.0,0.0,0.0,0.0,0.0,0.0,0.0,0.0,0.0,0.0,0.0,0.0,0.0,0.0,0.0,0.0,0.0,0.0,0.0,0.0,0.0,0.0,0.0,0.0,0.0,0.0,0.0,0.0,0.0,0.0,0.0,0.0,0.0,0.0,0.0,0.0,0.0,0.0,0.0,0.0,0.0,0.0,0.0,0.0,0.0,0.0,0.0,0.0,0.0,0.0,0.0,0.0,0.0,0.0,0.0,0.0,0.0,0.0,0.0,0.0,0.0,0.0,0.0,0.0,0.0,0.0,0.0,0.0,0.0,0.0,0.0,0.0,0.0,0.0,0.0,0.0,0.0,0.0,0.0,0.0,0.0,0.0,0.0,0.0,0.0,0.0,0.0,0.0,0.0,0.0,0.0,0.0,0.0,0.0,0.0,0.0,0.0,0.0,0.0,0.0,0.0,0.0,0.0,0.0,0.0,0.0,0.0,0.0,0.0,0.0,0.0,0.0,0.0,0.0,0.0,0.0,0.0,0.0,0.0,0.0,0.0,0.0,0.0,0.0,0.0,0.0,0.0,0.0,0.0,0.0,0.0,0.0,0.0,0.0,0.0,0.0,0.0,0.0,0.0,0.0,0.0,0.0,0.0,0.0,0.0,0.0,0.0,0.0,0.0,0.0,0.0,0.0,0.0,0.0,0.0,0.0,0.0,0.0,0.0,0.0,0.0,0.0,0.0,0.0,0.0,0.0,0.0,0.0,0.0,0.0,0.0,0.0,0.0,0.0,0.0,0.0,0.0,0.0,0.0,0.0,0.0,0.0,0.0,0.0,0.0,0.0,0.0,0.0,0.0,0.0,0.0,0.0,0.0,0.0,0.0,0.0,0.0,0.0,0.0,0.0,0.0,0.0,0.0,0.0,0.0,0.0,0.0,0.0,0.0,0.0,0.0,0.0,0.0,0.0,0.0,0.0,0.0,0.0,0.0,0.0,0.0,0.0,0.0,0.0,0.0,0.0,0.0,0.0,0.0,0.0,0.0,0.0,0.0,0.0,0.0,0.0,0.0,0.0,0.0,0.0,0.0,0.0,0.0,0.0,0.0,0.0,0.0,0.0,0.0,0.0,0.0,0.0,0.0,0.0,0.0,0.0,0.0,0.0,0.0,0.0,0.0,0.0,0.0,0.0,0.0,0.0,0.0,0.0,0.0,0.0,0.0,0.0,0.0,0.0,0.0,0.0,0.0,0.0,0.0,0.0,0.0,0.0,0.0,0.0,0.0,0.0,0.0,0.0,0.0,0.0,0.0,0.0,0.0,0.0,0.0,0.0,0.0,0.0,0.0,0.0,0.0,0.0,0.0,0.0,0.0,0.0,0.0,0.0,0.0,0.0,0.0,0.0,0.0,0.0,0.0,0.0,0.0,0.0,0.0,0.0,0.0,0.0,0.0,0.0,0.0,0.0,0.0,0.0,0.0,0.0,0.0,0.0,0.0,0.0,0.0,0.0,0.0,0.0,0.0,0.0,0.0,0.0,0.0,0.0,0.0,0.0,0.0,0.0,0.0,0.0,0.0,0.0,0.0,0.0,0.0,0.0,0.0,0.0,0.0,0.0,0.0,0.0,0.0,0.0,0.0,0.0,0.0,0.0,0.0,0.0,0.0,0.0,0.0,0.0,0.0,0.0,0.0,0.0,0.0,0.0,0.0,0.0,0.0,0.0,0.0,0.0,0.0,0.0,0.0,0.0,0.0,0.0,0.0,0.0,0.0,0.0,0.0,0.0,0.0,0.0,0.0,0.0,0.0,0.0,0.0,0.0,0.0,0.0,0.0,0.0,0.0,0.0,0.0,0.0,0.0,0.0,0.0,0.0,0.0,0.0,0.0,0.0,0.0,0.0,0.0,0.0,0.0,0.0,0.0,0.0,0.0,0.0,0.0,0.0,0.0,0.0,0.0,0.0,0.0,0.0,0.0,0.0,0.0,0.0,0.0,0.0,0.0,0.0,0.0,0.0,0.0,0.0,0.0,0.0,0.0,0.0,0.0,0.0,0.0,0.0,0.0,0.0,0.0,0.0,0.0,0.0,0.0,0.0,0.0,0.0,0.0,0.0,0.0,0.0,0.0,0.0,0.0,0.0,0.0,0.0,0.0,0.0,0.0,0.0,0.0,0.0,0.0,0.0,0.0,0.0,0.0,0.0,0.0,0.0,0.0,0.0,0.0,0.0,0.0,0.0,0.0,0.0,0.0,0.0,0.0,0.0,0.0,0.0,0.0,0.0,0.0,0.0,0.0,0.0,0.0,0.0,0.0,0.0,0.0,0.0,0.0,0.0,0.0,0.0,0.0,0.0,0.0,0.0,0.0,0.0,0.0,0.0,0.0,0.0,0.0,0.0,0.0,0.0,0.0,0.0,0.0,0.0,0.0,0.0,0.0,0.0,0.0,0.0,0.0,0.0,0.0,0.0,0.0,0.0,0.0,0.0,0.0,0.0,0.0,0.0,0.0,0.0,0.0,0.0,0.0,0.0,0.0,0.0,0.0,0.0,0.0,0.0,0.0,0.0,0.0,0.0,0.0,0.0,0.0,0.0,0.0,0.0,0.0,0.0,0.0,0.0,0.0,0.0,0.0,0.0,0.0,0.0,0.0,0.0,0.0,0.0,0.0,0.0,0.0,0.0,0.0,0.0,0.0,0.0,0.0,0.0,0.0,0.0,0.0,0.0,0.0,0.0,0.0,0.0,0.0,0.0,0.0,0.0,0.0,0.0,0.0,0.0,0.0,0.0,0.0,0.0,0.0,0.0,0.0,0.0,0.0,0.0,0.0,0.0,0.0,0.0,0.0,0.0,0.0,0.0,0.0,0.0,0.0,0.0,0.0,0.0,0.0,0.0,0.0,0.0,0.0,0.0,0.0,0.0,0.0,0.0,0.0,0.0,0.0,0.0,0.0,0.0,0.0,0.0,0.0,0.0,0.0,0.0,0.0,0.0,0.0,0.0,0.0,0.0,0.0,0.0,0.0,0.0,0.0,0.0,0.0,0.0,0.0,0.0,0.0,0.0,0.0,0.0,0.0,0.0,0.0,0.0,0.0,0.0,0.0,0.0,0.0,0.0,0.0,0.0,0.0,0.0,0.0,0.0,0.0,0.0,0.0,0.0,0.0,0.0,0.0,0.0,0.0,0.0,0.0,0.0,0.0,0.0,0.0,0.0,0.0,0.0,0.0,0.0,0.0,0.0,0.0,0.0,0.0,0.0,0.0,0.0,0.0,0.0,0.0,0.0,0.0,0.0,0.0,0.0,0.0,0.0,0.0,0.0,0.0,0.0,0.0,0.0,0.0,0.0,0.0,0.0,0.0,0.0,0.0,0.0,0.0,0.0,0.0,0.0,0.0,0.0,0.0,0.0,0.0,0.0,0.0,0.0,0.0,0.0,0.0,0.0,0.0,0.0,0.0,0.0,0.0,0.0,0.0,0.0,0.0,0.0,0.0,0.0,0.0,0.0,0.0,0.0,0.0,0.0,0.0,0.0,0.0,0.0,0.0,0.0,0.0,0.0,0.0,0.0,0.0,0.0,0.0,0.0,0.0,0.0,0.0,0.0,0.0,0.0,0.0,0.0,0.0,0.0,0.0,0.0,0.0,0.0,0.0,0.0,0.0,0.0,0.0,0.0,0.0,0.0,0.0,0.0,0.0,0.0,0.0,0.0,0.0,0.0,0.0,0.0,0.0,0.0,0.0,0.0,0.0,0.0,0.0,0.0,0.0,0.0,0.0,0.0,0.0,0.0,0.0,0.0,0.0,0.0,0.0,0.0,0.0,0.0,0.0,0.0,0.0,0.0,0.0,0.0,0.0,0.0,0.0]}],[{"header":{"parameterUnit":"kt","parameterCategory":2,"dx":1,"dy":1,"la1":29.587661999999998,"la2":31.0,"lo1":-88.76705300000003,"lo2":-86.6583820000003,"nx":115,"ny":88,"refTime":"2022-10-16T18:00:00:Z","depth":0,"parameterNumber":2,"parameterNumberName":"V-component_of_WINDS"},"data":[8.353,8.6168,9.0579,9.3919,9.635,9.8328,9.9967,10.126,10.2286,10.2786,10.2886,10.3571,10.3671,10.2836,10.4044,10.4591,10.4467,10.4889,10.4889,10.4939,10.4939,10.4939,10.4939,10.4939,10.4939,10.479,10.4566,10.4218,10.3584,10.1861,9.9575,9.6614,9.3202,8.9442,8.5411,8.3136,8.0979,7.9102,7.7853,7.684,7.6174,7.4544,7.2775,7.2157,7.1726,7.1726,7.1726,7.1726,7.1726,7.1726,7.1726,7.1726,7.1726,7.1726,7.1726,7.1726,7.1726,7.1726,7.1726,7.1726,7.1726,7.1726,7.1726,7.1726,7.1726,7.1726,7.1726,7.1726,7.1726,7.1726,7.1726,7.1726,7.1726,7.1726,7.1726,7.1726,7.1726,7.1726,7.1726,7.1726,7.1726,7.1726,7.1726,7.1726,7.1726,7.1726,7.1726,7.1726,7.1726,7.1726,7.1726,7.1726,7.1726,7.1726,7.1726,7.1726,7.1726,7.1726,7.1726,7.1726,7.1726,7.1726,7.1726,7.1726,7.1726,7.1726,7.1726,7.1726,7.1726,7.1726,7.1726,7.1726,7.1726,7.1726,7.1726,8.1691,8.1794,8.609,9.0295,9.3953,9.5383,9.6975,9.8858,10.0017,10.047,10.0219,10.047,10.0671,10.1248,10.2511,10.321,10.3832,10.4417,10.4864,10.4939,10.4939,10.4939,10.4939,10.4939,10.4939,10.474,10.4293,10.3808,10.2935,10.0406,9.7908,9.5332,9.1977,8.8411,8.4919,8.2505,8.0767,7.8783,7.7346,7.6414,7.4919,7.3231,7.2291,7.1861,7.1726,7.1726,7.1726,7.1726,7.1726,7.1726,7.1726,7.1726,7.1726,7.1726,7.1726,7.1726,7.1726,7.1726,7.1726,7.1726,7.1726,7.1726,7.1726,7.1726,7.1726,7.1726,7.1726,7.1726,7.1726,7.1726,7.1726,7.1726,7.1726,7.1726,7.1726,7.1726,7.1726,7.1726,7.1726,7.1726,7.1726,7.1726,7.1726,7.1726,7.1726,7.1726,7.1726,7.1726,7.1726,7.1726,7.1726,7.1726,7.1726,7.1726,7.1726,7.1726,7.1726,7.1726,7.1726,7.1726,7.1726,7.1726,7.1726,7.1726,7.1726,7.1726,7.1726,7.1726,7.1726,7.1726,7.1726,7.1726,7.1726,7.1726,7.1726,8.0212,8.0767,8.4474,8.7684,9.0062,9.1848,9.344,9.5017,9.6671,9.6426,9.5051,9.6579,9.7746,9.8606,10.057,10.1961,10.3459,10.3945,10.4392,10.4814,10.4939,10.4939,10.4939,10.4939,10.4939,10.4889,10.4343,10.2985,10.1198,9.8717,9.5901,9.3235,9.014,8.6955,8.4185,8.1846,7.9895,7.7853,7.6547,7.54,7.4116,7.2855,7.1834,7.1726,7.1726,7.1726,7.1726,7.1726,7.1726,7.1726,7.1726,7.1726,7.1726,7.1726,7.1726,7.1726,7.1726,7.1726,7.1726,7.1726,7.1726,7.1726,7.1726,7.1726,7.1726,7.1726,7.1726,7.1726,7.1726,7.1726,7.1726,7.1726,7.1726,7.1726,7.1726,7.1726,7.1726,7.1726,7.1726,7.1726,7.1726,7.1726,7.1726,7.1726,7.1726,7.1726,7.1726,7.1726,7.1726,7.1726,7.1726,7.1726,7.1726,7.1726,7.1726,7.1726,7.1726,7.1726,7.1726,7.1726,7.1726,7.1726,7.1726,7.1726,7.1726,7.1726,7.1726,7.1726,7.1726,7.1726,7.1726,7.1726,7.1726,7.1726,7.1726,7.9181,8.0159,8.2929,8.5002,8.646,8.81,8.9526,9.0888,9.2149,9.1179,9.0076,9.226,9.4251,9.5816,9.8151,10.0194,10.2036,10.2811,10.3783,10.4293,10.4889,10.4939,10.4939,10.4939,10.4939,10.4889,10.4243,10.2935,10.0219,9.6985,9.3901,9.074,8.8359,8.539,8.2636,8.1427,7.9365,7.7321,7.5987,7.4758,7.3311,7.221,7.1726,7.1726,7.1726,7.1726,7.1726,7.1726,7.1726,7.1726,7.1726,7.1726,7.1726,7.1726,7.1726,7.1726,7.1726,7.1726,7.1726,7.1726,7.1726,7.1726,7.1726,7.1726,7.1726,7.1726,7.1726,7.1726,7.1726,7.1726,7.1726,7.1726,7.1726,7.1726,7.1726,7.1726,7.1726,7.1726,7.1726,7.1726,7.1726,7.1726,7.1726,7.1726,7.1726,7.1726,7.1726,7.1726,7.1726,7.1726,7.1726,7.1726,7.1726,7.1726,7.1726,7.1726,7.1726,7.1726,7.1726,7.1726,7.1726,7.1726,7.1726,7.1726,7.1726,7.1726,7.1726,7.1726,7.1726,7.1726,7.1726,7.1726,7.1726,7.1726,7.1726,7.8783,7.8996,8.0159,8.2057,8.3923,8.4343,8.5599,8.7169,8.5808,8.5102,8.6256,8.8223,9.0424,9.2645,9.5306,9.7416,9.9626,10.1686,10.2786,10.3559,10.4367,10.4864,10.4864,10.4939,10.4939,10.4616,10.387,10.2536,9.9363,9.5093,9.0998,8.7522,8.5891,8.3927,8.1454,8.0344,7.8994,7.708,7.5747,7.4383,7.2748,7.1915,7.1726,7.1726,7.1726,7.1726,7.1726,7.1726,7.1726,7.1726,7.1726,7.1726,7.1726,7.1726,7.1726,7.1726,7.1726,7.1726,7.1726,7.1726,7.1726,7.1726,7.1726,7.1726,7.1726,7.1726,7.1726,7.1726,7.1726,7.1726,7.1726,7.1726,7.1726,7.1726,7.1726,7.1726,7.1726,7.1726,7.1726,7.1726,7.1726,7.1726,7.1726,7.1726,7.1726,7.1726,7.1726,7.1726,7.1726,7.1726,7.1726,7.1726,7.1726,7.1726,7.1726,7.1726,7.1726,7.1726,7.1726,7.1726,7.1726,7.1726,7.1726,7.1726,7.1726,7.1726,7.1726,7.1726,7.1726,7.1726,7.1726,7.1726,7.1726,7.1726,7.1726,7.8704,7.8759,7.9181,8.0212,8.1665,8.2399,8.2692,8.2745,8.206,8.2324,8.3481,8.5023,8.6898,8.926,9.1841,9.4583,9.7264,9.9564,10.1635,10.2536,10.382,10.4243,10.4765,10.4939,10.4864,10.4591,10.3746,10.2136,9.8873,9.3867,8.8723,8.5938,8.3245,8.1665,8.0503,7.9606,7.8491,7.708,7.5747,7.4383,7.3177,7.2157,7.1861,7.1726,7.1726,7.1726,7.1726,7.1726,7.1726,7.1726,7.1726,7.1726,7.1726,7.1726,7.1726,7.1726,7.1726,7.1726,7.1726,7.1726,7.1726,7.1726,7.1726,7.1726,7.1726,7.1726,7.1726,7.1726,7.1726,7.1726,7.1726,7.1726,7.1726,7.1726,7.1726,7.1726,7.1726,7.1726,7.1726,7.1726,7.1726,7.1726,7.1726,7.1726,7.1726,7.1726,7.1726,7.1726,7.1726,7.1726,7.1726,7.1726,7.1726,7.1726,7.1726,7.1726,7.1726,7.1726,7.1726,7.1726,7.1726,7.1726,7.1726,7.1726,7.1726,7.1726,7.1726,7.1726,7.1726,7.1726,7.1726,7.1726,7.1726,7.1726,7.1726,7.8561,7.8704,7.8704,7.9155,7.9923,8.0688,8.0609,7.9895,7.987,8.045,8.1586,8.2426,8.4133,8.622,8.8457,9.1584,9.4353,9.696,9.9399,10.1059,10.2036,10.3073,10.377,10.4218,10.4492,10.4119,10.3272,10.1635,9.8494,9.345,8.8587,8.4683,8.2008,8.0609,7.9711,7.9075,7.7827,7.6574,7.5667,7.425,7.2936,7.2076,7.1888,7.1726,7.1726,7.1726,7.1726,7.1726,7.1726,7.1726,7.1726,7.1726,7.1726,7.1726,7.1726,7.1726,7.1726,7.1726,7.1726,7.1726,7.1726,7.1726,7.1726,7.1726,7.1726,7.1726,7.1726,7.1726,7.1726,7.1726,7.1726,7.1726,7.1726,7.1726,7.1726,7.1726,7.1726,7.1726,7.1726,7.1726,7.1726,7.1726,7.1726,7.1726,7.1726,7.1726,7.1726,7.1726,7.1726,7.1726,7.1726,7.1726,7.1726,7.1726,7.1726,7.1726,7.1726,7.1726,7.1726,7.1726,7.1726,7.1726,7.1726,7.1726,7.1726,7.1726,7.1726,7.1726,7.1726,7.1726,7.1726,7.1726,7.1726,7.1726,7.1726,7.8163,7.8675,7.8704,7.8759,7.8785,7.9024,7.8943,7.881,7.881,7.942,8.0318,8.0477,8.1823,8.4002,8.609,8.8509,9.0965,9.3842,9.6376,9.8414,9.9589,10.0984,10.1911,10.2873,10.3222,10.3048,10.2273,10.0707,9.8292,9.3432,8.8036,8.3657,8.1164,7.9842,7.9208,7.8624,7.7694,7.6361,7.5372,7.425,7.2828,7.1942,7.1753,7.1726,7.1726,7.1726,7.1726,7.1726,7.1726,7.1726,7.1726,7.1726,7.1726,7.1726,7.1726,7.1726,7.1726,7.1726,7.1726,7.1726,7.1726,7.1726,7.1726,7.1726,7.1726,7.1726,7.1726,7.1726,7.1726,7.1726,7.1726,7.1726,7.1726,7.1726,7.1726,7.1726,7.1726,7.1726,7.1726,7.1726,7.1726,7.1726,7.1726,7.1726,7.1726,7.1726,7.1726,7.1726,7.1726,7.1726,7.1726,7.1726,7.1726,7.1726,7.1726,7.1726,7.1726,7.1726,7.1726,7.1726,7.1726,7.1726,7.1726,7.1726,7.1726,7.1726,7.1726,7.1726,7.1726,7.1726,7.1726,7.1726,7.1726,7.1726,7.1726,7.7881,7.8137,7.8533,7.8704,7.8704,7.8704,7.8704,7.8704,7.8759,7.8918,7.9234,7.9314,8.0188,8.1612,8.3267,8.5202,8.8249,9.032,9.2432,9.6172,9.6772,9.8353,9.9917,10.1072,10.151,10.1973,10.1134,9.9651,9.7492,9.3791,8.9099,8.4365,8.0979,7.955,7.8861,7.8518,7.78,7.6494,7.5185,7.4249,7.3043,7.2157,7.1726,7.1726,7.1726,7.1726,7.1726,7.1726,7.1726,7.1726,7.1726,7.1726,7.1726,7.1726,7.1726,7.1726,7.1726,7.1726,7.1726,7.1726,7.1726,7.1726,7.1726,7.1726,7.1726,7.1726,7.1726,7.1726,7.1726,7.1726,7.1726,7.1726,7.1726,7.1726,7.1726,7.1726,7.1726,7.1726,7.1726,7.1726,7.1726,7.1726,7.1726,7.1726,7.1726,7.1726,7.1726,7.1726,7.1726,7.1726,7.1726,7.1726,7.1726,7.1726,7.1726,7.1726,7.1726,7.1726,7.1726,7.1726,7.1726,7.1726,7.1726,7.1726,7.1726,7.1726,7.1726,7.1726,7.1726,7.1726,7.1726,7.1726,7.1726,7.1726,7.1726,7.7568,7.785,7.8448,7.8491,7.8172,7.8546,7.8491,7.8252,7.8518,7.8704,7.8704,7.8704,7.9181,7.9868,8.1187,8.2899,8.5359,8.6767,8.9105,9.2766,9.344,9.5485,9.7188,9.8176,9.9222,10.0003,9.96,9.811,9.6766,9.3081,8.9183,8.562,8.1952,7.9543,7.8582,7.8089,7.7587,7.6414,7.5239,7.4089,7.2936,7.2157,7.1726,7.1726,7.1726,7.1726,7.1726,7.1726,7.1726,7.1726,7.1726,7.1726,7.1726,7.1726,7.1726,7.1726,7.1726,7.1726,7.1726,7.1726,7.1726,7.1726,7.1726,7.1726,7.1726,7.1726,7.1726,7.1726,7.1726,7.1726,7.1726,7.1726,7.1726,7.1726,7.1726,7.1726,7.1726,7.1726,7.1726,7.1726,7.1726,7.1726,7.1726,7.1726,7.1726,7.1726,7.1726,7.1726,7.1726,7.1726,7.1726,7.1726,7.1726,7.1726,7.1726,7.1726,7.1726,7.1726,7.1726,7.1726,7.1726,7.1726,7.1726,7.1726,7.1726,7.1726,7.1726,7.1726,7.1726,7.1726,7.1726,7.1726,7.1726,7.1726,7.1726,7.7115,7.7769,7.8419,7.801,7.7156,7.8172,7.7906,7.7135,7.8013,7.8599,7.8704,7.8704,7.8838,7.9049,7.9842,8.1137,8.2741,8.4347,8.6434,8.8457,8.9655,9.1488,9.3235,9.4685,9.573,9.7578,9.7198,9.6376,9.6131,9.2024,8.8536,8.5105,8.212,7.99,7.7876,7.7223,7.6331,7.5184,7.4089,7.2991,7.2106,7.1809,7.17,7.1726,7.1726,7.1726,7.1726,7.1726,7.1726,7.1726,7.1726,7.1726,7.1726,7.1726,7.1726,7.1726,7.1726,7.1726,7.1726,7.1726,7.1726,7.1726,7.1726,7.1726,7.1726,7.1726,7.1726,7.1726,7.1726,7.1726,7.1726,7.1726,7.1726,7.1726,7.1726,7.1726,7.1726,7.1726,7.1726,7.1726,7.1726,7.1726,7.1726,7.1726,7.1726,7.1726,7.1726,7.1726,7.1726,7.1726,7.1726,7.1726,7.1726,7.1726,7.1726,7.1726,7.1726,7.1726,7.1726,7.1726,7.1726,7.1726,7.1726,7.1726,7.1726,7.1726,7.1726,7.1726,7.1726,7.1726,7.1726,7.1726,7.1726,7.1726,7.1726,7.6464,7.7115,7.7767,7.7364,7.6336,7.6274,7.6067,7.5987,7.6974,7.7933,7.8704,7.8704,7.8704,7.8785,7.9155,7.9844,8.082,8.177,8.3372,8.4709,8.6043,8.7496,8.9312,9.0778,9.1892,9.3381,9.3458,9.3022,9.2416,8.9753,8.6567,8.3561,8.0985,7.8982,7.7087,7.6106,7.4775,7.3439,7.2701,7.2355,7.1421,7.1468,7.1649,7.1675,7.1649,7.1675,7.1649,7.17,7.17,7.1726,7.1726,7.1726,7.1726,7.1726,7.1726,7.1726,7.1726,7.1726,7.1726,7.1726,7.1726,7.1726,7.1726,7.1726,7.1726,7.1726,7.1726,7.1726,7.1726,7.1726,7.1726,7.1726,7.1726,7.1726,7.1726,7.1726,7.1726,7.1726,7.1726,7.1726,7.1726,7.1726,7.1726,7.1726,7.1726,7.1726,7.1726,7.1726,7.1726,7.1726,7.1726,7.1726,7.1726,7.1726,7.1726,7.1726,7.1726,7.1726,7.1726,7.1726,7.1726,7.1726,7.1726,7.1726,7.1726,7.1726,7.1726,7.1726,7.1726,7.1726,7.1726,7.1726,7.1726,7.1726,7.1726,7.6037,7.6407,7.6831,7.6255,7.5039,7.5134,7.4854,7.454,7.5497,7.6565,7.732,7.788,7.8279,7.8652,7.8757,7.9102,7.9659,8.0027,8.119,8.2192,8.3083,8.4552,8.575,8.7106,8.7854,8.9532,8.9266,8.866,8.837,8.6317,8.3737,8.1387,7.9208,7.7386,7.6288,7.5342,7.4021,7.264,7.1749,7.1432,7.0769,7.0975,7.1131,7.1184,7.1261,7.1416,7.1442,7.1597,7.17,7.1726,7.1726,7.1726,7.1726,7.1726,7.1726,7.1726,7.1726,7.1726,7.1726,7.1726,7.1726,7.1726,7.1726,7.1726,7.1726,7.1726,7.1726,7.1726,7.1726,7.1726,7.1726,7.1726,7.1726,7.1726,7.1726,7.1726,7.1726,7.1726,7.1726,7.1726,7.1726,7.1726,7.1726,7.1726,7.1726,7.1726,7.1726,7.1726,7.1726,7.1726,7.1726,7.1726,7.1726,7.1726,7.1726,7.1726,7.1726,7.1726,7.1726,7.1726,7.1726,7.1726,7.1726,7.1726,7.1726,7.1726,7.1726,7.1726,7.1726,7.1726,7.1726,7.1726,7.1726,7.1726,7.1726,7.5673,7.5548,7.5477,7.4581,7.3389,7.4406,7.3929,7.2675,7.3759,7.4559,7.5098,7.625,7.7395,7.8305,7.8599,7.8759,7.8812,7.9709,8.0159,8.0609,8.1269,8.2429,8.3207,8.3906,8.4552,8.6049,8.5331,8.5076,8.4684,8.2327,7.9491,7.7468,7.6545,7.5625,7.471,7.3982,7.2933,7.179,7.0723,7.0199,7.0146,7.0249,7.0301,7.0405,7.0665,7.0898,7.0924,7.1235,7.1469,7.1598,7.1572,7.1572,7.17,7.1726,7.1726,7.1726,7.1726,7.1726,7.1726,7.1726,7.1726,7.1726,7.1726,7.1726,7.1726,7.1726,7.1726,7.1726,7.1726,7.1726,7.1726,7.1726,7.1726,7.1726,7.1726,7.1726,7.1726,7.1726,7.1726,7.1726,7.1726,7.1726,7.1726,7.1726,7.1726,7.1726,7.1726,7.1726,7.1726,7.1726,7.1726,7.1726,7.1726,7.1726,7.1726,7.1726,7.1726,7.1726,7.1726,7.1726,7.1726,7.1726,7.1726,7.1726,7.1726,7.1726,7.1726,7.1726,7.1726,7.1726,7.1726,7.1726,7.1726,7.1726,7.1726,7.4185,7.2736,7.2331,7.1957,7.1601,7.1455,7.1222,7.0959,7.1984,7.2484,7.3014,7.4369,7.5946,7.7262,7.8114,7.8457,7.8622,7.8969,7.9102,7.9155,7.9553,8.0262,8.0826,8.0842,8.1371,8.251,8.1408,8.1181,8.0,7.7386,7.4642,7.3242,7.3786,7.3042,7.2355,7.1932,7.1427,7.0474,6.9781,6.947,6.9522,6.9886,7.0068,7.0172,7.0302,7.038,7.0405,7.0587,7.0873,7.1027,7.1157,7.1339,7.1624,7.1649,7.1649,7.1726,7.1675,7.1649,7.17,7.1726,7.1726,7.1726,7.1726,7.1726,7.1726,7.1726,7.1726,7.1726,7.1726,7.1726,7.1726,7.1726,7.1726,7.1726,7.1726,7.1726,7.1726,7.1726,7.1726,7.1726,7.1726,7.1726,7.1726,7.1726,7.1726,7.1726,7.1726,7.1726,7.1726,7.1726,7.1726,7.1726,7.1726,7.1726,7.1726,7.1726,7.1726,7.1726,7.1726,7.1726,7.1726,7.1726,7.1726,7.1726,7.1726,7.1726,7.1726,7.1726,7.1726,7.1726,7.1726,7.1726,7.1726,7.1726,7.1726,7.2791,7.1726,7.1414,7.1011,7.0524,7.0247,6.9938,6.9886,7.0408,7.0801,7.1353,7.2722,7.3861,7.487,7.6537,7.7338,7.7669,7.8092,7.8393,7.8726,7.8551,7.8675,7.8951,7.87,7.8175,7.8493,7.7904,7.7548,7.5855,7.3353,7.1724,7.1878,7.1802,7.1495,7.1017,7.0325,6.9787,6.933,6.9077,6.8873,6.8951,6.9184,6.9392,6.9392,6.96,6.9756,6.986,6.999,7.0327,7.0509,7.0612,7.0846,7.1261,7.139,7.1493,7.1624,7.1573,7.1494,7.1649,7.1726,7.1726,7.1726,7.1726,7.17,7.1726,7.1726,7.1726,7.1726,7.1726,7.1726,7.1726,7.1726,7.1726,7.1726,7.1726,7.1726,7.1726,7.1726,7.1726,7.1726,7.1726,7.1726,7.1726,7.1726,7.1726,7.1726,7.1726,7.1726,7.1726,7.1726,7.1726,7.1726,7.1726,7.1726,7.1726,7.1726,7.1726,7.1726,7.1726,7.1726,7.1726,7.1726,7.1726,7.1726,7.1726,7.1726,7.1726,7.1726,7.1726,7.1726,7.1726,7.1726,7.1726,7.1726,7.1726,7.1444,7.1342,7.1266,7.073,6.9839,6.9738,6.9515,6.9158,6.9184,6.947,7.0069,7.1089,7.1718,7.2452,7.4098,7.5186,7.6016,7.6814,7.7484,7.7792,7.7692,7.7598,7.7382,7.6817,7.617,7.5328,7.4567,7.301,7.1943,7.1552,7.1138,7.1062,7.0883,7.0859,6.9889,6.9608,6.9353,6.861,6.8431,6.8431,6.8457,6.8483,6.8509,6.8639,6.8873,6.9132,6.921,6.9522,6.9859,6.9963,7.0015,7.0301,7.0716,7.0846,7.1131,7.1261,7.1209,7.1027,7.1338,7.1364,7.1338,7.1312,7.152,7.1597,7.1571,7.1597,7.1726,7.1726,7.1726,7.1726,7.1726,7.1726,7.1726,7.1726,7.1726,7.1726,7.1726,7.1726,7.1726,7.1726,7.1726,7.1726,7.1675,7.17,7.17,7.1726,7.1726,7.1726,7.1726,7.1726,7.1726,7.1726,7.1726,7.1726,7.1726,7.1726,7.1726,7.1726,7.1726,7.1726,7.1726,7.1726,7.1726,7.1726,7.1726,7.1726,7.1726,7.1726,7.1726,7.1726,7.1726,7.1726,7.1726,7.1726,7.1726,6.9838,6.9096,6.9071,6.8969,6.8764,6.8712,6.8662,6.8612,6.8613,6.8691,6.8872,6.9521,7.0328,7.1187,7.2105,7.3028,7.4102,7.5227,7.5782,7.6104,7.6457,7.6373,7.579,7.5007,7.4155,7.3144,7.2421,7.1146,6.9736,6.9352,6.9173,6.9352,6.9173,6.8866,6.8866,6.8892,6.8687,6.8431,6.8405,6.8405,6.8405,6.8405,6.8405,6.8431,6.8483,6.8587,6.8613,6.8847,6.9054,6.9288,6.9444,6.9651,7.0224,7.0354,7.0405,7.0457,7.0379,7.0353,7.0509,7.0561,7.0638,7.0691,7.0951,7.1053,7.113,7.1364,7.1623,7.1726,7.1675,7.1624,7.1572,7.1675,7.1675,7.1649,7.1623,7.17,7.1649,7.17,7.17,7.1649,7.1726,7.1675,7.1624,7.1624,7.1624,7.1649,7.1726,7.1726,7.1726,7.1726,7.1726,7.1726,7.1726,7.1726,7.1726,7.1726,7.1726,7.1726,7.1726,7.1726,7.1726,7.1726,7.1726,7.1726,7.1726,7.1726,7.1726,7.1726,7.1726,7.1726,7.1726,7.1726,7.1726,7.1726,7.1726,6.8917,6.8431,6.8405,6.8405,6.8405,6.8405,6.8405,6.8405,6.8405,6.8405,6.8509,6.8742,6.9182,6.9673,7.0039,7.0951,7.2253,7.3423,7.4082,7.4323,7.4571,7.4355,7.391,7.3309,7.2344,7.1388,7.0484,6.9429,6.8482,6.8405,6.8534,6.8405,6.8405,6.8405,6.8405,6.8405,6.8405,6.8405,6.8405,6.8405,6.8405,6.8405,6.8405,6.8405,6.8405,6.8405,6.8405,6.8405,6.8561,6.8769,6.8847,6.9158,6.9444,6.9548,6.9444,6.9652,6.9677,6.9807,7.012,7.0172,7.0146,7.0198,7.0405,7.0561,7.0638,7.0768,7.0872,7.095,7.0976,7.0976,7.1028,7.0924,7.0949,7.0975,7.1182,7.1286,7.1364,7.1571,7.1467,7.1338,7.1312,7.1286,7.1338,7.1417,7.1494,7.1624,7.17,7.1726,7.1726,7.1726,7.1726,7.1726,7.1726,7.1726,7.1726,7.1726,7.1726,7.1726,7.1726,7.1726,7.1726,7.1726,7.1726,7.1726,7.1726,7.1726,7.1726,7.1726,7.1726,7.1726,7.1726,7.1726,7.1726,7.1726,7.1726,6.8405,6.8405,6.8405,6.8405,6.8405,6.8405,6.8405,6.8405,6.8405,6.8405,6.8405,6.8405,6.8431,6.8508,6.8431,6.9153,7.0527,7.1586,7.2369,7.2612,7.2808,7.2382,7.2148,7.1666,7.0914,6.9736,6.9071,6.8687,6.8431,6.8405,6.8405,6.8405,6.8405,6.8405,6.8405,6.8405,6.8405,6.8405,6.8405,6.8405,6.8405,6.8405,6.8405,6.8405,6.8405,6.8405,6.8405,6.8405,6.8405,6.8405,6.8405,6.8639,6.8925,6.8717,6.8743,6.9002,6.9106,6.9236,6.96,6.9782,6.9834,6.9912,6.9964,6.9989,7.0041,7.0145,7.0353,7.0328,7.0302,7.0276,7.0172,7.0328,7.0197,7.0302,7.0613,7.0846,7.1001,7.1131,7.113,7.0898,7.082,7.0794,7.082,7.0846,7.0924,7.1002,7.1261,7.1416,7.1494,7.1519,7.1597,7.1649,7.1675,7.1649,7.1649,7.1623,7.17,7.1675,7.1726,7.1726,7.1726,7.1726,7.1726,7.1726,7.1726,7.1726,7.1726,7.1726,7.1726,7.1726,7.1726,7.1726,7.1726,7.1726,7.1726,6.8405,6.8405,6.8405,6.8405,6.8405,6.8405,6.8405,6.8405,6.8405,6.8405,6.8405,6.8405,6.8405,6.8405,6.8405,6.8508,6.9126,6.9921,7.0514,7.0829,7.1282,7.1127,7.0561,7.0302,6.9736,6.8764,6.8482,6.8431,6.8405,6.8405,6.8405,6.8405,6.8405,6.8405,6.8405,6.8405,6.8405,6.8405,6.8405,6.8405,6.8405,6.8405,6.8405,6.8405,6.8405,6.8405,6.8405,6.8405,6.8405,6.8405,6.8405,6.8457,6.8535,6.8431,6.8483,6.8509,6.8587,6.8717,6.8872,6.8821,6.8795,6.8691,6.9106,6.934,6.947,6.973,6.9938,7.0042,7.0016,7.0016,7.0172,7.0016,7.0042,7.012,7.0198,7.0509,7.0742,7.0561,7.0483,7.0302,7.0249,7.0223,7.0249,7.0249,7.0327,7.0431,7.0794,7.1079,7.1183,7.126,7.1416,7.1494,7.1364,7.1338,7.1391,7.1391,7.1624,7.1675,7.1726,7.1726,7.1726,7.1726,7.1726,7.1726,7.1726,7.1726,7.1726,7.1726,7.1726,7.1726,7.1726,7.1726,7.1726,7.1726,7.1726,6.8405,6.8405,6.8405,6.8405,6.8405,6.8405,6.8405,6.8405,6.8405,6.8405,6.8405,6.8405,6.8405,6.8405,6.8405,6.8405,6.8533,6.8943,6.9174,6.9327,6.9608,6.971,6.9173,6.9097,6.8969,6.8534,6.8405,6.8405,6.8405,6.8405,6.8405,6.8405,6.8405,6.8405,6.8405,6.8405,6.8405,6.8405,6.8405,6.8405,6.8405,6.8405,6.8405,6.8405,6.8405,6.8405,6.8405,6.8405,6.8405,6.8405,6.8405,6.8405,6.8431,6.8405,6.8405,6.8405,6.8405,6.8405,6.8405,6.8405,6.8405,6.8457,6.8613,6.8743,6.8899,6.9028,6.9236,6.9262,6.9262,6.9236,6.9262,6.9262,6.9236,6.9288,6.947,6.9755,6.9911,6.9807,6.9678,6.9652,6.9652,6.9625,6.9651,6.9652,6.9729,7.0041,7.0405,7.0509,7.0664,7.0794,7.0975,7.1079,7.1001,7.1001,7.108,7.121,7.1364,7.152,7.1623,7.1726,7.1726,7.1726,7.1726,7.1726,7.1726,7.1726,7.1726,7.1726,7.1726,7.1726,7.1726,7.1726,7.1726,7.1726,7.1726,6.8405,6.8405,6.8405,6.8405,6.8405,6.8405,6.8405,6.8405,6.8405,6.8405,6.8405,6.8405,6.8405,6.8405,6.8405,6.8405,6.8431,6.8457,6.8405,6.8405,6.8405,6.8405,6.8456,6.8508,6.8431,6.8431,6.8405,6.8405,6.8405,6.8405,6.8405,6.8405,6.8405,6.8405,6.8405,6.8405,6.8405,6.8405,6.8405,6.8405,6.8405,6.8405,6.8405,6.8405,6.8405,6.8405,6.8405,6.8405,6.8405,6.8405,6.8405,6.8405,6.8405,6.8405,6.8405,6.8405,6.8405,6.8405,6.8405,6.8405,6.8405,6.8405,6.8431,6.8405,6.8405,6.8483,6.8457,6.8431,6.8405,6.8509,6.8561,6.8431,6.8535,6.8639,6.8847,6.9054,6.9054,6.9028,6.9054,6.9054,6.9054,6.9054,6.9028,6.9054,6.9262,6.9626,6.9807,6.9937,7.0041,7.0171,7.0353,7.0509,7.0483,7.0561,7.0613,7.0664,7.0949,7.1235,7.1546,7.1726,7.1726,7.1726,7.1726,7.1726,7.1726,7.1726,7.1726,7.1726,7.1726,7.1726,7.1726,7.1726,7.1726,7.1726,7.1726,6.8405,6.8405,6.8405,6.8405,6.8405,6.8405,6.8405,6.8405,6.8405,6.8405,6.8405,6.8405,6.8405,6.8405,6.8405,6.8405,6.8405,6.8405,6.8405,6.8405,6.8405,6.8405,6.8405,6.8405,6.8405,6.8405,6.8405,6.8405,6.8405,6.8405,6.8405,6.8405,6.8405,6.8405,6.8405,6.8405,6.8405,6.8405,6.8405,6.8405,6.8405,6.8405,6.8405,6.8405,6.8405,6.8405,6.8405,6.8405,6.8405,6.8405,6.8405,6.8405,6.8405,6.8405,6.8405,6.8405,6.8405,6.8405,6.8405,6.8405,6.8405,6.8405,6.8405,6.8405,6.8405,6.8405,6.8405,6.8405,6.8405,6.8405,6.8405,6.8405,6.8405,6.8405,6.8431,6.8535,6.8509,6.8535,6.8535,6.8535,6.8509,6.8509,6.8509,6.8483,6.8587,6.908,6.9184,6.9288,6.9392,6.9548,6.973,6.9834,6.9912,7.0042,7.0067,7.0119,7.0509,7.0794,7.1105,7.1519,7.1519,7.1649,7.1675,7.1726,7.1726,7.1726,7.1726,7.1726,7.1726,7.1726,7.1726,7.1726,7.1726,7.1726,7.1726,6.8405,6.8405,6.8405,6.8405,6.8405,6.8405,6.8405,6.8405,6.8405,6.8405,6.8405,6.8405,6.8405,6.8405,6.8405,6.8405,6.8405,6.8405,6.8405,6.8405,6.8405,6.8405,6.8405,6.8405,6.8405,6.8405,6.8405,6.8405,6.8405,6.8405,6.8405,6.8405,6.8405,6.8405,6.8405,6.8405,6.8405,6.8405,6.8405,6.8405,6.8405,6.8405,6.8405,6.8405,6.8405,6.8405,6.8405,6.8405,6.8405,6.8405,6.8405,6.8405,6.8405,6.8405,6.8405,6.8405,6.8405,6.8379,6.8405,6.8405,6.8405,6.8379,6.8405,6.8405,6.8405,6.8405,6.8405,6.8405,6.8405,6.8405,6.8405,6.8405,6.8405,6.8405,6.8405,6.8405,6.8405,6.8405,6.8405,6.8405,6.8405,6.8431,6.8405,6.8405,6.8405,6.8457,6.8691,6.8717,6.8795,6.8924,6.908,6.9002,6.9028,6.9132,6.9184,6.9444,6.9781,6.9963,7.0352,7.1105,7.1286,7.1494,7.1597,7.1726,7.1726,7.1726,7.1726,7.1726,7.1726,7.1726,7.1726,7.1726,7.1726,7.1726,7.1726,6.8405,6.8405,6.8405,6.8405,6.8405,6.8405,6.8405,6.8405,6.8405,6.8405,6.8405,6.8405,6.8405,6.8405,6.8405,6.8405,6.8405,6.8405,6.8405,6.8405,6.8405,6.8405,6.8405,6.8405,6.8405,6.8405,6.8405,6.8405,6.8405,6.8405,6.8405,6.8405,6.8405,6.8405,6.8405,6.8405,6.8405,6.8405,6.8405,6.8405,6.8405,6.8405,6.8405,6.8405,6.8405,6.8405,6.8405,6.8405,6.8405,6.8405,6.8301,6.8223,6.8196,6.799,6.786,6.7834,6.7886,6.7912,6.7938,6.8067,6.8197,6.8223,6.8301,6.8405,6.8405,6.8405,6.8405,6.8405,6.8405,6.8405,6.8405,6.8405,6.8405,6.8405,6.8405,6.8405,6.8405,6.8405,6.8405,6.8405,6.8405,6.8405,6.8405,6.8405,6.8405,6.8405,6.8431,6.8457,6.8509,6.8613,6.8717,6.8509,6.8457,6.8405,6.8509,6.8821,6.908,6.9288,6.9807,7.056,7.069,7.1053,7.1389,7.1701,7.1623,7.17,7.1726,7.1726,7.1726,7.1726,7.1726,7.1726,7.1726,7.1726,7.1726,6.8405,6.8405,6.8379,6.8327,6.8327,6.8302,6.825,6.8379,6.8327,6.8327,6.8302,6.8224,6.8276,6.8327,6.8223,6.8198,6.8353,6.8301,6.8301,6.8275,6.825,6.8224,6.8249,6.8301,6.8353,6.8379,6.8405,6.8405,6.8405,6.8405,6.8405,6.8405,6.8405,6.8405,6.8405,6.8405,6.8405,6.8405,6.8405,6.8405,6.8405,6.8405,6.8405,6.8405,6.8405,6.8405,6.8405,6.8379,6.8379,6.8353,6.7962,6.7754,6.7573,6.7132,6.69,6.6926,6.6822,6.69,6.6952,6.7366,6.7651,6.7703,6.8041,6.8405,6.8353,6.8379,6.8405,6.8405,6.8405,6.8405,6.8405,6.8405,6.8405,6.8405,6.8405,6.8405,6.8405,6.8405,6.8405,6.8405,6.8405,6.8405,6.8405,6.8405,6.8405,6.8405,6.8405,6.8405,6.8405,6.8405,6.8405,6.8405,6.8405,6.8405,6.8405,6.8665,6.8769,6.9002,6.9366,6.9677,6.9729,7.0403,7.0922,7.1311,7.1545,7.1675,7.1727,7.1726,7.1726,7.1726,7.1726,7.1726,7.1726,7.1726,7.1726,6.7315,6.7341,6.7315,6.7315,6.734,6.734,6.7315,6.7315,6.7315,6.7315,6.7366,6.734,6.729,6.7315,6.7315,6.729,6.7367,6.7781,6.7703,6.7392,6.7315,6.7315,6.7366,6.7729,6.8067,6.8379,6.8405,6.8405,6.8405,6.8405,6.8405,6.8405,6.8405,6.8405,6.8405,6.8405,6.8405,6.8405,6.8405,6.8405,6.8405,6.8405,6.8405,6.8405,6.8405,6.8405,6.8405,6.8405,6.8275,6.7962,6.778,6.7417,6.7055,6.6821,6.6692,6.6692,6.6692,6.6641,6.6718,6.6873,6.7029,6.7158,6.7573,6.791,6.7988,6.8301,6.8379,6.8405,6.8353,6.8405,6.8405,6.8379,6.8405,6.8379,6.8353,6.8405,6.8405,6.8405,6.8379,6.8405,6.8405,6.8405,6.8405,6.8405,6.8405,6.8405,6.8405,6.8405,6.8405,6.8405,6.8405,6.8405,6.8405,6.8405,6.8405,6.8431,6.8483,6.8743,6.8977,6.9054,6.9158,6.9859,7.0352,7.0715,7.121,7.1315,7.1494,7.1546,7.1597,7.17,7.1726,7.1726,7.1726,7.1726,7.1726,6.6692,6.6692,6.6692,6.6692,6.6692,6.6692,6.6692,6.6692,6.6692,6.6692,6.6692,6.6692,6.6692,6.6692,6.6692,6.6692,6.6692,6.6899,6.6872,6.6561,6.6615,6.6718,6.6796,6.7132,6.7547,6.7834,6.7886,6.7964,6.8119,6.8196,6.8301,6.8379,6.8405,6.8405,6.8405,6.8405,6.8405,6.8405,6.8405,6.8405,6.8405,6.8405,6.8405,6.8405,6.8405,6.8327,6.8197,6.8197,6.7885,6.7391,6.7314,6.708,6.6535,6.6251,6.6172,6.6121,6.6122,6.6122,6.6147,6.6252,6.6406,6.6535,6.6977,6.7288,6.7391,6.7677,6.7834,6.786,6.7886,6.8015,6.8145,6.8145,6.8015,6.786,6.7886,6.7808,6.7782,6.799,6.8197,6.8353,6.8405,6.8405,6.8405,6.8405,6.8405,6.8405,6.8405,6.8405,6.8405,6.8405,6.8405,6.8405,6.8405,6.8405,6.8405,6.8431,6.8457,6.8587,6.8717,6.8821,6.8951,6.9366,6.9651,7.0067,7.0589,7.0927,7.1159,7.1261,7.1312,7.1416,7.1572,7.1675,7.17,7.1726,7.1726,6.664,6.6563,6.6641,6.6562,6.6536,6.651,6.6589,6.6511,6.6588,6.6484,6.6433,6.6588,6.6459,6.6588,6.6484,6.6563,6.6433,6.6144,6.5937,6.5912,6.6329,6.6511,6.6511,6.6615,6.6769,6.6796,6.6719,6.7055,6.7625,6.7625,6.7833,6.8301,6.8224,6.8197,6.8327,6.8301,6.8353,6.8379,6.8405,6.8405,6.8405,6.8405,6.8405,6.8405,6.8327,6.8067,6.7651,6.7625,6.734,6.6771,6.6692,6.6432,6.5911,6.5393,6.5005,6.5082,6.5005,6.4954,6.5056,6.5599,6.5885,6.5938,6.6405,6.6717,6.6718,6.6796,6.6874,6.69,6.69,6.7004,6.7547,6.7598,6.734,6.6823,6.69,6.69,6.6926,6.7262,6.7833,6.8197,6.8224,6.8353,6.8353,6.8276,6.8301,6.8327,6.8379,6.8405,6.8405,6.8405,6.8405,6.8405,6.8405,6.8405,6.8405,6.8379,6.8379,6.8379,6.8483,6.8587,6.8743,6.8873,6.9184,6.9366,6.9938,7.0382,7.0589,7.0901,7.0978,7.1001,7.1339,7.1495,7.1364,7.126,7.1416,6.5473,6.5498,6.5498,6.5473,6.5498,6.5498,6.5498,6.5498,6.5498,6.5498,6.5498,6.5498,6.5498,6.5498,6.5473,6.5473,6.5496,6.5316,6.5237,6.5238,6.5394,6.5473,6.555,6.5913,6.617,6.6198,6.6459,6.677,6.6952,6.7003,6.7081,6.7237,6.7237,6.7262,6.734,6.7703,6.7885,6.7963,6.8249,6.8379,6.8405,6.8405,6.8405,6.8301,6.7627,6.7184,6.7003,6.7003,6.6692,6.6274,6.6146,6.586,6.5315,6.5055,6.4902,6.4902,6.4876,6.4902,6.4928,6.5108,6.5237,6.5238,6.5782,6.617,6.6172,6.6459,6.6641,6.6692,6.6692,6.6718,6.6873,6.6664,6.6509,6.6666,6.6692,6.6692,6.6692,6.6823,6.7081,6.7211,6.7289,6.7289,6.7264,6.7626,6.7833,6.791,6.8248,6.8379,6.8405,6.8405,6.8405,6.8405,6.8405,6.8379,6.8249,6.8171,6.8146,6.8172,6.8249,6.8405,6.8509,6.8587,6.8742,6.8872,6.9184,6.9678,7.0069,7.046,7.0485,7.0431,7.069,7.0976,7.0846,7.0716,7.0768,6.4352,6.4378,6.4561,6.4793,6.4901,6.4902,6.4902,6.4902,6.4902,6.4902,6.4902,6.4902,6.4902,6.4876,6.4743,6.4769,6.4876,6.4902,6.4902,6.4902,6.4902,6.4902,6.4953,6.5365,6.5573,6.5625,6.5912,6.6173,6.6329,6.638,6.6484,6.664,6.6692,6.6692,6.6744,6.7081,6.7262,6.7314,6.76,6.7782,6.7756,6.7808,6.7808,6.7756,6.703,6.6588,6.638,6.638,6.6121,6.5573,6.5522,6.5367,6.4953,6.4745,6.4561,6.438,6.4378,6.4352,6.4378,6.4378,6.4352,6.4404,6.4766,6.5,6.5287,6.5548,6.586,6.5991,6.6018,6.5939,6.5783,6.5628,6.5704,6.5965,6.6018,6.6017,6.6069,6.6251,6.638,6.6432,6.6563,6.6666,6.6822,6.7029,6.7262,6.7339,6.7599,6.773,6.7782,6.799,6.8119,6.8145,6.8301,6.8301,6.7964,6.7808,6.7808,6.7782,6.7808,6.7808,6.7654,6.7628,6.7706,6.7783,6.8146,6.8586,6.8819,6.9209,6.9678,6.973,7.0171,7.0353,7.0172,7.0379,7.0354,6.3358,6.3486,6.3906,6.4354,6.4847,6.4797,6.4821,6.4743,6.4795,6.4823,6.4771,6.4795,6.4823,6.4769,6.43,6.4354,6.4771,6.4745,6.4745,6.4745,6.4823,6.4875,6.485,6.4876,6.4953,6.5005,6.5082,6.5316,6.5833,6.5834,6.6094,6.6486,6.651,6.6537,6.6511,6.6588,6.6615,6.6666,6.6745,6.6744,6.6744,6.6641,6.6614,6.6589,6.6588,6.6303,6.5937,6.5859,6.5548,6.4925,6.4899,6.4849,6.4771,6.4354,6.3932,6.3464,6.341,6.3407,6.3436,6.3462,6.3436,6.341,6.354,6.3644,6.4192,6.4272,6.4432,6.4845,6.4849,6.4691,6.4376,6.4586,6.4821,6.4873,6.4873,6.4925,6.4925,6.5418,6.5781,6.5886,6.6173,6.638,6.6485,6.664,6.6666,6.6691,6.6718,6.6796,6.6926,6.7262,6.7547,6.7677,6.7834,6.7938,6.6978,6.6952,6.69,6.6926,6.7055,6.6822,6.6593,6.6466,6.6543,6.6723,6.724,6.755,6.7652,6.7964,6.8483,6.8951,6.9392,6.9756,6.9626,6.9964,6.9912,6.3358,6.3407,6.349,6.3696,6.3802,6.3802,6.3802,6.3802,6.3802,6.3802,6.3802,6.3802,6.3802,6.3752,6.367,6.3622,6.3776,6.3802,6.3802,6.3854,6.422,6.4352,6.4428,6.4743,6.4902,6.4902,6.4876,6.5029,6.5185,6.5211,6.5264,6.5368,6.5394,6.5444,6.5446,6.5887,6.6094,6.6144,6.6484,6.6692,6.6511,6.5837,6.5394,6.5394,6.5418,6.5342,6.5211,6.5211,6.4925,6.4378,6.4378,6.417,6.3828,6.367,6.3514,6.3384,6.3358,6.3358,6.3358,6.3358,6.3358,6.3358,6.3358,6.346,6.3542,6.3592,6.367,6.3776,6.3802,6.375,6.3592,6.3698,6.3802,6.3778,6.3826,6.396,6.4324,6.4482,6.4793,6.5108,6.529,6.5369,6.5447,6.5808,6.6068,6.6146,6.6431,6.6692,6.6744,6.6821,6.6951,6.6952,6.7029,6.6978,6.677,6.6588,6.6692,6.6692,6.6614,6.6588,6.6667,6.6591,6.6591,6.6255,6.6617,6.6875,6.6826,6.6954,6.7316,6.7759,6.8328,6.882,6.8898,6.8898,6.8898,6.2063,6.2297,6.2577,6.2892,6.3355,6.3358,6.3358,6.3358,6.3358,6.3358,6.3306,6.284,6.2762,6.2996,6.2947,6.3126,6.3358,6.3358,6.3358,6.3384,6.3672,6.3828,6.3854,6.4144,6.4274,6.4274,6.4298,6.4378,6.4561,6.4638,6.4717,6.4901,6.4902,6.4902,6.4953,6.5315,6.5496,6.5521,6.5783,6.5756,6.5289,6.4638,6.4274,6.4324,6.425,6.4274,6.43,6.4274,6.4168,6.3856,6.3804,6.3672,6.3358,6.31,6.2869,6.2658,6.2401,6.2167,6.1956,6.1907,6.1956,6.1907,6.2115,6.2375,6.2606,6.284,6.2739,6.2377,6.2502,6.2786,6.297,6.3228,6.3358,6.3358,6.3358,6.3488,6.3778,6.3828,6.3932,6.4196,6.43,6.4352,6.4587,6.4974,6.5235,6.5547,6.5705,6.5913,6.5965,6.6199,6.6327,6.6353,6.6121,6.5991,6.5939,6.5965,6.5939,6.5939,6.5965,6.5965,6.5913,6.594,6.594,6.5888,6.6147,6.6228,6.5977,6.6285,6.6544,6.7005,6.7549,6.7882,6.7729,6.773,6.773,6.0173,6.0643,6.1231,6.2086,6.2916,6.2944,6.2994,6.3046,6.3074,6.3098,6.2838,6.1907,6.1702,6.2146,6.2198,6.2507,6.2996,6.3176,6.3176,6.3126,6.3254,6.328,6.328,6.3358,6.3358,6.341,6.3433,6.3672,6.4064,6.4064,6.4324,6.4743,6.4795,6.4719,6.4769,6.4745,6.4769,6.4771,6.4795,6.4326,6.341,6.3358,6.3358,6.3358,6.3407,6.3358,6.3436,6.3358,6.3332,6.328,6.3228,6.3176,6.3022,6.2481,6.1938,6.1488,6.0948,6.0384,5.9965,5.9861,5.9939,5.9887,6.041,6.09,6.1413,6.1698,6.1404,6.0615,6.0813,6.1234,6.1893,6.2452,6.2732,6.2711,6.2954,6.3251,6.323,6.328,6.3306,6.3332,6.3464,6.3564,6.3986,6.4116,6.43,6.469,6.4793,6.4821,6.4904,6.5266,6.5625,6.5544,6.5183,6.4847,6.4771,6.4795,6.4795,6.4795,6.4795,6.4819,6.4845,6.4795,6.4795,6.4871,6.5209,6.5443,6.5476,6.5819,6.5979,6.6255,6.6687,6.7068,6.6818,6.6796,6.6442,5.9939,6.0043,6.0221,6.0403,6.0659,6.0659,6.0919,6.1263,6.1312,6.103,6.0685,6.0426,6.0325,6.0484,6.0877,6.1159,6.1341,6.1754,6.1985,6.206,6.2453,6.2635,6.2663,6.3126,6.3358,6.3358,6.3358,6.341,6.3516,6.3516,6.3618,6.3698,6.3724,6.3724,6.37,6.3724,6.3724,6.3748,6.3698,6.3642,6.3384,6.3358,6.3358,6.3358,6.3332,6.3358,6.3358,6.3358,6.3126,6.2637,6.2219,6.1777,6.1266,6.0721,6.0403,6.0273,6.0121,5.9991,5.9883,5.9861,5.9861,5.9861,5.9991,6.0095,6.0112,5.8996,5.8083,5.786,5.7908,5.8256,5.8871,5.9652,6.0364,6.0796,6.1521,6.2025,6.251,6.2635,6.2791,6.328,6.3358,6.3334,6.3514,6.3564,6.3644,6.37,6.3724,6.3834,6.4004,6.4307,6.4422,6.4256,6.3947,6.3776,6.3698,6.375,6.3776,6.3724,6.375,6.3802,6.3802,6.375,6.3724,6.3756,6.3884,6.3942,6.3962,6.4209,6.4606,6.5022,6.5581,6.6144,6.6256,6.6285,6.5883,5.926,5.9516,5.9494,5.9649,5.9861,5.9861,6.0065,6.0254,6.0065,5.9887,5.9861,5.9861,5.9861,5.9909,6.0173,6.028,6.0306,6.0685,6.0815,6.0819,6.1104,6.1214,6.1312,6.1881,6.2141,6.2118,6.2424,6.2708,6.2871,6.2944,6.3074,6.3355,6.3358,6.3358,6.3358,6.3358,6.3358,6.3355,6.2294,6.1904,6.2141,6.2141,6.2271,6.2554,6.2577,6.2447,6.2118,6.2141,6.1858,6.1263,6.0997,6.0685,6.028,5.9805,5.9364,5.9108,5.887,5.861,5.8281,5.8281,5.8385,5.8644,5.8551,5.7921,5.6596,5.5515,5.4868,5.4691,5.4868,5.5386,5.6393,5.7185,5.789,5.8554,5.9105,5.9597,5.9854,6.0083,6.0573,6.1368,6.1697,6.2119,6.2798,6.2921,6.2998,6.3332,6.3358,6.3319,6.3317,6.333,6.3313,6.3334,6.3358,6.3358,6.3358,6.3358,6.3358,6.3358,6.3358,6.3358,6.3358,6.3358,6.3168,6.2789,6.2672,6.248,6.1985,6.1853,6.2034,6.2608,6.3422,6.3749,6.3736,6.3716,6.2804,5.8411,5.8966,5.8944,5.9208,5.9627,5.9601,5.9649,5.9549,5.8948,5.9022,5.952,5.952,5.9594,5.9627,5.9705,5.9776,5.9776,5.9857,5.9861,5.9861,5.9861,5.9861,5.9887,6.0332,6.0543,6.0569,6.1127,6.1621,6.199,6.2042,6.2325,6.2786,6.289,6.2864,6.289,6.2866,6.289,6.2814,6.0916,6.0117,6.0517,6.0543,6.0822,6.1335,6.1338,6.1127,6.0591,6.0565,6.0309,5.9909,5.9727,5.9627,5.9575,5.8944,5.8307,5.7636,5.7036,5.6428,5.5829,5.5722,5.5949,5.6585,5.6368,5.4876,5.1814,5.1384,5.124,5.1026,5.1294,5.2221,5.3628,5.41,5.4746,5.5819,5.6159,5.6387,5.6669,5.7176,5.7858,5.871,5.9266,6.0184,6.1118,6.1507,6.1739,6.2532,6.2464,6.2789,6.2518,6.2065,6.1821,6.2256,6.2767,6.31,6.2994,6.3098,6.2925,6.2958,6.2763,6.2567,6.2308,6.2284,6.193,6.1252,6.0916,6.0586,5.9686,5.8808,5.8737,5.9287,5.9962,6.0371,5.994,5.8979,5.8069,5.8203,5.8281,5.8325,5.8359,5.8437,5.8415,5.8459,5.8337,5.732,0.0,0.0,5.7779,5.806,5.8441,5.8996,5.9248,5.9274,5.9698,5.9861,5.9861,5.9861,5.9861,5.9861,5.9965,6.0017,6.0017,6.0143,6.0224,6.0302,6.0302,6.0377,6.0481,6.0503,6.0503,6.0481,6.0481,6.0481,6.0432,6.0043,5.9913,5.9991,6.0017,6.0069,6.0169,6.0169,6.0143,5.9991,6.0017,5.9965,5.9857,5.8952,5.8437,5.8385,5.703,5.5878,5.5114,5.4086,5.3365,5.3042,5.2601,5.2621,5.3147,5.3509,5.17,4.6921,4.6065,4.5891,4.6259,4.641,4.6862,4.7901,4.8691,4.9905,5.1675,5.2529,5.341,5.4532,5.5425,5.5855,5.629,5.693,5.7643,5.7906,5.8325,5.8875,5.9787,6.0353,6.084,6.1296,5.9476,5.8379,5.9896,6.1023,6.1837,6.1861,6.1791,6.1582,6.0793,6.0631,6.0305,5.9629,5.9371,5.9,5.8115,5.7998,5.7484,5.6618,5.5914,5.5767,5.5933,5.5757,5.5745,5.6107,5.3866,5.1511,5.7247,5.7247,5.7247,5.7225,0.0,5.7204,5.7204,5.72,5.6608,5.6339,5.6277,5.6277,5.6128,5.6022,5.6777,5.7121,5.7147,5.7843,5.8036,5.7926,5.7904,5.8032,5.8292,5.8553,5.8974,5.949,5.9727,5.9861,5.9861,5.9861,5.9861,5.9861,5.9861,5.9861,5.9861,5.9861,5.9575,5.9004,5.9004,5.9134,5.9464,5.9442,5.9598,5.9857,5.9861,0.0,0.0,0.0,0.0,0.0,0.0,0.0,0.0,0.0,0.0,5.2204,5.0509,4.9033,4.798,4.7603,4.7519,4.7653,4.8334,4.6863,4.2502,4.1677,4.1192,4.0838,4.1192,4.1986,4.3273,4.4234,4.5612,4.7597,4.8274,4.8953,4.9949,5.0617,5.1668,5.3198,5.3725,5.4118,5.4807,5.5501,5.6373,5.7263,5.7668,5.8238,5.9078,5.7192,5.5898,5.7377,5.857,5.9234,5.9257,5.9257,5.9029,5.8573,5.8093,5.7633,5.7107,5.667,5.5868,5.4513,5.4168,5.3684,5.2367,5.1981,5.1962,5.1933,5.1884,5.139,4.8544,4.7186,4.6107,5.6374,5.6374,5.6374,5.6374,5.6322,5.5735,5.5491,5.547,5.5303,5.4931,5.4323,5.4276,5.3825,5.3185,5.3989,5.4369,5.4436,5.5318,5.5646,5.5435,5.5514,5.5771,5.6247,5.6636,5.7278,5.8101,5.8668,5.9012,5.899,5.9123,5.9264,5.9367,5.9367,5.9442,5.9523,0.0,0.0,0.0,5.8073,5.8359,5.8866,5.8914,5.91,5.9497,5.9419,0.0,5.8758,5.8147,5.7554,5.7026,5.6412,0.0,0.0,0.0,0.0,0.0,0.0,0.0,0.0,0.0,0.0,0.0,4.1411,3.9991,3.7398,3.6949,3.6465,3.5726,3.6435,3.7556,3.899,3.9808,4.1095,4.3089,4.3361,4.3671,4.4505,4.4987,4.664,5.0144,4.9906,4.9928,5.1203,5.2217,5.3052,5.3934,5.4481,5.4874,5.5223,5.3599,5.3144,5.419,5.4826,5.5481,5.5849,5.5852,5.5765,5.5532,5.4944,5.4447,5.4108,5.3494,5.2448,5.0579,5.0237,4.9573,4.7692,4.7247,4.7233,4.7442,4.7678,4.6453,4.1843,4.1427,4.1915,5.6374,5.6374,5.6374,5.6374,5.6129,5.3463,5.2338,5.2258,5.158,5.1243,5.1126,5.0881,5.0606,5.0352,5.1124,5.1476,5.1584,5.2863,5.3467,5.3461,5.3913,5.414,5.4236,5.4311,5.44,5.4549,5.5394,5.5808,5.5829,5.6512,5.7091,5.7649,5.7671,5.7887,5.8285,5.7102,5.6816,5.7441,5.7891,5.8155,5.8251,5.8255,5.8281,5.8355,5.7887,5.7645,5.7567,5.6936,5.6343,5.5836,5.53,5.4209,5.2422,4.9789,4.6893,0.0,4.0736,0.0,0.0,0.0,0.0,0.0,0.0,0.0,0.0,3.0525,3.1142,3.223,3.3027,3.3734,3.4304,3.4606,3.5449,3.6942,3.7119,3.7679,3.915,4.0116,4.227,4.6346,4.5531,4.512,4.6382,4.7092,4.794,4.9129,5.0195,4.9838,4.7538,4.7216,4.8069,4.9765,5.0122,5.0551,5.1609,5.1971,5.1653,5.0879,5.0585,5.0374,4.9488,4.9168,4.8456,4.6691,4.6218,4.5565,4.3687,4.2189,4.1525,4.2211,4.2225,4.151,3.9796,3.8969,3.8972,5.4537,5.4537,5.4517,5.346,5.1717,5.0358,4.9673,4.9516,4.9187,4.8799,4.8303,4.707,4.5781,4.4751,4.6169,4.682,4.6989,4.9009,4.9579,4.8946,4.9874,5.0377,5.0495,5.0944,5.1554,5.2331,5.2953,5.3249,5.3312,5.4158,5.4706,5.4959,5.5238,5.5,5.4291,5.4337,5.4963,5.6141,5.6397,5.6697,5.7126,5.7169,5.7169,5.7169,5.691,5.6671,5.6376,5.581,5.4917,5.363,5.2691,5.1066,4.8536,4.5465,4.2241,0.0,0.0,0.0,0.0,0.0,0.0,0.0,0.0,0.0,0.0,0.0,2.7868,2.849,2.9174,2.9949,3.0759,3.1183,3.1875,3.3244,3.3493,3.3189,3.2159,3.4576,3.7401,4.0245,4.0096,4.0066,4.0847,4.1917,4.2993,4.4171,4.3601,4.252,4.1263,4.1737,4.2881,4.4372,4.4648,4.5098,4.6481,4.6654,4.6521,4.6032,4.5564,4.5095,4.4605,4.4115,4.3331,4.2057,4.1845,4.1453,4.0177,3.9345,3.9157,3.9467,3.8757,3.7204,3.544,3.4685,3.4589,5.1916,5.1839,5.0629,4.8667,4.6326,4.601,4.5831,4.5822,4.5651,4.5212,4.4541,4.2763,4.1036,3.938,4.0972,4.1687,4.181,4.4389,4.5029,4.4229,4.5508,4.6269,4.6524,4.7202,4.8142,4.9178,4.9921,5.023,5.0272,5.123,5.1772,5.187,5.1048,5.0208,4.9426,5.0578,5.2125,5.397,5.4263,5.493,5.6031,5.6264,5.6374,5.6374,5.6131,5.5737,5.5192,5.4363,5.3037,5.1207,4.9703,4.7503,4.4422,4.0957,0.0,0.0,0.0,0.0,0.0,0.0,0.0,0.0,0.0,2.2954,2.3871,0.0,2.4818,0.0,2.603,2.6921,2.7912,2.8341,0.0,0.0,3.0002,2.9034,2.6422,2.9442,3.268,3.5268,3.538,3.5462,3.6184,3.7435,3.8172,3.7863,3.6381,3.5429,3.5726,3.6614,3.7674,3.8702,3.8979,3.9403,4.0468,4.0716,4.0732,4.0738,4.0084,3.9543,3.9543,3.9009,3.8293,3.7456,3.7468,3.7249,3.639,3.6383,3.6603,3.6717,3.5402,3.3468,3.1704,3.0804,3.0705,4.8587,4.818,4.3546,4.1402,4.0921,3.9624,3.9459,4.007,3.9368,3.9025,3.8916,3.8004,3.7073,3.6126,3.6289,0.0,3.6516,3.9101,4.0188,4.0184,4.1825,4.2592,4.2636,4.3203,4.3497,4.3662,4.5204,4.5973,4.6031,4.7242,4.8104,4.8423,4.3849,4.2409,4.4117,4.518,4.7321,5.0489,5.1477,5.3052,5.5247,5.6014,5.6374,5.6301,5.5436,5.4624,5.3945,5.2207,5.0512,4.8917,4.6591,4.3741,4.0278,0.0,0.0,0.0,0.0,0.0,0.0,0.0,0.0,0.0,0.0,0.0,0.0,0.0,0.0,2.3027,2.4328,0.0,2.5689,2.6087,0.0,0.0,0.0,2.5029,2.3601,2.5341,2.852,3.3469,0.0,0.0,3.3512,3.4369,3.3351,2.9371,2.991,3.0698,3.0709,3.1634,3.2363,3.3192,3.3186,3.345,3.4501,3.4611,3.4632,3.4675,3.4293,3.4367,3.4367,3.4418,3.418,3.339,3.3362,3.3255,3.2182,3.2079,3.1859,3.1551,3.08,3.0356,3.0463,2.8876,2.8145,4.305,3.8854,3.656,3.5584,3.551,3.5508,3.5326,3.5106,3.5036,3.4384,3.3294,3.23,3.1442,3.0704,3.0008,0.0,0.0,0.0,3.4645,3.4581,3.6491,3.7368,3.7445,3.8321,3.9089,3.9825,4.0736,4.1274,4.149,4.2578,4.1423,3.8149,0.0,3.7134,3.8769,4.0539,4.3154,4.6456,4.7495,4.9328,5.209,5.24,5.2845,5.352,5.3315,5.2522,5.1189,4.9781,4.753,4.4293,4.2008,3.8953,0.0,0.0,0.0,0.0,0.0,0.0,0.0,0.0,0.0,0.0,0.0,1.714,1.7815,0.0,0.0,0.0,2.1148,2.2132,2.2859,2.3318,0.0,0.0,0.0,0.0,0.0,0.0,0.0,2.9277,2.8343,2.7779,2.8725,2.8918,2.8439,2.6863,2.752,2.8218,2.845,0.0,2.9232,2.9818,2.9888,3.0075,3.0615,3.0691,3.0691,3.067,3.0691,3.0711,3.0726,3.0797,3.0722,3.0465,3.0712,3.0926,3.0501,2.8589,2.722,2.7561,2.7383,2.7335,2.7787,2.6896,2.6391,3.5898,0.0,0.0,0.0,0.0,3.0263,3.0247,2.9891,3.0285,2.9681,2.8288,2.7457,0.0,0.0,0.0,0.0,0.0,0.0,2.9674,2.9746,3.1782,3.2775,3.2938,3.3967,3.492,3.5715,3.6217,3.6534,3.6683,3.6294,3.3905,2.9762,0.0,0.0,0.0,0.0,3.878,4.2153,4.3421,4.556,4.8711,4.8714,4.9415,5.1009,5.0988,5.0055,4.8108,4.6581,4.3875,3.9812,3.7083,0.0,0.0,0.0,0.0,0.0,0.0,0.0,0.0,0.0,0.0,0.0,0.0,0.0,0.0,0.0,0.0,0.0,0.0,0.0,2.025,2.0943,2.1092,0.0,0.0,0.0,0.0,0.0,0.0,0.0,0.0,0.0,2.4042,2.4092,2.4306,0.0,0.0,2.5838,2.6262,2.6305,2.6433,2.6857,2.6961,0.0,2.745,2.7513,2.7493,2.7493,2.7493,2.7473,2.7493,2.7493,2.7521,2.7601,2.8095,2.8223,2.7635,2.5446,2.4216,2.4693,2.4797,2.4863,2.5198,2.4956,2.483,0.0,0.0,0.0,0.0,0.0,0.0,0.0,0.0,2.4602,2.4553,0.0,2.4033,0.0,0.0,0.0,0.0,2.2959,2.4558,0.0,0.0,2.8189,2.9328,2.9726,3.0505,3.0905,3.0976,3.1695,3.1873,3.1314,2.7872,0.0,0.0,0.0,0.0,0.0,0.0,3.388,3.7507,3.9467,4.2115,4.547,4.5616,4.6824,4.9291,4.8729,4.7197,4.4917,4.2262,3.9326,3.6032,3.1917,0.0,0.0,0.0,0.0,0.0,0.0,0.0,0.0,0.0,0.0,0.0,0.0,0.0,0.0,0.0,0.0,0.0,0.0,0.0,0.0,1.9157,0.0,0.0,0.0,0.0,0.0,0.0,0.0,0.0,0.0,0.0,1.9983,2.0461,2.131,2.2161,0.0,0.0,0.0,0.0,2.3748,2.4048,2.4056,2.4162,2.4459,2.4447,2.4485,2.4466,0.0,0.0,2.4447,2.4447,2.457,2.478,2.5179,2.475,2.285,2.2586,2.267,2.2986,2.3021,2.3162,2.3452,2.3139,2.3012,0.0,0.0,0.0,0.0,0.0,0.0,0.0,0.0,0.0,2.0757,1.989,1.9865,0.0,0.0,0.0,0.0,0.0,0.0,0.0,0.0,2.4415,2.5332,2.5888,2.6574,2.7184,0.0,2.7762,2.6525,0.0,0.0,0.0,0.0,0.0,0.0,0.0,0.0,3.0454,3.3965,3.6197,3.8715,4.1571,4.2176,4.3621,4.6077,4.5363,4.357,4.0742,3.825,3.4959,0.0,0.0,0.0,0.0,0.0,0.0,0.0,0.0,0.0,0.0,0.0,0.0,0.0,0.0,0.0,0.0,0.0,0.0,0.0,0.0,0.0,0.0,0.0,1.734,0.0,0.0,0.0,0.0,0.0,0.0,0.0,0.0,0.0,1.8168,1.8966,1.9984,2.0902,2.1697,2.2353,2.2811,0.0,0.0,0.0,0.0,0.0,0.0,0.0,2.3407,2.3389,2.3104,2.2907,2.2907,2.2767,2.2674,2.278,0.0,0.0,2.1093,2.0836,2.0994,2.1225,2.1261,2.1387,2.169,2.1569,2.1593,0.0,0.0,0.0,0.0,0.0,0.0,0.0,0.0,0.0,1.7398,1.6499,0.0,0.0,0.0,0.0,0.0,0.0,0.0,0.0,0.0,0.0,0.0,2.2222,2.2778,0.0,0.0,0.0,0.0,0.0,0.0,0.0,0.0,0.0,0.0,0.0,0.0,2.7728,3.103,3.3349,3.5691,3.8009,3.8567,4.0004,4.2294,4.1475,3.9918,3.7646,0.0,0.0,0.0,0.0,0.0,0.0,0.0,0.0,0.0,0.0,0.0,0.0,0.0,0.0,0.0,0.0,0.0,0.0,0.0,0.0,0.0,0.0,0.0,0.0,0.0,1.5805,0.0,0.0,0.0,0.0,0.0,0.0,0.0,0.0,0.0,0.0,0.0,1.8357,1.9539,2.0474,2.1313,2.2004,2.2354,2.2666,0.0,0.0,0.0,0.0,0.0,0.0,0.0,0.0,0.0,0.0,0.0,0.0,0.0,0.0,1.9641,1.8576,1.838,1.8485,1.8754,0.0,0.0,0.0,0.0,0.0,0.0,0.0,0.0,0.0,0.0,0.0,0.0,0.0,0.0,0.0,1.3967,0.0,0.0,1.3588,0.0,0.0,0.0,0.0,0.0,0.0,0.0,0.0,0.0,0.0,0.0,0.0,0.0,0.0,0.0,0.0,0.0,0.0,0.0,0.0,0.0,0.0,2.5761,2.8698,3.0976,3.3031,3.4916,3.5008,3.6058,3.799,3.7167,3.6373,3.5612,0.0,0.0,0.0,0.0,0.0,0.0,0.0,0.0,0.0,0.0,0.0,0.0,0.0,0.0,0.0,0.0,0.0,0.0,0.0,0.0,0.0,0.0,0.0,0.0,0.0,0.0,1.5102,1.5678,1.5747,0.0,0.0,0.0,0.0,0.0,0.0,0.0,0.0,0.0,1.7982,1.9017,1.9974,2.1038,2.1518,2.1872,2.2146,2.2168,2.2155,2.2168,2.2159,2.1893,0.0,0.0,0.0,0.0,0.0,0.0,0.0,0.0,0.0,0.0,0.0,0.0,0.0,0.0,0.0,0.0,0.0,0.0,0.0,0.0,0.0,0.0,0.0,0.0,0.0,0.0,0.0,0.0,0.0,0.0,0.0,0.0,0.0,0.0,0.0,0.0,0.0,0.0,0.0,0.0,0.0,0.0,0.0,0.0,0.0,0.0,0.0,0.0,0.0,0.0,0.0,0.0,0.0,0.0,2.4434,2.7252,2.9886,3.1894,3.3183,3.3814,3.4616,3.5442,3.4551,3.3556,0.0,0.0,0.0,0.0,0.0,0.0,0.0,0.0,0.0,0.0,0.0,0.0,0.0,0.0,0.0,0.0,0.0,0.0,0.0,0.0,0.0,0.0,0.0,0.0,0.0,0.0,0.0,0.0,1.4113,1.4239,1.3918,0.0,0.0,0.0,0.0,0.0,0.0,0.0,0.0,0.0,0.0,1.9061,2.0091,2.0884,2.1472,2.1863,2.1869,2.1886,2.1886,2.1509,2.108,2.0727,0.0,0.0,0.0,0.0,0.0,0.0,0.0,0.0,0.0,0.0,0.0,0.0,0.0,0.0,0.0,0.0,0.0,0.0,0.0,0.0,0.0,0.0,0.0,0.0,0.0,0.0,0.0,0.0,0.0,0.0,0.0,0.0,0.0,0.0,0.0,0.0,0.0,0.0,0.0,0.0,0.0,0.0,0.0,0.0,0.0,0.0,0.0,0.0,0.0,0.0,0.0,0.0,0.0,2.2978,2.5943,2.8161,2.9976,3.1435,3.2039,3.2628,3.3182,3.1912,3.05,0.0,0.0,0.0,0.0,0.0,0.0,0.0,0.0,0.0,0.0,0.0,0.0,0.0,0.0,0.0,0.0,0.0,0.0,0.0,0.0,0.0,0.0,0.0,0.0,0.0,0.0,0.0,0.0,1.2622,1.2755,1.287,0.0,0.0,0.0,0.0,0.0,0.0,0.0,0.0,0.0,0.0,1.7774,1.9049,2.0088,0.0,0.0,2.1251,2.1268,2.1251,2.0899,2.0474,1.996,1.9249,0.0,0.0,0.0,0.0,0.0,0.0,0.0,0.0,0.0,0.0,0.0,0.0,0.0,0.0,0.0,0.0,0.0,0.0,0.0,0.0,0.0,0.0,0.0,0.0,0.0,0.0,0.0,0.0,0.0,0.0,0.0,0.0,0.0,0.0,0.0,0.0,0.0,0.0,0.0,0.0,0.0,0.0,0.0,0.0,0.0,0.0,0.0,0.0,0.0,0.0,0.0,0.0,2.1489,2.4717,2.6014,2.7723,2.9738,2.9858,3.0219,3.0955,2.9301,2.7406,0.0,0.0,0.0,0.0,0.0,0.0,0.0,0.0,0.0,0.0,0.0,0.0,0.0,0.0,0.0,0.0,0.0,0.0,0.0,0.0,0.0,0.0,0.0,0.0,0.0,0.0,0.0,0.0,0.0,0.0,0.0,0.0,0.0,0.0,0.0,0.0,0.0,0.0,0.0,0.0,0.0,1.6204,1.7885,1.9087,1.9912,0.0,2.0243,2.0258,2.0274,2.0261,1.9958,1.9071,0.0,0.0,0.0,0.0,0.0,0.0,0.0,0.0,0.0,0.0,0.0,0.0,0.0,0.0,0.0,0.0,0.0,0.0,0.0,0.0,0.0,0.0,0.0,0.0,0.0,0.0,0.0,0.0,0.0,0.0,0.0,0.0,0.0,0.0,0.0,0.0,0.0,0.0,0.0,0.0,0.0,0.0,0.0,0.0,0.0,0.0,0.0,0.0,0.0,0.0,0.0,0.0,0.0,0.0,2.4089,2.5809,2.7383,2.8842,2.8916,2.8728,2.8249,2.7016,0.0,0.0,0.0,0.0,0.0,0.0,0.0,0.0,0.0,0.0,0.0,0.0,0.0,0.0,0.0,0.0,0.0,0.0,0.0,0.0,0.0,0.0,0.0,0.0,0.0,0.0,0.0,0.8818,0.0,0.0,0.0,0.0,0.0,0.0,0.0,0.0,0.0,0.0,0.0,0.0,0.0,0.0,1.483,1.6307,1.7183,1.7792,0.0,0.0,1.8791,1.8821,1.8657,1.8284,0.0,0.0,0.0,0.0,0.0,0.0,0.0,0.0,0.0,0.0,0.0,0.0,0.0,0.0,0.0,0.0,0.0,0.0,0.0,0.0,0.0,0.0,0.0,0.0,0.0,0.0,0.0,0.0,0.0,0.0,0.0,0.0,0.0,0.0,0.0,0.0,0.0,0.0,0.0,0.0,0.0,0.0,0.0,0.0,0.0,0.0,0.0,0.0,0.0,0.0,0.0,0.0,0.0,0.0,2.0291,2.2912,2.4631,2.6227,2.7757,2.7981,2.7795,2.7218,2.5811,2.3928,0.0,0.0,0.0,0.0,0.0,0.0,0.0,0.0,0.0,0.0,0.0,0.0,0.0,0.0,0.0,0.0,0.0,0.0,0.0,0.0,0.0,0.0,0.0,0.0,0.0,0.0,0.0,0.0,0.0,0.0,0.0,0.0,0.0,0.0,0.0,0.0,0.0,0.0,0.0,0.0,0.0,0.0,1.4836,1.579,0.0,0.0,0.0,1.7325,1.7173,0.0,0.0,0.0,0.0,0.0,0.0,0.0,0.0,0.0,0.0,0.0,0.0,0.0,0.0,0.0,0.0,0.0,0.0,0.0,0.0,0.0,0.0,0.0,0.0,0.0,0.0,0.0,0.0,0.0,0.0,0.0,0.0,0.0,0.0,0.0,0.0,0.0,0.0,0.0,0.0,0.0,0.0,0.0,0.0,0.0,0.0,0.0,0.0,0.0,0.0,0.0,0.0,0.0,0.0,0.0,0.0,0.0,2.1651,2.3181,2.4824,2.662,2.709,2.7123,2.6851,2.5119,2.3001,0.0,0.0,0.0,0.0,0.0,0.0,0.0,0.0,0.0,0.0,0.0,0.0,0.0,0.0,0.0,0.0,0.0,0.0,0.0,0.0,0.0,0.0,0.0,0.0,0.0,0.0,0.0,0.0,0.0,0.0,0.0,0.0,0.0,0.0,0.0,0.0,0.0,0.0,0.0,0.0,0.0,1.2435,1.3408,1.4527,1.5234,0.0,0.0,1.5625,1.5482,1.5581,0.0,0.0,0.0,0.0,0.0,0.0,0.0,0.0,0.0,0.0,0.0,0.0,0.0,0.0,0.0,0.0,0.0,0.0,0.0,0.0,0.0,0.0,0.0,0.0,0.0,0.0,0.0,0.0,0.0,0.0,0.0,0.0,0.0,0.0,0.0,0.0,0.0,0.0,0.0,0.0,0.0,0.0,0.0,0.0,0.0,0.0,0.0,0.0,0.0,0.0,0.0,0.0,0.0,0.0,0.0,0.0,2.1255,2.3035,2.454,2.585,2.6176,2.5882,2.4897,2.3774,2.1998,0.0,0.0,0.0,0.0,0.0,0.0,0.0,0.0,0.0,0.0,0.0,0.0,0.0,0.0,0.0,0.0,0.0,0.0,0.0,0.0,0.0,0.0,0.0,0.0,0.0,0.0,0.0,0.0,0.0,0.0,0.0,0.0,0.0,0.0,0.0,0.0,0.0,0.0,0.0,0.0,0.0,1.0533,1.1758,1.2177,0.0,0.0,0.0,0.0,1.3501,1.3254,0.0,0.0,0.0,0.0,0.0,0.0,0.0,0.0,0.0,0.0,0.0,0.0,0.0,0.0,0.0,0.0,0.0,0.0,0.0,0.0,0.0,0.0,0.0,0.0,0.0,0.0,0.0,0.0,0.0,0.0,0.0,0.0,0.0,0.0,0.0,0.0,0.0,0.0,0.0,0.0,0.0,0.0,0.0,0.0,0.0,0.0,0.0,0.0,0.0,0.0,0.0,0.0,0.0,0.0,0.0,0.0,2.03,2.2407,2.4005,2.5158,2.5771,2.5487,2.4359,2.3307,2.1604,0.0,0.0,0.0,0.0,0.0,0.0,0.0,0.0,0.0,0.0,0.0,0.0,0.0,0.0,0.0,0.0,0.0,0.0,0.0,0.0,0.0,0.0,0.0,0.0,0.0,0.0,0.0,0.0,0.0,0.0,0.0,0.0,0.0,0.0,0.0,0.0,0.0,0.0,0.0,0.0,0.7966,0.9004,0.9846,0.0,0.0,0.0,0.0,0.0,0.0,1.1322,1.1113,0.0,0.0,0.0,0.0,0.0,0.0,0.0,0.0,0.0,0.0,0.0,0.0,0.0,0.0,0.0,0.0,0.0,0.0,0.0,0.0,0.0,0.0,0.0,0.0,0.0,0.0,0.0,0.0,0.0,0.0,0.0,0.0,0.0,0.0,0.0,0.0,0.0,0.0,0.0,0.0,0.0,0.0,0.0,0.0,0.0,0.0,0.0,0.0,0.0,0.0,0.0,0.0,0.0,0.0,0.0,1.9373,2.1688,2.3468,2.4684,2.5573,2.5487,2.4327,2.3144,2.1433,1.9048,0.0,0.0,0.0,0.0,0.0,0.0,0.0,0.0,0.0,0.0,0.0,0.0,0.0,0.0,0.0,0.0,0.0,0.0,0.0,0.0,0.0,0.0,0.0,0.0,0.0,0.0,0.0,0.0,0.0,0.0,0.0,0.0,0.0,0.0,0.0,0.0,0.0,0.0,0.0,0.6434,0.7459,0.0,0.0,0.0,0.0,0.0,0.0,0.0,0.0,0.9225,0.0,0.0,0.0,0.0,0.0,0.0,0.0,0.0,0.0,0.0,0.0,0.0,0.0,0.0,0.0,0.0,0.0,0.0,0.0,0.0,0.0,0.0,0.0,0.0,0.0,0.0,0.0,0.0,0.0,0.0,0.0,0.0,0.0,0.0,0.0,0.0,0.0,0.0,0.0,0.0,0.0,0.0,0.0,0.0,0.0,0.0,0.0,0.0,0.0,0.0,0.0,0.0,0.0,0.0,0.0,0.0,2.1416,2.3284,2.4652,2.5593,2.5487,2.4327,2.3175,2.1324,1.88,0.0,0.0,0.0,0.0,0.0,0.0,0.0,0.0,0.0,0.0,0.0,0.0,0.0,0.0,0.0,0.0,0.0,0.0,0.0,0.0,0.0,0.0,0.0,0.0,0.0,0.0,0.0,0.0,0.0,0.0,0.0,0.0,0.0,0.0,0.0,0.0,0.0,0.0,0.3442,0.4631,0.0,0.0,0.0,0.0,0.0,0.0,0.0,0.0,0.762,0.0,0.0,0.0,0.0,0.0,0.0,0.0,0.0,0.0,0.0,0.0,0.0,0.0,0.0,0.0,0.0,0.0,0.0,0.0,0.0,0.0,0.0,0.0,0.0,0.0,0.0,0.0,0.0,0.0,0.0,0.0,0.0,0.0,0.0,0.0,0.0,0.0,0.0,0.0,0.0,0.0,0.0,0.0,0.0,0.0,0.0,0.0,0.0,0.0,0.0,0.0,0.0,0.0,0.0,0.0,0.0,0.0,0.0,2.2626,2.4261,2.5289,2.5349,2.4314,2.3017,2.1044,0.0,0.0,0.0,0.0,0.0,0.0,0.0,0.0,0.0,0.0,0.0,0.0,0.0,0.0,0.0,0.0,0.0,0.0,0.0,0.0,0.0,0.0,0.0,0.0,0.0,0.0,0.0,0.0,0.0,0.0,0.0,0.0,0.0,0.0,0.0,0.0,0.0,0.0,0.0,0.0,0.0,0.0,0.0,0.0,0.0,0.0,0.0,0.0,0.0,0.0,0.0,0.0,0.0,0.0,0.0,0.0,0.0,0.0,0.0,0.0,0.0,0.0,0.0,0.0,0.0,0.0,0.0,0.0,0.0,0.0,0.0,0.0,0.0,0.0,0.0,0.0,0.0,0.0,0.0,0.0,0.0,0.0,0.0,0.0,0.0,0.0,0.0,0.0,0.0,0.0,0.0,0.0,0.0,0.0,0.0,0.0,0.0,0.0,0.0,0.0,0.0,0.0,0.0,0.0,0.0,0.0,0.0,0.0,2.185,2.3765,2.4978,2.517,2.4295,2.289,2.0789,0.0,0.0,0.0,0.0,0.0,0.0,0.0,0.0,0.0,0.0,0.0,0.0,0.0,0.0,0.0,0.0,0.0,0.0,0.0,0.0,0.0,0.0,0.0,0.0,0.0,0.0,0.0,0.0,0.0,0.0,0.0,0.0,0.0,0.0,0.0,0.0,0.0,0.0,0.0,0.0,0.0,0.0,0.0,0.0,0.0,0.0,0.0,0.0,0.4928,0.0,0.0,0.0,0.0,0.0,0.0,0.0,0.0,0.0,0.0,0.0,0.0,0.0,0.0,0.0,0.0,0.0,0.0,0.0,0.0,0.0,0.0,0.0,0.0,0.0,0.0,0.0,0.0,0.0,0.0,0.0,0.0,0.0,0.0,0.0,0.0,0.0,0.0,0.0,0.0,0.0,0.0,0.0,0.0,0.0,0.0,0.0,0.0,0.0,0.0,0.0,0.0,0.0,0.0,0.0,0.0,0.0,0.0,0.0,2.1264,2.3498,2.4706,2.4991,2.4287,2.2903,2.0645,0.0,0.0,0.0,0.0,0.0,0.0,0.0,0.0,0.0,0.0,0.0,0.0,0.0,0.0,0.0,0.0,0.0,0.0,0.0,0.0,0.0,0.0,0.0,0.0,0.0,0.0,0.0,0.0,0.0,0.0,0.0,0.0,0.0,0.0,0.0,0.0,0.0,0.0,0.0,0.0,0.0,0.0,0.0,0.0,0.0,0.0,0.0,0.0,0.0,0.0,0.0,0.0,0.0,0.0,0.0,0.0,0.0,0.0,0.0,0.0,0.0,0.0,0.0,0.0,0.0,0.0,0.0,0.0,0.0,0.0,0.0,0.0,0.0,0.0,0.0,0.0,0.0,0.0,0.0,0.0,0.0,0.0,0.0,0.0,0.0,0.0,0.0,0.0,0.0,0.0,0.0,0.0,0.0,0.0,0.0,0.0,0.0,0.0,0.0,0.0,0.0,0.0,0.0,0.0,0.0,0.0,0.0,0.0,1.9923,2.2441,2.3942,2.386,2.2103,2.0736,1.869,0.0,0.0,0.0,0.0,0.0,0.0,0.0,0.0,0.0,0.0,0.0,0.0,0.0,0.0,0.0,0.0,0.0,0.0,0.0,0.0,0.0,0.0,0.0,0.0,0.0,0.0,0.0,0.0,0.0,0.0,0.0,0.0,0.0,0.0,0.0,0.0,0.0,0.0,0.0,0.0,0.0,0.0,0.0,0.0,0.0,0.0,0.0,0.0,0.0,0.0,0.0,0.0,0.0,0.0,0.0,0.0,0.0,0.0,0.0,0.0,0.0,0.0,0.0,0.0,0.0,0.0,0.0,0.0,0.0,0.0,0.0,0.0,0.0,0.0,0.0,0.0,0.0,0.0,0.0,0.0,0.0,0.0,0.0,0.0,0.0,0.0,0.0,0.0,0.0,0.0,0.0,0.0,0.0,0.0,0.0,0.0,0.0,0.0,0.0,0.0,0.0,0.0,0.0,0.0,0.0,0.0,0.0,0.0,0.0,2.0837,2.1896,2.141,1.9446,1.829,1.6483,0.0,0.0,0.0,0.0,0.0,0.0,0.0,0.0,0.0,0.0,0.0,0.0,0.0,0.0,0.0,0.0,0.0,0.0,0.0,0.0,0.0,0.0,0.0,0.0,0.0,0.0,0.0,0.0,0.0,0.0,0.0,0.0,0.0,0.0,0.0,0.0,0.0,0.0,0.0,0.0,0.0,0.0,0.0,0.0,0.0,0.0,0.0,0.0,0.0,0.0,0.0,0.0,0.0,0.0,0.0,0.0,0.0,0.0,0.0,0.0,0.0,0.0,0.0,0.0,0.0,0.0,0.0,0.0,0.0,0.0,0.0,0.0,0.0,0.0,0.0,0.0,0.0,0.0,0.0,0.0,0.0,0.0,0.0,0.0,0.0,0.0,0.0,0.0,0.0,0.0,0.0,0.0,0.0,0.0,0.0,0.0,0.0,0.0,0.0,0.0,0.0,0.0,0.0,0.0,0.0,0.0,0.0,0.0,0.0,1.8804,1.7828,1.7148,1.6741,1.605,1.4494,0.0,0.0,0.0,0.0,0.0,0.0,0.0,0.0,0.0,0.0,0.0,0.0,0.0,0.0,0.0,0.0,0.0,0.0,0.0,0.0,0.0,0.0,0.0,0.0,0.0,0.0,0.0,0.0,0.0,0.0,0.0,0.0,0.0,0.0,0.0,0.0,0.0,0.0,0.0,0.0,0.0,0.0,0.0,0.0,0.0,0.0,0.0,0.0,0.0,0.0,0.0,0.0,0.0,0.0,0.0,0.0,0.0,0.0,0.0,0.0,0.0,0.0,0.0,0.0,0.0,0.0,0.0,0.0,0.0,0.0,0.0,0.0,0.0,0.0,0.0,0.0,0.0,0.0,0.0,0.0,0.0,0.0,0.0,0.0,0.0,0.0,0.0,0.0,0.0,0.0,0.0,0.0,0.0,0.0,0.0,0.0,0.0,0.0,0.0,0.0,0.0,0.0,0.0,0.0,0.0,0.0,0.0,0.0,0.0,1.3275,1.3483,1.3487,1.3231,1.2582,1.1409,0.9642,0.0,0.0,0.0,0.0,0.0,0.0,0.0,0.0,0.0,0.0,0.0,0.0,0.0,0.0,0.0,0.0,0.0,0.0,0.0,0.0,0.0,0.0,0.0,0.0,0.0,0.0,0.0,0.0,0.0,0.0,0.0,0.0,0.0,0.0,0.0,0.0,0.0,0.0,0.0,0.0,0.0,0.0,0.0,0.0,0.0,0.0,0.0,0.0,0.0,0.0,0.0,0.0,0.0,0.0,0.0,0.0,0.0,0.0,0.0,0.0,0.0,0.0,0.0,0.0,0.0,0.0,0.0,0.0,0.0,0.0,0.0,0.0,0.0,0.0,0.0,0.0,0.0,0.0,0.0,0.0,0.0,0.0,0.0,0.0,0.0,0.0,0.0,0.0,0.0,0.0,0.0,0.0,0.0,0.0,0.0,0.0,0.0,0.0,0.0,0.0,0.0,0.0,0.0,0.0,0.0,0.0,0.0,0.0,0.8977,0.9883,1.0241,0.9938,0.9393,0.849,0.0,0.0,0.0,0.0,0.0,0.0,0.0,0.0,0.0,0.0,0.0,0.0,0.0,0.0,0.0,0.0,0.0,0.0,0.0,0.0,0.0,0.0,0.0,0.0,0.0,0.0,0.0,0.0,0.0,0.0,0.0,0.0,0.0,0.0,0.0,0.0,0.0,0.0,0.0,0.0,0.0,0.0,0.0,0.0,0.0,0.0,0.0,0.0,0.0,0.0,0.0,0.0,0.0,0.0,0.0,0.0,0.0,0.0,0.0,0.0,0.0,0.0,0.0,0.0,0.0,0.0,0.0,0.0,0.0,0.0,0.0,0.0,0.0,0.0,0.0,0.0,0.0,0.0,0.0,0.0,0.0,0.0,0.0,0.0,0.0,0.0,0.0,0.0,0.0,0.0,0.0,0.0,0.0,0.0,0.0,0.0,0.0,0.0,0.0,0.0,0.0,0.0,0.0,0.0,0.0,0.0,0.0,0.0,0.4817,0.639,0.7229,0.7482,0.7037,0.6698,0.5879,0.0,0.0,0.0,0.0,0.0,0.0,0.0,0.0,0.0,0.0,0.0,0.0,0.0,0.0,0.0,0.0,0.0,0.0,0.0,0.0,0.0,0.0,0.0,0.0,0.0,0.0,0.0,0.0,0.0,0.0,0.0,0.0,0.0,0.0,0.0,0.0,0.0,0.0,0.0,0.0,0.0,0.0,0.0,0.0,0.0,0.0,0.0,0.0,0.0,0.0,0.0,0.0,0.0,0.0,0.0,0.0,0.0,0.0,0.0,0.0,0.0,0.0,0.0,0.0,0.0,0.0,0.0,0.0,0.0,0.0,0.0,0.0,0.0,0.0,0.0,0.0,0.0,0.0,0.0,0.0,0.0,0.0,0.0,0.0,0.0,0.0,0.0,0.0,0.0,0.0,0.0,0.0,0.0,0.0,0.0,0.0,0.0,0.0,0.0,0.0,0.0,0.0,0.0,0.0,0.0,0.0,0.0,0.0,0.0,0.4417,0.0,0.53,0.0,0.4779,0.4334,0.0,0.0,0.0,0.0,0.0,0.0,0.0,0.0,0.0,0.0,0.0,0.0,0.0,0.0,0.0,0.0,0.0,0.0,0.0,0.0,0.0,0.0,0.0,0.0,0.0,0.0,0.0,0.0,0.0,0.0,0.0,0.0,0.0,0.0,0.0,0.0,0.0,0.0,0.0,0.0,0.0,0.0,0.0,0.0,0.0,0.0,0.0,0.0,0.0,0.0,0.0,0.0,0.0,0.0,0.0,0.0,0.0,0.0,0.0,0.0,0.0,0.0,0.0,0.0,0.0,0.0,0.0,0.0,0.0,0.0,0.0,0.0,0.0,0.0,0.0,0.0,0.0,0.0,0.0,0.0,0.0,0.0,0.0,0.0,0.0,0.0,0.0,0.0,0.0,0.0,0.0,0.0,0.0,0.0,0.0,0.0,0.0,0.0,0.0,0.0,0.0,0.0,0.0,0.0,0.0,0.0,0.0,0.0,0.0,0.3182,0.3601,0.3801,0.3845,0.3577,0.3305,0.0,0.0,0.0,0.0,0.0,0.0,0.0,0.0,0.0,0.0,0.0,0.0,0.0,0.0,0.0,0.0,0.0,0.0,0.0,0.0,0.0,0.0,0.0,0.0,0.0,0.0,0.0,0.0,0.0,0.0,0.0,0.0,0.0,0.0,0.0,0.0,0.0,0.0,0.0,0.0,0.0,0.0,0.0,0.0,0.0,0.0,0.0,0.0,0.0,0.0,0.0,0.0,0.0,0.0,0.0,0.0,0.0,0.0,0.0,0.0,0.0,0.0,0.0,0.0,0.0,0.0,0.0,0.0,0.0,0.0,0.0,0.0,0.0,0.0,0.0,0.0,0.0,0.0,0.0,0.0,0.0,0.0,0.0,0.0,0.0,0.0,0.0,0.0,0.0,0.0,0.0,0.0,0.0,0.0,0.0,0.0,0.0,0.0,0.0,0.0,0.0,0.0,0.0,0.0,0.0,0.0,0.0,0.0,0.0,0.2675,0.2816,0.2929,0.3059,0.2977,0.2696,0.0,0.0,0.0,0.0,0.0,0.0,0.0,0.0,0.0,0.0,0.0,0.0,0.0,0.0,0.0,0.0,0.0,0.0,0.0,0.0,0.0,0.0,0.0,0.0,0.0,0.0,0.0,0.0,0.0,0.0,0.0,0.0,0.0,0.0,0.0,0.0,0.0,0.0,0.0,0.0,0.0,0.0,0.0,0.0,0.0,0.0,0.0,0.0,0.0,0.0,0.0,0.0,0.0,0.0,0.0,0.0,0.0,0.0,0.0,0.0,0.0,0.0,0.0,0.0,0.0,0.0,0.0,0.0,0.0,0.0,0.0,0.0,0.0,0.0,0.0,0.0,0.0,0.0,0.0,0.0,0.0,0.0,0.0,0.0,0.0,0.0,0.0,0.0,0.0,0.0,0.0,0.0,0.0,0.0,0.0,0.0,0.0,0.0,0.0,0.0,0.0,0.0,0.0,0.0,0.0,0.0,0.0,0.0,0.0,0.0,0.2331,0.2397,0.2551,0.2434,0.2288,0.2205,0.0,0.0,0.0,0.0,0.0,0.0,0.0,0.0,0.0,0.0,0.0,0.0,0.0,0.0,0.0,0.0,0.0,0.0,0.0,0.0,0.0,0.0,0.0,0.0,0.0,0.0,0.0,0.0,0.0,0.0,0.0,0.0,0.0,0.0,0.0,0.0,0.0,0.0,0.0,0.0,0.0,0.0,0.0,0.0,0.0,0.0,0.0,0.0,0.0,0.0,0.0,0.0,0.0,0.0,0.0,0.0,0.0,0.0,0.0,0.0,0.0,0.0,0.0,0.0,0.0,0.0,0.0,0.0,0.0,0.0,0.0,0.0,0.0,0.0,0.0,0.0,0.0,0.0,0.0,0.0,0.0,0.0,0.0,0.0,0.0,0.0,0.0,0.0,0.0,0.0,0.0,0.0,0.0,0.0,0.0,0.0,0.0,0.0,0.0,0.0,0.0,0.0,0.0,0.0,0.0,0.0,0.0,0.0,0.0,0.0,0.2197,0.2257,0.2255,0.2196,0.0,0.0,0.0,0.0,0.0,0.0,0.0,0.0,0.0,0.0,0.0,0.0,0.0,0.0,0.0,0.0,0.0,0.0,0.0,0.0,0.0,0.0,0.0,0.0,0.0,0.0,0.0,0.0,0.0,0.0,0.0,0.0,0.0,0.0,0.0,0.0,0.0,0.0,0.0,0.0,0.0,0.0,0.0,0.0,0.0,0.0,0.0,0.0,0.0,0.0,0.0,0.0,0.0,0.0,0.0,0.0,0.0,0.0,0.0,0.0,0.0,0.0,0.0,0.0,0.0,0.0,0.0,0.0,0.0,0.0,0.0,0.0,0.0,0.0,0.0,0.0,0.0,0.0,0.0,0.0,0.0,0.0,0.0,0.0,0.0,0.0,0.0,0.0,0.0,0.0,0.0,0.0,0.0,0.0,0.0,0.0,0.0,0.0,0.0,0.0,0.0,0.0,0.0,0.0,0.0,0.0,0.0,0.0,0.0,0.0,0.0,0.2136,0.2136,0.2255,0.0,0.2139,0.0,0.0,0.0,0.0,0.0,0.0,0.0,0.0,0.0,0.0,0.0,0.0,0.0,0.0,0.0,0.0,0.0,0.0,0.0,0.0,0.0,0.0,0.0,0.0,0.0,0.0,0.0,0.0,0.0,0.0,0.0,0.0,0.0,0.0,0.0,0.0,0.0,0.0,0.0,0.0,0.0,0.0,0.0,0.0,0.0,0.0,0.0,0.0,0.0,0.0,0.0,0.0,0.0,0.0,0.0,0.0,0.0,0.0,0.0,0.0,0.0,0.0,0.0,0.0,0.0,0.0,0.0,0.0,0.0,0.0,0.0,0.0,0.0,0.0,0.0,0.0,0.0,0.0,0.0,0.0,0.0,0.0,0.0,0.0,0.0,0.0,0.0,0.0,0.0,0.0,0.0,0.0,0.0,0.0,0.0,0.0,0.0,0.0,0.0,0.0,0.0,0.0,0.0,0.0,0.0,0.0,0.0,0.0,0.0,0.0,0.0,0.0,0.2156,0.2164,0.2137,0.0,0.0,0.0,0.0,0.0,0.0,0.0,0.0,0.0,0.0,0.0,0.0,0.0,0.0,0.0,0.0,0.0,0.0,0.0,0.0,0.0,0.0,0.0,0.0,0.0,0.0,0.0,0.0,0.0,0.0,0.0,0.0,0.0,0.0,0.0,0.0,0.0,0.0,0.0,0.0,0.0,0.0,0.0,0.0,0.0,0.0,0.0,0.0,0.0,0.0,0.0,0.0,0.0,0.0,0.0,0.0,0.0,0.0,0.0,0.0,0.0,0.0,0.0,0.0,0.0,0.0,0.0,0.0,0.0,0.0,0.0,0.0,0.0,0.0,0.0,0.0,0.0,0.0,0.0,0.0,0.0,0.0,0.0,0.0,0.0,0.0,0.0,0.0,0.0,0.0,0.0,0.0,0.0,0.0,0.0,0.0,0.0,0.0,0.0,0.0,0.0,0.0,0.0,0.0,0.0,0.0,0.0,0.0,0.0,0.0,0.214,0.214,0.214,0.214,0.214,0.0,0.0,0.0,0.0,0.0,0.0,0.0,0.0,0.0,0.0,0.0,0.0,0.0,0.0,0.0,0.0,0.0,0.0,0.0,0.0,0.0,0.0,0.0,0.0,0.0,0.0,0.0,0.0,0.0,0.0,0.0,0.0,0.0,0.0,0.0,0.0,0.0,0.0,0.0,0.0,0.0,0.0,0.0,0.0,0.0,0.0,0.0,0.0,0.0,0.0,0.0,0.0,0.0,0.0,0.0,0.0,0.0,0.0,0.0,0.0,0.0,0.0,0.0,0.0,0.0,0.0,0.0,0.0,0.0,0.0,0.0,0.0,0.0,0.0,0.0,0.0,0.0,0.0,0.0,0.0,0.0,0.0,0.0,0.0,0.0,0.0,0.0,0.0,0.0,0.0,0.0,0.0,0.0,0.0,0.0,0.0,0.0,0.0,0.0,0.0,0.0,0.0,0.0,0.0,0.0,0.0,0.0,0.0,0.0,0.0,0.0,0.0,0.0,0.0,0.2096,0.0,0.0,0.0,0.0,0.0,0.0,0.0,0.0,0.0,0.0,0.0,0.0,0.0,0.0,0.0,0.0,0.0,0.0,0.0,0.0,0.0,0.0,0.0,0.0,0.0,0.0,0.0,0.0,0.0,0.0,0.0,0.0,0.0,0.0,0.0,0.0,0.0,0.0,0.0,0.0,0.0,0.0,0.0,0.0,0.0,0.0,0.0,0.0,0.0,0.0,0.0,0.0,0.0,0.0,0.0,0.0,0.0,0.0,0.0,0.0,0.0,0.0,0.0,0.0,0.0,0.0,0.0,0.0,0.0,0.0,0.0,0.0,0.0,0.0,0.0,0.0,0.0,0.0,0.0,0.0,0.0,0.0,0.0,0.0,0.0,0.0,0.0,0.0,0.0,0.0,0.0,0.0,0.0,0.0,0.0,0.0,0.0,0.0,0.0,0.0,0.0,0.0,0.0,0.0,0.0,0.0,0.0,0.0,0.0,0.0,0.0,0.0,0.0,0.0,0.0,0.0,0.0,0.0,0.0,0.0,0.0,0.0,0.0,0.0,0.0,0.0,0.0,0.0,0.0,0.0,0.0,0.0,0.0,0.0,0.0,0.0,0.0,0.0,0.0,0.0,0.0,0.0,0.0,0.0,0.0,0.0,0.0,0.0,0.0,0.0,0.0,0.0,0.0,0.0,0.0,0.0,0.0,0.0,0.0,0.0,0.0,0.0,0.0,0.0,0.0,0.0,0.0,0.0,0.0,0.0,0.0,0.0,0.0,0.0,0.0,0.0,0.0,0.0,0.0,0.0,0.0,0.0,0.0,0.0,0.0,0.0,0.0,0.0,0.0,0.0,0.0,0.0,0.0,0.0,0.0,0.0,0.0,0.0,0.0,0.0,0.0,0.0,0.0,0.0,0.0,0.0,0.0,0.0,0.0,0.0,0.0,0.0,0.0,0.0,0.0,0.0,0.0,0.0,0.0,0.0,0.0,0.0,0.0,0.0,0.0,0.0,0.0,0.0,0.0,0.0,0.0,0.0,0.0,0.0,0.0,0.0,0.0,0.0,0.0,0.0,0.0,0.0,0.0,0.0,0.0,0.0,0.0,0.0,0.0,0.0,0.0,0.0,0.0,0.0,0.0,0.0,0.0,0.0,0.0,0.0,0.0,0.0,0.0,0.0,0.0,0.0,0.0,0.0,0.0,0.0,0.0,0.0,0.0,0.0,0.0,0.0,0.0,0.0,0.0,0.0,0.0,0.0,0.0,0.0,0.0,0.0,0.0,0.0,0.0,0.0,0.0,0.0,0.0,0.0,0.0,0.0,0.0,0.0,0.0,0.0,0.0,0.0,0.0,0.0,0.0,0.0,0.0,0.0,0.0,0.0,0.0,0.0,0.0,0.0,0.0,0.0,0.0,0.0,0.0,0.0,0.0,0.0,0.0,0.0,0.0,0.0,0.0,0.0,0.0,0.0,0.0,0.0,0.0,0.0,0.0,0.0,0.0,0.0,0.0,0.0,0.0,0.0,0.0,0.0,0.0,0.0,0.0,0.0,0.0,0.0,0.0,0.0,0.0,0.0,0.0,0.0,0.0,0.0,0.0,0.0,0.0,0.0,0.0,0.0,0.0,0.0,0.0,0.0,0.0,0.0,0.0,0.0,0.0,0.0,0.0,0.0,0.0,0.0,0.0,0.0,0.0,0.0,0.0,0.0,0.0,0.0,0.0,0.0,0.0,0.0,0.0,0.0,0.0,0.0,0.0,0.0,0.0,0.0,0.0,0.0,0.0,0.0,0.0,0.0,0.0,0.0,0.0,0.0,0.0,0.0,0.0,0.0,0.0,0.0,0.0,0.0,0.0,0.0,0.0,0.0,0.0,0.0,0.0,0.0,0.0,0.0,0.0,0.0,0.0,0.0,0.0,0.0,0.0,0.0,0.0,0.0,0.0,0.0,0.0,0.0,0.0,0.0,0.0,0.0,0.0,0.0,0.0,0.0,0.0,0.0,0.0,0.0,0.0,0.0,0.0,0.0,0.0,0.0,0.0,0.0,0.0,0.0,0.0,0.0,0.0,0.0,0.0,0.0,0.0,0.0,0.0,0.0,0.0,0.0,0.0,0.0,0.0,0.0,0.0,0.0,0.0,0.0,0.0,0.0,0.0,0.0,0.0,0.0,0.0,0.0,0.0,0.0,0.0,0.0,0.0,0.0,0.0,0.0,0.0,0.0,0.0,0.0,0.0,0.0,0.0,0.0,0.0,0.0,0.0,0.0,0.0,0.0,0.0,0.0,0.0,0.0,0.0,0.0,0.0,0.0,0.0,0.0,0.0,0.0,0.0,0.0,0.0,0.0,0.0,0.0,0.0,0.0,0.0,0.0,0.0,0.0,0.0,0.0,0.0,0.0,0.0,0.0,0.0,0.0,0.0,0.0,0.0,0.0,0.0,0.0,0.0,0.0,0.0,0.0,0.0,0.0,0.0,0.0,0.0,0.0,0.0,0.0,0.0,0.0,0.0,0.0,0.0,0.0,0.0,0.0,0.0,0.0,0.0,0.0,0.0,0.0,0.0,0.0,0.0,0.0,0.0,0.0,0.0,0.0,0.0,0.0,0.0,0.0,0.0,0.0,0.0,0.0,0.0,0.0,0.0,0.0,0.0,0.0,0.0,0.0,0.0,0.0,0.0,0.0,0.0,0.0,0.0,0.0,0.0,0.0,0.0,0.0,0.0,0.0,0.0,0.0,0.0,0.0,0.0,0.0,0.0,0.0,0.0,0.0,0.0,0.0,0.0,0.0,0.0,0.0,0.0,0.0,0.0,0.0,0.0,0.0,0.0,0.0,0.0,0.0,0.0,0.0,0.0,0.0,0.0,0.0,0.0,0.0,0.0,0.0,0.0,0.0,0.0,0.0,0.0,0.0,0.0,0.0,0.0,0.0,0.0,0.0,0.0,0.0,0.0,0.0,0.0,0.0,0.0,0.0,0.0,0.0,0.0,0.0,0.0,0.0,0.0,0.0,0.0,0.0,0.0,0.0,0.0,0.0,0.0,0.0,0.0,0.0,0.0,0.0,0.0,0.0,0.0,0.0,0.0,0.0,0.0,0.0,0.0,0.0,0.0,0.0,0.0,0.0,0.0,0.0,0.0,0.0,0.0,0.0,0.0,0.0,0.0,0.0,0.0,0.0,0.0,0.0,0.0,0.0,0.0,0.0,0.0,0.0,0.0,0.0,0.0,0.0,0.0,0.0,0.0,0.0,0.0,0.0,0.0,0.0,0.0,0.0,0.0,0.0,0.0,0.0,0.0,0.0,0.0,0.0,0.0,0.0,0.0,0.0,0.0,0.0,0.0,0.0,0.0,0.0,0.0,0.0,0.0,0.0,0.0,0.0,0.0,0.0,0.0,0.0,0.0,0.0,0.0,0.0,0.0,0.0,0.0,0.0,0.0,0.0,0.0,0.0,0.0,0.0,0.0,0.0,0.0,0.0,0.0,0.0,0.0,0.0,0.0,0.0,0.0,0.0,0.0,0.0,0.0,0.0,0.0,0.0,0.0,0.0,0.0,0.0,0.0,0.0,0.0,0.0,0.0,0.0,0.0,0.0,0.0,0.0,0.0,0.0,0.0,0.0,0.0,0.0,0.0,0.0,0.0,0.0,0.0,0.0,0.0,0.0,0.0,0.0,0.0,0.0,0.0,0.0,0.0,0.0,0.0,0.0,0.0,0.0,0.0,0.0,0.0,0.0,0.0,0.0,0.0,0.0,0.0,0.0,0.0,0.0,0.0,0.0,0.0,0.0,0.0,0.0,0.0,0.0,0.0,0.0,0.0,0.0,0.0,0.0,0.0,0.0,0.0,0.0,0.0,0.0,0.0,0.0,0.0,0.0,0.0,0.0,0.0,0.0,0.0,0.0,0.0,0.0,0.0,0.0,0.0,0.0,0.0,0.0,0.0,0.0,0.0,0.0,0.0,0.0,0.0,0.0,0.0,0.0,0.0,0.0,0.0,0.0,0.0,0.0,0.0,0.0,0.0,0.0,0.0,0.0,0.0,0.0,0.0,0.0,0.0,0.0,0.0,0.0,0.0,0.0,0.0,0.0,0.0,0.0,0.0,0.0,0.0,0.0,0.0,0.0,0.0,0.0,0.0,0.0,0.0,0.0,0.0,0.0,0.0,0.0,0.0,0.0,0.0,0.0,0.0,0.0,0.0,0.0,0.0,0.0,0.0,0.0,0.0,0.0,0.0,0.0,0.0,0.0,0.0,0.0,0.0,0.0,0.0,0.0,0.0,0.0,0.0,0.0,0.0,0.0,0.0,0.0,0.0,0.0,0.0,0.0,0.0,0.0,0.0,0.0,0.0,0.0,0.0,0.0,0.0,0.0,0.0,0.0]}]]]